GFSWCAN_500_spd_000.txt.gz
Wind_Speed
39 33 37 36 44 41 40 39 36 36 36 34 35 35 36 35 35 34 33 32 32 30 30 30 30 29 28 27 27 26 27 28 31 32 32 33 34 36 36 37 39 45 52 48 44 39 39 38 40 42 43 45 48 50
43 37 35 33 39 43 41 40 39 37 37 37 35 36 37 38 37 36 34 34 34 35 34 34 33 32 32 32 32 32 33 35 36 36 37 38 39 39 39 41 42 45 47 43 43 37 40 41 42 45 49 50 53 56
47 43 40 37 41 40 41 41 41 41 38 39 38 36 36 38 38 38 37 37 38 37 37 36 36 36 37 37 37 37 38 39 39 39 40 42 41 41 41 45 48 48 45 40 42 39 43 43 44 47 51 54 57 61
50 49 45 43 45 48 43 44 40 42 41 40 40 39 38 37 37 38 39 40 39 40 40 40 39 40 40 40 40 41 42 42 42 41 43 42 42 42 44 49 51 47 45 42 42 43 44 45 48 51 56 59 62 65
56 53 52 45 45 44 40 40 38 38 43 40 41 42 42 40 40 39 40 39 40 42 42 42 42 42 43 43 43 43 43 42 43 43 44 44 42 44 50 53 49 43 44 45 46 48 50 53 55 57 58 61 65 70
55 58 56 49 46 48 44 43 42 39 40 43 42 41 43 43 43 42 41 41 41 42 43 43 42 43 44 44 43 43 43 43 44 45 45 45 43 48 55 55 41 45 47 49 52 55 57 59 58 59 62 67 72 75
59 59 56 50 45 46 48 50 49 44 41 42 42 42 43 44 45 45 45 42 43 43 43 45 45 43 43 44 45 45 43 43 44 46 47 47 47 54 57 51 45 50 52 54 56 57 59 60 60 64 68 71 74 74
58 56 58 54 51 46 43 43 41 43 45 45 42 42 42 42 45 46 46 44 44 44 45 49 47 45 42 43 44 44 44 45 45 46 48 50 55 58 55 48 50 51 53 54 56 57 57 60 64 67 70 72 73 74
48 49 57 59 58 54 50 46 42 40 38 41 45 41 40 43 44 44 45 44 44 46 49 49 48 47 47 45 42 40 42 44 49 52 53 53 54 53 50 52 53 54 54 54 56 59 61 64 66 68 69 72 72 71
48 47 48 51 57 56 52 49 43 44 40 43 44 44 40 42 41 43 45 47 46 45 47 46 46 48 47 45 43 41 46 49 52 51 51 53 52 51 50 54 54 55 56 57 58 60 63 65 66 68 70 70 71 72
57 51 47 47 52 54 52 49 45 45 45 49 51 49 45 41 42 47 49 49 49 47 46 49 51 49 45 46 49 53 55 55 54 52 53 54 52 52 54 55 57 57 56 57 60 62 64 66 67 68 69 71 72 73
39 53 57 48 46 50 53 50 48 47 46 47 46 47 46 47 49 53 52 50 49 49 48 44 47 50 52 52 51 50 50 53 55 55 56 57 56 57 59 60 58 57 57 59 62 64 65 66 67 69 70 71 72 72
26 33 49 58 51 48 51 55 53 50 44 51 54 51 52 52 52 52 54 52 52 49 46 44 44 45 44 45 48 50 52 52 54 57 59 59 61 61 60 58 57 57 59 61 63 63 64 66 68 69 69 68 69 68
30 30 31 42 60 55 51 55 51 55 56 54 46 52 55 56 56 56 54 53 51 49 49 50 50 48 48 52 52 52 56 59 62 62 63 62 60 58 56 54 55 58 60 61 62 64 65 65 67 67 65 66 66 64
33 33 34 34 39 54 54 51 52 48 51 53 51 52 53 53 55 57 58 55 54 54 55 56 51 52 57 59 56 58 63 64 64 63 61 59 56 54 54 55 58 60 61 61 63 63 63 65 65 62 62 62 62 59
35 35 35 38 38 40 49 53 51 53 54 52 52 49 51 57 58 61 58 57 58 59 61 61 58 59 62 62 62 64 64 60 55 55 55 52 51 52 54 57 59 59 60 60 62 63 63 61 60 60 59 59 56 56
37 35 34 37 41 41 41 45 50 53 55 56 57 57 54 55 56 57 57 55 53 52 53 55 56 59 62 62 61 57 53 53 52 52 52 52 51 53 57 58 57 58 59 61 61 58 57 58 59 59 57 53 51 50
38 32 29 32 36 38 37 37 42 46 48 50 50 52 54 56 53 51 51 53 53 52 50 49 52 52 50 48 48 49 50 51 52 51 49 51 55 57 57 56 56 57 58 58 55 55 57 57 58 55 51 48 43 42
41 34 28 25 34 34 30 31 32 33 35 38 42 45 46 45 44 45 46 46 46 45 46 46 47 46 45 49 51 52 51 49 49 51 53 54 56 55 56 56 56 55 56 54 54 56 56 56 52 49 46 43 40 41
32 29 28 25 27 34 34 30 28 31 32 31 32 32 33 34 36 36 37 39 40 41 42 43 43 46 50 51 50 48 49 49 50 51 51 51 51 52 52 52 52 53 54 54 54 55 55 51 49 45 42 40 39 41
30 24 23 22 23 26 30 32 31 29 29 30 31 34 35 36 37 38 39 40 40 41 40 41 45 47 46 46 46 47 47 48 49 48 47 47 49 48 49 51 53 54 53 53 53 52 50 47 43 39 39 39 41 42
32 29 30 25 21 27 28 24 22 22 23 24 24 26 28 30 31 32 33 34 34 37 40 41 42 41 42 42 43 44 44 45 45 46 48 48 48 49 51 53 53 52 52 51 50 46 43 41 38 38 40 40 39 37
37 31 31 32 33 32 31 25 23 24 25 26 26 27 28 30 33 35 37 38 35 39 41 40 38 38 38 39 40 42 43 44 45 45 47 49 50 52 53 53 54 52 49 46 43 38 38 38 37 36 34 33 31 29
32 29 24 22 22 22 23 23 24 23 24 26 30 34 37 39 39 39 37 31 33 35 35 36 36 36 36 37 40 42 44 45 46 47 50 54 55 55 56 53 51 49 46 39 35 34 34 33 33 33 30 27 25 24
26 25 20 17 17 18 19 21 24 27 31 35 37 35 29 28 27 27 28 32 34 35 36 36 36 36 37 40 42 45 48 50 51 51 53 57 58 55 52 50 46 43 38 34 32 32 31 31 32 31 31 29 27 28
12 19 19 18 19 21 22 23 24 26 28 27 25 27 30 30 32 34 34 36 36 35 34 34 36 39 41 45 47 49 52 56 56 55 54 53 50 49 47 43 40 37 37 35 34 34 33 34 34 35 33 32 33 35
16 15 17 18 19 20 22 24 26 26 29 30 31 33 34 34 32 30 31 31 32 33 36 39 41 43 46 49 52 53 54 55 55 51 47 45 46 46 45 40 38 38 38 35 34 34 34 34 36 37 37 38 40 42
16 16 17 18 20 20 22 25 28 31 31 32 32 30 28 28 30 31 32 34 37 40 42 44 48 50 50 49 50 52 54 55 54 53 51 49 47 45 42 38 37 36 35 35 34 33 34 36 37 38 39 40 41 43
16 18 19 21 22 25 28 29 29 28 28 28 28 28 31 33 36 37 39 41 43 46 48 48 46 46 48 48 49 49 53 58 57 52 48 45 45 42 38 34 34 34 35 36 36 37 39 40 40 41 41 41 42 43
24 25 26 28 28 28 29 31 31 30 29 30 31 34 36 38 40 41 43 43 42 43 44 44 44 43 43 43 45 48 51 49 41 38 38 37 37 36 34 33 34 35 36 37 39 41 42 42 42 42 43 44 45 43
25 26 25 22 21 23 26 28 29 30 31 33 36 38 39 40 40 40 41 42 43 42 42 43 43 43 43 43 44 44 44 41 35 32 34 36 35 33 32 32 33 35 37 39 40 41 43 43 43 44 45 46 44 43
22 23 25 27 30 31 32 32 34 32 32 34 37 38 38 39 41 39 39 40 41 41 42 44 45 45 44 44 44 43 39 38 35 32 33 36 36 34 34 34 35 37 38 39 39 40 41 43 44 45 46 42 43 46
26 28 31 34 35 35 34 35 35 34 31 31 32 35 37 39 38 38 39 40 42 44 46 47 48 48 48 47 46 45 42 39 37 35 34 35 37 37 37 36 35 34 35 38 40 43 45 46 48 46 44 46 48 49

GFSWCAN_500_spd_003.txt.gz
Wind_Speed
42 39 43 43 36 37 40 40 40 38 36 34 34 34 33 33 34 34 33 34 34 35 35 36 35 34 33 32 32 31 32 31 30 31 30 32 33 35 37 38 40 41 41 40 44 47 48 45 40 38 39 42 44 47
41 39 37 43 39 35 37 37 38 37 37 36 35 35 35 35 36 36 35 35 35 35 35 35 35 34 34 33 33 34 34 33 34 34 35 37 38 40 41 42 42 38 40 41 47 46 43 44 45 44 45 46 50 54
39 36 35 36 44 41 37 38 38 38 36 37 36 35 35 37 38 38 38 38 37 37 37 37 35 35 35 35 36 36 36 37 38 39 41 42 44 43 43 44 43 38 41 46 48 40 43 41 44 45 47 51 56 59
43 40 40 37 39 38 34 42 39 39 38 36 37 37 36 36 38 40 40 40 40 40 41 40 40 39 39 40 40 41 41 42 43 44 45 47 47 47 45 46 46 39 44 49 52 46 45 43 48 50 52 54 56 58
50 47 44 38 34 35 33 36 42 40 40 39 38 37 39 37 37 39 40 41 42 43 43 43 43 44 44 44 44 45 45 46 47 47 48 48 49 47 49 50 44 40 46 51 54 49 48 50 50 54 57 55 59 62
48 48 44 41 37 37 34 33 38 37 38 40 40 40 39 40 39 39 39 42 43 44 46 46 45 46 47 46 47 48 50 49 50 49 49 50 49 47 53 51 43 42 50 57 56 53 53 54 54 53 56 60 62 64
54 50 48 45 41 43 41 40 41 42 40 37 38 41 41 41 42 43 42 39 40 42 44 45 46 47 45 45 46 47 47 48 47 48 50 49 47 50 54 49 45 52 53 53 52 53 55 56 56 57 60 62 65 68
54 53 51 49 49 47 43 41 41 40 39 37 38 38 41 43 43 45 46 45 44 44 44 47 49 47 42 43 44 45 46 47 48 48 49 49 50 50 53 48 52 52 53 53 54 55 56 57 60 63 63 65 68 70
54 52 51 52 53 51 48 48 42 45 43 42 42 39 41 41 43 45 46 46 46 48 47 51 51 48 47 46 47 47 48 48 50 50 49 49 51 50 46 47 51 53 54 54 56 57 60 63 65 65 67 68 69 70
55 58 54 54 55 52 52 49 47 46 48 47 46 47 48 47 46 47 48 48 48 48 49 50 48 48 48 48 46 47 48 49 50 49 49 50 51 50 51 53 54 54 55 56 59 62 65 67 66 66 66 67 68 70
55 54 57 57 53 54 53 52 48 46 45 43 42 44 41 41 46 50 49 47 47 45 44 42 43 47 46 45 46 46 48 48 48 49 53 56 59 55 53 53 54 56 58 61 65 67 67 65 64 65 66 67 69 71
51 53 49 47 46 51 55 54 55 52 50 46 45 45 45 47 47 47 51 49 45 46 42 38 41 46 49 50 52 50 47 47 52 54 56 56 53 51 52 54 58 62 64 67 68 67 64 62 64 65 66 68 70 71
29 41 51 51 44 46 47 47 52 57 51 45 42 50 48 53 55 56 58 54 48 43 42 45 49 48 46 46 45 43 48 53 54 51 51 53 54 55 57 61 63 66 68 68 66 63 61 62 63 66 67 69 70 69
19 21 27 39 48 49 45 48 45 49 50 48 48 56 59 60 61 60 55 51 49 49 49 50 49 48 48 47 48 49 53 54 55 54 56 58 59 60 63 65 67 67 66 63 60 59 61 63 64 66 68 68 67 66
23 26 25 24 29 43 51 50 44 48 51 53 53 55 57 61 63 65 59 57 57 57 55 54 54 53 52 51 52 54 57 60 59 58 59 62 63 65 68 67 64 63 61 59 59 60 62 64 65 65 65 64 64 64
24 26 29 31 29 26 32 45 55 53 50 55 59 53 49 49 53 58 56 49 50 50 50 53 57 58 57 59 61 61 62 64 62 63 64 65 66 65 63 60 58 57 57 58 60 61 63 64 63 62 61 61 62 61
28 30 30 31 33 35 33 34 43 55 59 56 54 54 48 47 48 52 55 51 49 48 50 53 55 56 57 58 58 57 57 58 60 60 60 57 53 54 55 54 54 56 57 59 60 62 62 61 60 59 60 59 59 57
36 36 35 35 35 35 38 40 39 43 51 55 56 52 52 53 49 48 48 48 46 46 47 47 49 50 52 54 55 55 56 54 50 46 47 49 52 54 54 54 55 57 58 59 60 60 60 58 57 58 58 57 56 54
41 40 39 38 37 38 39 41 42 41 43 47 51 56 57 55 55 52 50 50 49 48 48 49 50 50 50 51 51 51 49 47 45 47 49 51 52 53 55 56 57 58 59 59 59 57 57 56 56 56 57 56 55 52
41 40 37 35 35 33 35 37 36 38 38 37 41 46 49 49 49 50 50 48 46 44 43 41 41 44 47 44 43 42 44 45 46 46 49 52 54 55 56 57 57 58 58 57 55 54 53 54 55 55 53 52 50 46
39 39 35 37 31 28 28 31 27 28 29 30 32 33 34 35 35 35 35 37 37 38 40 42 44 44 44 44 43 43 45 47 48 49 51 53 55 55 55 55 56 55 54 53 53 53 54 54 52 50 48 45 43 43
40 38 27 29 32 27 25 26 32 31 28 27 28 29 30 30 31 33 34 35 36 37 39 40 41 42 42 44 46 47 48 48 48 49 51 52 52 52 52 53 54 54 55 56 57 56 54 51 47 44 41 39 37 35
42 37 33 31 27 23 22 22 21 23 23 22 21 21 21 24 27 29 31 32 35 40 41 43 44 46 47 48 45 44 45 46 47 48 49 50 51 52 52 54 56 58 58 57 57 53 49 43 40 38 37 35 33 32
41 37 39 38 35 23 20 19 22 27 28 25 24 24 24 26 29 33 34 40 45 46 47 44 42 39 39 40 41 43 44 46 47 47 48 50 52 53 56 58 58 59 59 56 52 50 44 38 36 35 34 32 32 33
29 33 35 36 33 30 32 32 31 31 28 26 27 28 30 32 35 39 41 39 37 34 33 35 38 40 42 43 43 43 44 45 47 49 49 53 58 58 59 59 58 57 54 52 51 49 42 36 35 35 35 35 35 35
36 35 33 29 22 21 22 23 22 23 25 26 28 30 34 38 40 37 33 36 35 36 39 40 40 39 39 40 42 45 47 49 50 53 54 55 56 59 60 60 58 53 53 52 50 47 41 36 34 32 32 33 34 36
28 27 25 23 20 19 19 20 22 24 27 30 31 33 35 35 36 36 37 40 41 40 39 39 39 40 41 44 46 47 48 49 49 50 51 52 54 56 61 65 61 53 50 49 46 44 38 33 30 30 31 32 35 38
14 14 13 14 16 19 21 24 26 27 28 29 31 33 35 36 35 35 37 37 38 38 39 40 41 43 44 46 46 43 44 45 46 48 49 50 52 54 57 51 44 42 41 40 40 38 33 31 31 31 32 35 38 39
12 13 15 16 17 19 21 23 25 26 28 30 32 33 32 32 33 34 35 37 38 39 41 44 46 48 47 45 45 46 46 46 47 48 50 50 51 52 47 40 33 34 36 36 36 34 32 31 32 34 36 38 40 42
16 18 19 21 23 25 27 28 30 31 32 32 32 32 33 32 32 34 37 40 43 44 45 47 47 47 47 47 46 47 47 48 49 50 50 51 51 49 44 40 36 35 35 35 33 33 33 35 36 37 39 41 44 45
21 24 26 28 30 30 30 29 28 28 29 31 33 35 37 39 40 41 42 43 44 45 46 47 47 47 46 46 47 48 49 49 50 50 50 50 49 48 45 41 38 37 38 37 35 34 35 37 39 39 40 42 44 46
25 26 27 27 27 28 30 31 32 35 37 40 41 42 43 42 43 41 41 42 44 46 47 47 46 46 47 48 50 51 52 52 53 53 52 51 49 47 45 43 40 38 38 39 38 37 37 37 37 38 40 44 48 51
20 22 25 30 32 34 35 38 39 38 37 38 38 40 40 41 41 43 45 46 46 46 47 47 48 49 51 52 54 55 56 56 56 56 55 53 51 48 46 44 43 41 39 38 37 36 36 37 39 43 47 49 51 52

GFSWCAN_500_spd_006.txt.gz
Wind_Speed
47 48 46 41 39 43 43 44 42 40 36 34 32 31 31 32 32 33 34 35 37 39 38 39 37 37 36 36 35 35 35 34 34 35 35 34 35 34 35 37 38 41 42 43 45 45 46 48 48 48 48 46 48 46
42 47 43 38 43 39 40 43 43 42 39 36 34 33 31 31 32 33 34 34 35 37 37 39 38 38 38 39 37 34 38 35 37 36 36 37 37 38 39 41 43 46 44 47 47 46 47 51 51 51 51 51 51 51
38 42 40 39 41 39 38 41 41 41 39 37 35 33 33 33 32 32 33 35 35 35 37 39 38 37 38 38 37 37 37 38 38 38 38 40 40 41 42 43 45 47 45 48 50 46 47 49 50 56 55 54 54 56
45 37 41 39 41 42 38 38 40 40 39 37 36 35 34 34 34 34 34 35 37 35 37 37 37 38 38 38 37 38 39 40 40 40 41 43 44 45 46 47 50 46 46 45 49 49 50 50 54 56 55 53 55 58
44 41 41 38 36 40 41 36 37 38 37 37 36 35 35 35 35 35 35 37 38 38 38 36 38 37 39 39 39 40 41 41 42 44 46 46 48 49 50 50 50 43 45 47 49 52 48 54 55 55 52 53 56 59
41 43 42 38 36 38 42 39 38 36 36 37 35 35 33 34 36 36 37 39 38 39 40 40 39 38 41 41 41 43 44 45 46 48 50 51 51 52 53 54 47 45 45 45 49 51 53 54 56 56 54 57 59 62
43 39 41 39 36 36 38 38 37 34 36 39 37 36 35 35 36 38 38 34 35 37 40 41 43 42 43 42 43 42 45 46 46 48 52 51 48 51 55 54 43 45 45 48 48 50 56 55 57 57 56 60 64 68
46 41 46 44 42 39 37 36 34 33 31 36 39 37 36 38 39 41 40 39 37 38 40 42 44 43 40 42 42 42 43 42 46 46 48 48 50 53 57 47 45 43 47 49 52 55 56 57 56 58 61 65 68 70
51 47 44 47 46 42 39 36 34 33 32 31 35 37 37 37 39 40 41 41 42 43 43 42 43 43 42 41 40 42 44 45 47 50 48 50 52 55 47 47 45 47 49 54 56 56 56 55 59 62 65 68 70 71
49 54 53 48 47 44 40 39 36 37 37 35 35 37 35 35 37 38 40 41 41 43 47 47 48 48 47 45 45 44 45 47 51 49 48 50 52 48 46 46 46 50 54 54 55 55 57 60 62 66 69 71 72 71
49 49 54 56 54 52 48 45 42 44 42 39 38 37 38 37 40 45 44 43 42 41 42 44 45 46 46 46 45 45 46 47 48 49 52 52 50 46 45 45 49 55 54 54 56 58 62 64 68 70 71 70 69 67
44 50 49 50 50 52 53 47 45 45 46 43 41 40 39 43 46 48 48 46 47 46 44 44 45 44 43 44 45 47 46 46 49 50 53 52 50 47 45 49 53 54 56 59 62 63 65 68 71 70 69 67 66 66
30 37 48 50 50 50 51 48 48 49 47 44 42 40 40 42 45 50 49 46 44 43 40 37 37 40 43 45 47 47 49 53 53 52 49 45 45 48 52 56 57 58 62 65 66 66 68 69 69 67 64 65 66 68
18 28 38 47 54 50 51 48 50 49 48 47 49 47 45 48 52 49 50 48 48 47 47 47 49 51 50 48 46 50 54 56 55 53 52 52 54 55 57 61 61 61 65 66 67 69 68 65 62 62 63 65 66 66
15 15 18 25 34 44 45 46 42 44 46 45 47 50 52 52 53 54 56 56 59 55 52 54 54 54 50 53 54 56 56 55 55 54 55 58 59 61 64 63 63 64 65 68 67 64 61 60 60 61 63 64 65 66
18 19 20 20 20 23 30 42 46 46 45 45 46 48 54 53 52 53 54 57 54 49 49 52 52 55 59 60 62 61 58 58 60 60 62 63 62 61 59 59 62 65 63 60 58 58 59 60 60 61 63 65 66 67
21 20 20 21 24 26 25 25 30 43 51 51 49 48 49 55 54 45 40 39 42 44 47 49 48 52 54 57 57 58 59 59 58 56 54 52 53 56 57 56 54 54 54 55 56 57 58 61 62 63 64 65 65 64
27 26 25 24 23 25 28 32 32 31 31 38 46 51 51 51 51 50 47 42 39 37 39 42 45 47 49 51 51 49 49 50 52 53 52 53 54 51 49 49 51 53 54 55 57 58 60 62 63 62 62 62 63 62
32 31 31 30 30 30 31 32 33 35 36 36 36 36 41 47 51 51 47 46 46 45 43 44 45 46 46 46 47 48 48 50 49 50 50 49 50 51 52 54 54 55 55 57 57 58 59 59 60 61 62 63 62 60
39 39 38 37 37 36 36 36 36 36 37 37 38 38 39 40 41 46 49 50 52 52 52 52 53 55 54 55 55 55 53 51 49 47 46 49 51 53 53 51 52 53 54 55 56 57 58 58 59 60 61 59 56 55
46 44 43 40 39 38 38 36 34 34 33 34 33 33 34 34 33 33 34 36 38 39 39 40 40 40 40 41 40 41 43 43 44 46 48 49 50 49 49 50 51 52 53 54 55 57 59 60 61 60 58 52 52 49
48 45 41 38 37 35 34 32 29 29 28 28 28 26 23 24 26 28 29 30 30 30 32 32 32 33 34 36 39 41 42 44 45 46 45 45 46 46 47 48 50 52 54 56 59 60 60 60 59 57 51 50 50 46
45 42 38 35 33 31 28 28 26 25 24 27 29 26 26 25 24 24 23 24 25 26 27 30 32 37 42 44 44 43 42 42 42 43 44 45 46 47 49 50 52 55 56 57 59 60 61 62 61 56 51 49 47 43
28 27 26 32 32 31 27 26 25 25 23 20 21 22 21 22 23 22 23 25 28 31 36 41 44 45 45 44 41 40 39 41 43 45 47 48 48 48 51 52 54 57 59 58 59 60 62 63 61 55 50 47 45 42
33 25 24 28 34 30 28 25 24 22 19 20 21 22 27 28 26 27 29 31 37 40 42 42 42 41 40 39 41 44 46 45 45 45 46 49 51 53 53 55 54 54 55 55 55 59 65 64 58 51 47 44 42 39
23 21 22 21 30 36 33 29 27 26 27 28 28 27 27 28 29 31 33 37 38 39 41 42 42 42 44 45 46 45 45 45 46 47 49 53 55 56 54 52 51 49 50 52 54 56 57 50 43 41 40 40 38 35
19 18 20 18 19 25 30 32 31 29 27 25 24 25 27 31 33 35 37 38 40 43 43 43 44 44 43 42 43 46 47 48 49 50 52 52 51 50 50 50 49 49 51 52 53 53 50 44 38 36 37 37 35 33
20 19 18 22 24 21 17 16 17 19 22 25 27 31 34 35 36 38 39 41 41 41 40 39 41 43 45 47 48 47 47 50 51 49 50 50 49 49 51 50 50 51 51 52 51 50 48 44 39 37 37 35 35 34
7 9 11 11 13 15 17 20 21 24 26 28 31 33 34 37 39 40 41 41 42 42 43 44 43 44 45 47 48 49 49 49 50 50 50 50 50 52 53 53 54 54 54 52 51 48 46 44 41 39 38 37 36 37
12 13 15 16 18 19 21 23 25 27 29 31 34 37 38 40 39 39 39 39 40 42 44 47 48 49 50 51 51 51 50 52 53 52 51 52 53 54 55 55 55 56 55 54 50 48 45 43 42 39 38 38 39 40
17 19 21 22 23 25 27 28 30 32 34 36 38 39 38 38 39 41 44 45 46 48 49 49 49 49 49 50 52 53 54 54 55 55 56 56 57 57 58 58 57 56 54 52 51 49 47 44 42 40 38 39 39 41
21 22 24 26 28 30 32 33 34 34 34 35 37 39 42 45 44 44 45 45 45 46 47 47 48 50 52 54 55 55 55 56 56 56 57 58 59 60 60 60 59 57 55 53 50 49 47 44 42 40 40 39 40 42
26 27 28 29 29 29 31 34 37 40 41 42 42 42 43 43 43 44 45 46 47 49 50 50 51 52 53 53 53 54 54 54 55 55 56 56 58 58 59 59 59 58 56 54 51 47 45 43 41 40 38 38 39 41

GFSWCAN_500_spd_009.txt.gz
Wind_Speed
49 47 42 46 42 43 43 43 41 38 36 34 32 31 31 31 32 36 40 43 44 43 43 43 41 40 38 37 34 32 32 32 32 34 34 35 37 37 37 36 35 37 39 39 41 43 45 46 48 47 44 48 49 48
42 42 44 44 42 39 41 41 41 39 37 35 33 32 31 30 31 33 35 37 39 41 42 43 43 43 41 39 36 36 38 34 37 37 35 38 39 39 38 40 39 41 41 42 43 45 47 50 51 51 50 50 49 50
42 40 43 45 44 44 39 41 42 40 38 36 34 32 32 31 31 32 34 35 35 36 39 41 41 40 41 41 39 38 38 38 38 37 39 41 41 39 40 40 42 43 44 45 48 49 50 56 55 52 52 51 51 52
39 42 42 45 44 42 43 43 40 40 40 38 37 35 33 32 32 32 32 33 34 34 36 37 38 38 40 41 40 38 38 38 38 39 40 41 41 42 42 43 44 40 45 45 50 49 52 54 52 53 51 50 53 55
36 35 41 41 39 39 38 37 38 39 40 39 38 37 35 34 33 32 33 33 33 34 35 34 35 35 36 38 38 38 37 38 39 39 40 41 42 42 44 45 44 40 46 48 47 48 51 50 51 50 49 53 56 56
36 33 39 43 38 34 36 36 37 38 38 38 38 38 37 36 35 34 34 34 33 33 34 34 34 34 36 37 36 36 37 38 38 38 40 43 42 44 46 47 44 41 40 42 50 52 48 51 52 48 52 55 56 55
47 42 35 34 38 37 38 39 39 35 36 37 39 38 37 36 35 34 33 31 32 32 34 36 37 36 37 37 36 35 36 36 38 40 42 42 43 45 48 48 39 40 43 47 49 47 48 50 48 52 55 56 55 56
47 44 42 38 38 36 36 36 37 37 36 35 36 37 37 36 35 34 32 32 33 34 34 36 37 35 34 35 37 35 30 29 28 37 43 42 43 46 51 42 44 44 45 49 49 48 51 50 53 58 58 55 56 61
43 44 44 42 39 40 38 37 38 38 35 35 33 33 37 38 37 34 34 33 34 36 36 36 36 36 34 34 34 34 35 37 40 42 42 44 46 48 44 46 46 46 46 46 46 47 49 52 57 60 59 60 64 67
38 42 40 39 42 41 40 38 36 36 35 34 36 35 34 36 35 35 36 36 35 36 39 39 38 39 38 38 38 40 41 43 45 45 46 49 50 47 42 44 48 48 47 48 50 49 51 55 57 59 62 66 69 71
34 36 43 41 42 40 40 39 39 38 38 35 35 32 27 28 33 35 35 34 34 34 34 34 33 35 37 39 38 40 43 45 46 47 49 50 47 38 41 43 45 49 51 52 49 50 56 58 60 62 64 68 70 72
37 38 40 40 39 39 42 41 43 42 38 36 35 33 32 33 32 37 35 35 35 34 36 36 34 35 37 40 42 43 44 46 45 44 47 48 45 43 44 46 47 46 44 44 49 56 59 62 64 64 66 68 70 69
34 37 40 42 44 44 46 44 45 45 41 39 38 38 38 37 36 39 38 37 38 37 38 38 38 36 36 37 41 40 42 45 47 49 50 48 46 47 50 51 52 52 52 54 56 60 65 66 65 66 67 69 65 62
26 29 30 36 45 46 47 51 51 50 48 45 45 44 43 44 44 41 42 42 42 40 39 40 41 41 42 43 42 46 50 54 56 55 53 52 52 55 56 56 56 56 58 60 63 67 66 63 64 66 63 61 61 63
13 20 24 28 31 38 44 47 48 48 49 47 46 46 48 48 46 44 42 42 45 47 48 49 51 49 48 48 50 53 55 55 55 56 56 57 59 63 63 61 61 61 62 61 58 58 61 62 60 57 59 61 64 66
11 9 10 14 20 27 35 41 44 47 45 43 45 47 46 46 47 49 49 47 47 49 51 51 50 53 54 54 52 51 50 52 56 59 61 62 62 60 58 56 52 50 52 55 58 57 56 56 57 59 61 64 65 65
13 13 14 14 14 15 17 21 28 37 44 44 42 43 45 47 48 49 52 54 53 50 46 45 49 50 51 50 50 51 52 53 55 51 46 40 38 41 45 48 49 48 49 50 51 55 60 62 61 60 60 62 61 62
18 18 18 17 17 18 19 21 21 21 23 28 36 45 48 47 47 46 46 47 49 51 51 48 45 40 40 42 45 47 48 44 41 41 43 43 43 44 47 50 53 54 54 53 52 52 54 56 56 57 58 58 58 61
24 24 24 23 23 23 23 22 22 22 25 27 29 30 30 31 36 40 45 47 47 46 43 39 39 39 40 41 43 42 43 45 47 49 51 54 53 50 49 48 49 50 51 51 52 53 53 54 54 55 57 59 60 59
30 31 31 31 30 30 30 29 28 28 28 29 31 32 33 34 34 35 35 35 36 38 41 43 46 47 49 52 51 49 49 50 50 48 43 43 42 42 44 45 47 49 50 52 51 51 51 53 54 56 58 59 58 58
37 38 38 38 37 37 36 35 35 34 33 33 33 34 35 35 35 34 33 33 34 33 31 34 34 32 31 29 28 29 33 34 35 37 39 42 45 47 49 50 49 49 48 49 50 51 52 54 55 56 55 55 56 59
45 45 45 44 44 44 43 42 39 37 36 34 33 32 31 31 30 28 26 25 23 26 27 25 25 24 23 24 27 30 32 36 39 41 41 41 42 44 44 46 47 49 50 50 51 52 53 54 55 54 54 53 55 61
52 52 51 49 47 45 42 39 36 35 33 30 28 26 25 24 22 22 22 24 24 23 23 22 22 25 27 31 35 38 40 43 42 43 43 42 43 45 47 48 50 50 50 50 54 55 56 55 54 54 52 53 56 59
51 51 48 46 45 38 36 32 30 29 26 24 22 21 20 23 25 25 23 23 21 23 25 26 29 32 36 38 39 39 42 43 43 44 44 45 47 48 48 49 50 53 54 56 56 56 55 54 54 53 52 53 53 53
25 26 27 21 16 18 26 28 27 26 24 23 23 21 19 19 20 22 23 25 27 28 30 33 36 39 41 41 41 43 45 45 46 48 50 50 49 49 49 52 55 55 57 57 57 55 53 53 52 51 51 51 50 49
7 20 23 12 9 15 22 25 23 24 24 23 22 21 22 23 25 26 26 28 30 32 35 39 42 43 44 46 48 48 48 49 49 48 49 51 52 53 53 54 55 56 57 58 56 53 51 51 50 50 50 50 49 47
8 6 5 8 11 8 10 17 25 25 23 23 25 30 32 31 31 29 31 32 35 37 41 43 45 47 48 49 50 49 47 48 50 51 53 53 52 53 55 55 54 54 53 53 53 53 52 52 52 52 51 50 48 46
6 5 3 5 8 9 14 16 18 25 31 31 29 24 22 24 29 32 35 38 40 42 44 45 47 49 49 50 51 50 50 50 51 53 55 54 55 55 54 55 55 55 54 54 54 55 56 56 56 55 53 50 48 45
12 13 14 19 19 20 19 16 14 15 17 18 21 24 28 32 35 37 39 41 44 46 46 46 46 47 49 50 50 50 51 53 53 54 55 55 55 58 59 59 59 59 59 59 60 61 60 60 60 58 53 50 48 45
6 8 9 11 12 13 14 16 18 21 23 26 28 30 33 36 38 40 41 41 42 43 44 46 48 50 52 53 54 54 53 53 52 53 54 55 57 59 59 59 59 59 59 59 59 60 59 59 59 57 53 51 48 44
12 14 15 17 18 20 21 23 26 28 31 33 35 37 38 38 37 37 39 41 44 48 50 51 49 49 49 49 50 51 53 54 54 55 55 56 56 57 57 57 57 57 57 56 56 56 56 56 56 54 50 48 45 43
17 19 20 22 24 26 28 30 31 33 34 34 34 34 37 40 43 44 45 46 47 47 48 49 50 52 52 53 53 53 54 54 54 54 54 53 52 51 50 51 52 54 56 58 58 57 55 54 52 50 47 44 41 38
25 26 27 28 28 30 31 33 34 35 36 38 39 40 41 42 41 43 45 46 47 48 50 52 54 55 55 54 52 51 50 49 47 45 45 45 44 45 47 48 49 51 53 53 51 48 45 43 41 40 38 36 35 34

GFSWCAN_500_spd_012.txt.gz
Wind_Speed
49 45 53 60 56 52 49 46 44 40 37 36 36 38 40 44 47 47 46 45 44 44 43 42 41 39 38 35 34 34 33 32 31 31 32 33 35 35 34 35 35 38 41 39 41 41 43 42 43 44 45 44 49 50
52 56 61 59 54 51 49 45 42 40 37 34 33 34 36 40 43 43 43 43 43 43 43 43 43 42 41 40 40 40 40 37 38 36 36 36 37 38 38 40 37 40 41 42 41 41 41 44 44 46 46 45 52 51
47 48 51 50 50 49 47 45 42 38 37 35 32 32 32 32 34 36 37 39 41 42 43 44 45 45 44 43 43 43 43 42 42 40 39 39 39 39 40 40 42 40 43 43 42 39 41 45 46 48 49 55 58 54
45 50 49 44 45 46 45 45 42 40 37 36 34 32 30 29 30 31 31 32 34 36 37 39 41 43 43 43 43 43 43 41 42 42 41 39 40 41 40 41 42 38 43 42 45 44 47 46 47 51 55 59 56 54
45 45 45 50 44 41 42 43 41 39 38 36 35 33 33 32 32 31 30 29 30 31 32 33 36 37 38 38 39 40 40 41 39 38 38 38 39 39 41 43 40 34 39 42 43 44 45 44 48 52 54 54 53 54
35 34 39 41 43 39 36 36 35 38 37 36 36 35 34 32 31 31 32 32 31 30 30 31 32 33 35 36 35 35 34 34 34 33 34 36 35 38 42 40 34 31 34 39 42 43 43 46 49 52 53 52 52 52
34 33 34 39 36 40 38 37 40 37 35 37 37 37 35 34 33 33 32 30 31 32 33 35 34 33 34 34 34 34 34 33 33 34 36 36 36 39 39 40 31 35 37 39 41 44 47 48 50 52 50 51 50 52
35 26 30 30 36 35 35 34 34 35 43 38 36 36 35 35 35 35 33 32 31 32 33 36 36 31 30 32 33 33 32 31 30 31 32 31 35 37 42 33 38 39 40 42 45 46 48 51 51 51 51 52 53 56
38 31 33 34 35 37 33 35 34 34 36 39 39 37 37 37 37 35 34 34 34 36 36 35 32 29 29 29 31 31 31 32 34 36 36 39 41 44 39 41 43 45 46 43 44 46 48 50 52 52 52 53 56 60
43 38 39 37 32 36 36 33 34 34 35 37 35 36 36 36 35 35 35 36 37 37 37 34 33 34 32 31 31 33 33 36 40 40 42 45 46 43 41 44 45 45 45 43 44 46 47 46 46 44 49 55 59 64
45 47 43 39 36 32 36 37 36 35 36 36 37 35 33 33 34 35 37 38 37 37 35 32 31 32 30 30 28 29 33 36 39 39 42 43 42 40 42 39 39 42 43 45 47 48 49 50 46 52 58 61 63 67
36 39 48 42 41 37 38 36 38 38 37 37 37 36 36 35 36 36 35 34 34 33 34 32 27 28 29 31 35 38 38 38 40 39 41 41 39 38 39 43 46 46 45 47 49 50 52 52 55 57 59 62 63 64
22 37 25 45 41 41 40 39 40 40 39 37 37 35 35 34 37 38 39 38 35 34 34 33 33 33 35 37 38 39 41 42 42 43 45 45 43 45 47 49 50 50 50 51 54 57 58 59 60 59 57 58 61 66
29 28 29 30 28 44 39 43 42 40 40 41 42 41 41 41 42 42 40 39 38 37 37 39 40 40 39 38 39 39 43 45 48 49 48 48 50 53 54 52 51 52 55 57 59 59 59 58 55 55 58 61 62 60
28 32 35 36 36 36 36 39 47 44 42 43 44 45 47 46 45 44 44 45 45 45 44 45 47 47 47 49 48 48 48 49 50 52 53 53 52 51 52 54 56 58 59 59 58 57 55 54 55 58 57 59 64 64
14 20 23 25 29 33 39 43 45 44 46 45 48 47 48 47 46 46 47 48 49 50 51 51 51 51 51 53 54 54 54 55 54 54 54 53 52 53 56 58 54 49 47 48 48 50 52 52 55 59 59 60 60 61
9 8 7 8 10 14 22 31 38 40 43 45 43 43 43 42 44 45 47 46 46 47 49 50 52 52 51 48 47 45 42 44 47 47 47 46 46 43 39 37 40 42 46 49 48 53 55 56 55 55 55 57 59 59
11 11 10 9 9 9 9 9 11 14 19 26 33 39 42 44 44 44 44 45 46 48 51 54 55 54 52 44 42 44 43 42 43 44 43 40 38 37 39 42 47 51 52 55 55 53 51 52 53 54 56 56 55 55
16 16 16 16 17 16 16 15 15 16 16 17 18 20 22 25 29 32 37 41 44 45 46 47 48 47 47 49 47 43 41 43 45 46 47 49 53 55 55 53 54 54 50 48 48 50 52 53 54 54 54 55 55 55
19 20 20 21 22 23 23 22 22 23 23 24 25 25 26 26 27 28 30 31 33 34 35 36 37 39 39 40 41 46 50 52 54 54 45 38 35 35 36 39 42 45 48 51 53 53 53 53 54 56 56 56 56 56
26 26 27 27 28 29 29 29 30 30 30 30 31 31 32 33 34 35 35 36 36 36 37 38 37 34 31 31 33 34 32 32 33 34 35 37 40 43 46 49 49 49 49 50 50 50 53 55 55 54 55 57 57 56
34 34 34 35 36 36 36 36 37 37 38 37 37 36 36 37 37 37 37 36 35 33 33 29 26 26 27 27 27 27 27 28 32 35 38 42 45 48 49 50 49 49 49 51 53 55 55 55 56 57 59 57 58 56
43 43 44 45 45 45 45 45 44 44 43 42 41 39 37 36 34 34 33 31 29 25 24 25 26 27 27 26 26 29 32 35 38 41 43 45 49 51 52 52 52 53 54 55 56 56 55 57 58 59 59 59 58 55
50 50 51 52 52 52 51 50 49 47 45 41 38 35 33 30 28 26 24 23 26 28 28 27 27 26 28 29 31 34 37 41 43 45 48 51 53 54 55 56 56 56 56 56 57 58 57 58 60 61 61 59 56 54
47 47 51 51 50 49 47 45 41 38 35 33 31 28 26 25 23 22 21 22 23 25 26 27 29 32 34 35 37 40 44 48 50 53 54 55 55 54 54 55 57 58 59 58 58 58 60 61 60 59 58 56 54 53
11 13 17 16 5 10 12 12 14 22 24 25 25 23 22 22 23 22 20 23 25 27 28 30 33 34 36 40 43 46 50 53 56 58 58 57 57 57 57 57 57 59 61 61 61 60 59 58 58 58 57 57 56 55
7 10 7 5 3 3 5 8 10 11 16 20 23 24 24 26 25 26 28 31 33 34 33 32 35 39 42 45 48 52 55 58 58 59 58 58 58 58 59 60 61 60 59 60 60 60 60 60 60 59 58 58 57 56
2 3 3 5 7 8 7 6 7 10 12 14 17 24 27 27 30 33 36 34 31 33 37 42 44 46 48 50 53 54 55 55 57 57 57 58 58 57 58 57 57 57 57 58 59 60 61 60 59 59 58 58 57 56
8 6 7 7 7 9 10 12 14 15 17 19 22 27 29 30 29 29 32 35 38 40 43 46 49 51 52 52 53 52 54 56 54 54 54 55 57 58 59 59 59 59 59 59 60 60 59 58 58 58 57 56 57 56
12 13 13 14 15 16 16 17 18 18 19 20 21 24 27 30 34 37 39 42 45 47 48 49 50 50 51 52 52 51 50 51 52 54 55 57 58 58 57 57 56 55 53 53 52 53 55 55 55 56 57 57 56 54
11 11 13 14 15 16 18 19 21 23 25 27 29 31 34 37 39 41 43 45 46 47 48 50 51 50 50 50 50 51 53 55 57 57 56 54 53 51 49 47 48 47 47 49 50 50 50 51 53 53 51 48 46 44
18 19 19 20 22 23 24 26 28 30 31 33 34 36 38 40 42 43 45 46 47 47 47 47 47 49 50 52 54 56 56 54 51 49 47 45 43 44 45 44 44 45 45 45 45 45 46 48 48 46 42 38 35 31
25 26 26 26 26 27 28 29 31 31 32 33 33 34 34 36 38 40 42 44 46 47 48 50 51 52 53 54 53 51 49 46 43 39 38 40 42 42 41 41 40 40 40 41 42 42 43 45 45 42 38 33 29 24

GFSWCAN_500_spd_015.txt.gz
Wind_Speed
46 45 39 44 43 44 44 43 42 40 33 30 33 37 42 45 49 50 52 51 49 48 45 43 41 40 37 36 35 33 32 31 32 32 31 30 33 32 32 33 34 36 39 39 42 44 47 43 45 47 45 44 45 46
45 44 42 40 44 50 44 43 40 37 35 29 31 36 40 42 46 48 49 47 47 46 44 43 42 40 39 39 38 38 37 35 37 36 37 37 39 39 38 39 37 39 40 41 42 41 42 44 46 46 46 47 48 48
40 43 38 38 52 48 45 43 39 37 35 34 30 30 33 38 41 43 45 45 45 45 45 44 43 42 42 41 42 41 41 41 42 43 42 43 43 42 42 42 42 40 42 42 41 38 40 45 45 45 47 48 48 48
37 36 37 40 53 47 44 43 39 37 34 31 30 30 33 33 35 37 39 42 43 43 44 44 43 43 43 43 44 45 45 45 45 44 44 43 43 45 43 44 45 42 40 39 43 40 44 43 43 44 46 47 48 50
39 39 38 41 54 47 45 42 38 36 35 32 30 29 29 30 31 32 34 36 38 39 40 40 41 42 42 42 42 43 43 43 41 41 40 40 42 42 44 46 41 37 37 39 40 41 44 43 43 44 46 48 50 52
37 41 45 52 56 45 46 43 39 35 33 33 33 31 29 28 28 28 29 30 30 31 32 33 34 34 34 35 35 35 35 34 34 34 35 37 34 37 41 39 33 31 35 39 41 42 42 43 44 45 48 50 51 52
38 47 52 57 57 50 46 43 41 38 35 33 31 31 30 30 30 29 28 27 28 29 30 30 31 31 31 31 31 31 32 31 32 33 35 35 34 37 40 38 26 31 33 36 40 42 43 43 46 48 48 49 51 52
33 37 42 42 40 40 40 40 39 38 37 36 35 34 32 32 31 31 29 29 29 30 31 32 32 29 29 30 31 31 31 32 34 35 36 35 37 38 40 28 35 37 41 41 43 46 46 48 48 47 46 47 49 50
30 28 31 36 43 38 36 38 36 36 35 36 37 37 35 35 35 34 32 31 31 32 33 34 31 28 29 30 31 32 33 34 36 36 34 36 38 39 35 36 39 42 44 45 46 46 46 46 47 48 49 51 50 55
29 30 28 29 33 36 40 41 41 38 37 37 37 37 35 35 35 34 33 34 34 35 36 34 31 32 30 29 30 33 35 37 38 37 37 39 39 38 38 38 40 43 44 44 45 44 44 45 47 49 51 52 47 56
33 29 29 34 36 35 34 35 35 34 34 35 34 37 38 37 36 37 39 42 41 40 38 36 32 31 30 31 31 34 37 37 39 38 37 36 35 35 38 38 38 38 38 40 43 47 49 49 49 50 53 56 57 56
36 31 27 28 30 28 30 33 34 31 31 32 32 32 34 35 35 39 41 41 39 38 36 33 32 32 34 33 35 36 36 38 39 39 41 42 41 40 40 41 43 44 44 46 48 50 51 49 50 54 53 53 59 59
38 34 32 30 30 31 29 28 31 33 34 34 34 34 34 36 39 42 41 40 37 35 35 32 31 33 36 37 39 39 41 42 43 44 46 47 47 47 48 49 50 51 53 55 57 59 57 54 51 49 50 55 58 63
36 38 37 36 35 36 33 33 31 31 34 36 36 36 37 40 42 42 39 37 37 36 37 36 35 35 35 36 39 41 43 44 47 48 49 48 50 53 56 58 59 59 59 59 56 54 55 56 54 52 56 62 66 62
30 26 32 40 33 34 36 39 37 36 38 38 38 39 41 40 41 41 41 41 42 41 41 42 43 43 42 44 46 47 49 51 53 54 55 56 57 57 56 56 56 56 55 54 54 53 50 49 52 56 60 62 63 62
28 26 28 34 41 36 32 39 36 41 41 42 43 42 43 43 43 44 46 48 48 49 49 49 48 50 51 52 52 54 55 56 54 52 52 52 51 49 50 52 53 52 51 48 47 48 50 52 55 57 58 61 64 64
19 22 28 31 34 36 38 39 38 41 45 47 45 47 51 49 47 47 49 49 50 51 51 52 52 51 52 53 52 49 49 48 46 45 46 46 46 46 46 45 43 42 43 45 50 56 59 58 57 59 60 58 58 60
14 13 13 14 15 18 21 25 28 32 35 38 40 42 44 45 45 45 44 44 45 46 47 48 49 50 53 54 55 56 55 48 43 43 42 45 48 47 43 41 44 46 49 53 57 56 53 52 52 54 56 59 59 59
12 12 13 13 14 13 13 13 13 14 15 15 16 17 19 21 23 25 27 31 34 38 42 45 48 49 50 51 50 49 49 49 49 51 50 49 51 53 56 55 52 48 43 43 47 50 52 55 57 59 60 59 57 57
16 16 17 17 17 17 17 18 18 19 19 19 20 20 21 23 23 25 26 27 27 29 31 32 34 36 38 39 40 42 42 44 43 41 41 40 39 38 38 39 40 40 44 48 52 55 56 56 58 59 59 59 61 60
18 19 20 21 22 23 24 24 26 26 27 27 28 28 29 30 31 32 32 33 33 34 35 37 38 40 41 42 42 42 40 38 36 36 37 37 37 36 37 41 43 46 51 54 56 58 60 60 60 60 61 62 61 60
22 23 23 24 25 26 27 28 30 31 32 33 34 34 35 36 37 38 39 39 39 39 40 41 41 42 42 39 35 33 33 34 35 35 35 36 38 40 43 45 50 54 58 60 62 62 60 59 59 59 59 58 60 59
33 33 34 34 35 35 36 37 37 38 39 39 40 41 41 42 42 42 42 41 40 40 40 40 39 38 34 31 31 33 35 35 35 36 38 40 43 47 50 53 57 60 62 64 63 63 62 61 61 61 61 61 61 60
42 43 44 44 44 46 46 47 48 48 48 48 48 47 47 45 44 43 40 38 36 35 34 33 31 30 31 33 33 33 35 37 39 42 44 46 49 52 56 61 63 65 65 64 63 62 61 61 63 64 65 64 63 63
45 48 49 50 51 52 53 53 54 53 52 51 49 46 42 40 38 36 34 31 30 29 29 31 32 31 31 32 33 35 37 40 41 43 46 50 55 59 63 65 66 65 63 63 64 65 65 65 64 64 63 63 62 62
34 31 32 33 31 31 28 24 26 27 27 26 27 31 31 29 26 28 26 25 25 26 26 26 27 30 32 35 38 39 41 43 44 48 53 57 61 64 65 64 63 66 66 64 62 61 62 63 63 64 64 63 63 63
6 5 4 3 2 2 4 4 5 5 7 11 13 17 19 22 22 21 22 24 26 27 28 30 33 34 35 37 39 42 46 50 54 57 61 63 63 62 63 65 64 62 61 62 64 63 63 62 61 60 59 58 57 57
2 4 7 6 5 7 7 6 6 7 13 13 13 15 19 22 24 25 27 31 32 33 35 37 38 38 38 41 46 51 54 57 59 61 60 61 63 63 61 60 61 63 63 62 60 59 57 56 55 55 55 54 54 54
10 8 7 8 8 9 8 7 8 9 11 12 14 17 19 22 25 28 31 33 36 38 37 38 40 45 49 52 54 57 59 59 59 60 61 61 59 59 61 62 61 59 57 55 55 54 54 53 51 51 51 50 50 52
10 10 12 13 14 15 15 16 17 18 19 22 22 23 24 25 27 29 32 35 38 41 44 46 49 51 53 55 55 56 58 58 58 57 57 58 59 59 57 55 53 51 49 50 49 49 48 49 49 50 50 51 51 51
15 15 15 16 17 18 19 20 21 22 23 24 26 28 30 32 34 37 39 41 43 45 47 49 51 52 53 53 53 53 54 55 56 56 57 56 55 53 50 46 44 46 45 44 44 43 43 43 44 45 46 46 47 48
24 25 24 24 24 24 25 26 27 28 29 30 31 33 34 36 38 39 41 42 42 43 44 46 47 49 51 52 53 53 53 53 53 53 51 49 46 40 39 42 44 43 42 40 37 38 39 41 42 43 44 45 45 45
27 27 28 29 29 28 28 28 27 26 25 25 26 28 31 34 36 38 40 42 44 46 48 49 49 49 48 48 49 49 49 48 47 44 42 37 34 36 39 41 41 37 33 33 34 36 37 39 41 43 44 44 44 43

GFSWCAN_500_spd_018.txt.gz
Wind_Speed
53 54 52 49 43 41 37 35 28 39 36 37 31 33 39 44 51 50 52 51 49 48 45 43 40 37 35 35 34 32 31 30 30 29 28 28 29 28 28 29 30 32 35 37 40 43 45 42 44 45 47 48 50 49
49 47 45 42 38 35 37 23 33 34 31 34 29 33 39 42 40 36 45 48 48 47 45 42 39 38 38 38 37 37 35 34 34 34 34 35 35 35 35 37 36 38 38 41 42 41 42 44 46 47 47 48 48 48
43 45 40 33 34 32 26 36 37 31 30 34 29 33 37 40 46 35 40 44 51 47 44 42 41 40 39 39 39 38 37 37 38 39 39 40 41 41 42 43 43 41 42 42 41 39 41 45 47 46 47 47 48 49
37 34 32 32 33 26 35 35 35 32 28 29 27 32 35 38 43 48 45 43 46 45 43 43 41 40 40 40 39 40 40 41 42 43 43 44 45 46 45 45 44 41 38 37 40 37 42 43 43 44 45 46 47 48
30 29 26 32 30 33 40 33 33 33 30 29 26 24 27 33 36 39 40 42 41 42 42 41 41 41 40 40 40 42 43 43 43 44 44 43 44 42 42 42 39 33 33 37 39 39 42 40 41 41 43 44 46 48
33 35 31 26 41 30 36 33 33 31 31 31 27 27 28 28 29 32 35 37 36 36 36 37 37 37 38 39 40 41 41 41 41 39 38 38 34 36 41 39 33 27 36 39 40 41 41 40 41 44 46 47 49 51
30 33 27 24 43 30 33 36 34 33 32 31 29 26 26 26 25 27 28 28 29 30 31 33 34 34 34 34 33 32 32 31 33 33 33 32 32 36 40 40 31 36 38 38 38 40 40 44 46 48 49 50 51 52
28 28 25 27 43 31 32 33 33 30 28 27 27 26 25 24 24 23 24 26 26 28 28 29 28 26 26 27 29 29 29 31 33 34 34 35 37 38 39 32 33 35 36 39 42 45 47 49 50 50 49 47 48 50
26 35 33 33 46 33 32 34 34 31 30 29 28 27 26 25 25 24 25 26 27 28 29 28 27 26 28 27 28 28 29 31 33 34 34 35 36 38 37 35 35 37 41 44 45 46 48 49 49 49 49 50 53 54
20 23 29 33 50 39 33 35 36 33 32 30 28 28 27 27 27 27 28 29 30 31 31 30 29 29 28 27 30 32 34 36 37 37 37 38 39 41 40 39 38 39 41 43 46 47 48 49 48 48 50 53 55 57
19 19 22 38 54 51 40 39 39 38 36 35 33 31 31 31 32 33 35 35 35 35 34 34 31 30 29 30 31 34 37 38 41 41 40 39 38 38 39 38 40 43 44 45 46 48 50 51 53 56 58 59 58 56
23 22 21 24 32 38 36 32 32 34 35 36 34 34 34 34 35 38 39 38 37 36 35 32 31 32 33 33 36 38 39 41 43 42 42 42 41 40 41 44 46 47 47 48 49 51 53 55 56 57 57 58 58 56
27 27 24 26 30 32 33 33 34 34 36 39 37 33 32 34 37 40 41 40 38 36 34 30 30 32 35 36 38 38 41 43 42 43 46 46 45 46 47 49 50 51 53 55 58 61 63 64 63 62 61 56 50 49
29 31 29 24 23 25 28 26 24 25 27 29 28 28 30 32 34 33 32 31 32 33 33 34 35 35 34 35 35 37 39 41 44 45 46 46 48 51 54 56 59 62 64 66 67 66 64 62 59 54 50 50 50 54
35 33 32 28 26 25 23 25 26 25 24 25 26 29 32 32 33 33 33 33 34 36 38 38 39 38 36 37 40 42 45 47 48 49 51 53 56 58 61 63 62 61 60 58 55 54 55 54 50 48 51 55 59 63
40 38 36 34 31 28 28 29 29 30 30 30 30 31 33 33 35 36 37 38 38 39 39 41 43 45 45 46 48 49 50 52 52 52 50 44 45 51 53 53 54 55 54 51 50 50 51 51 53 55 57 60 63 66
33 33 34 34 34 32 32 32 32 32 33 33 35 35 36 38 39 40 41 43 44 45 46 48 48 49 51 51 48 45 46 48 49 50 51 52 57 52 49 50 46 44 41 42 48 51 54 57 59 62 59 55 55 57
18 23 25 28 29 31 34 35 37 38 37 37 39 39 40 41 42 43 45 46 47 48 49 49 51 51 51 50 51 51 51 51 50 50 48 47 49 50 51 52 52 53 59 58 58 53 47 47 48 49 52 54 60 64
14 15 15 16 18 21 21 25 29 28 28 30 32 34 35 36 38 40 40 40 40 40 40 39 39 38 37 37 37 36 36 37 40 42 44 46 48 49 50 51 50 46 44 43 43 44 46 49 53 56 60 64 66 68
10 10 11 12 13 15 15 15 17 17 18 19 19 19 20 21 22 22 23 24 25 25 27 29 30 32 33 34 36 38 40 42 44 46 48 49 49 48 46 44 43 41 42 43 45 48 52 56 60 64 67 69 70 68
10 11 13 15 16 17 18 19 21 21 22 23 24 25 25 26 26 27 28 29 30 32 34 36 38 39 39 40 42 44 45 46 48 49 50 49 46 42 42 42 42 44 46 49 52 55 59 63 67 69 72 71 69 67
15 16 16 17 19 20 22 23 25 26 28 29 30 32 33 34 35 36 37 37 37 39 40 42 43 44 45 46 47 47 47 48 47 45 42 40 41 42 42 44 46 48 51 55 57 61 66 70 73 74 72 70 70 70
24 24 25 26 28 29 31 32 33 34 35 36 37 38 38 39 41 42 43 43 44 46 47 48 48 48 48 48 47 47 45 42 39 39 40 41 41 42 44 47 51 53 55 58 63 67 72 75 73 72 73 72 68 65
32 33 34 35 37 39 40 41 42 43 44 46 47 47 48 50 51 52 51 50 50 51 50 48 48 47 45 45 43 41 37 38 40 40 39 40 42 46 49 50 52 55 60 64 69 73 74 73 74 72 70 69 70 71
36 40 41 43 44 46 47 49 51 52 54 55 56 56 56 57 56 55 53 51 49 48 45 42 41 39 38 37 36 38 38 38 39 40 43 46 48 49 51 54 58 63 68 71 72 72 73 71 70 71 72 71 68 66
40 41 41 42 42 42 42 38 39 39 40 39 38 37 37 37 37 38 37 34 33 31 29 30 31 31 32 32 33 34 35 38 41 44 46 47 49 53 57 62 67 70 72 71 71 70 68 70 70 67 64 62 61 60
16 11 6 9 9 9 10 8 8 10 8 9 10 11 13 19 18 18 18 22 25 25 24 26 28 29 31 34 36 38 40 42 44 46 49 52 57 61 64 68 69 70 70 69 67 67 66 63 62 59 57 56 54 53
2 6 9 9 10 9 11 13 15 14 13 12 14 15 15 16 15 18 21 24 24 25 28 32 34 37 40 41 41 43 45 47 50 54 58 61 64 66 68 68 68 66 65 66 64 62 60 56 54 53 51 49 49 50
11 12 13 12 11 11 13 15 13 12 12 12 13 15 17 18 20 21 23 25 27 31 33 35 38 40 41 43 46 48 51 55 58 60 63 65 66 65 64 64 64 63 61 60 58 53 50 51 49 47 44 45 46 46
15 15 16 17 18 19 20 20 20 19 20 21 21 22 23 24 25 27 28 30 32 34 37 39 42 44 46 49 52 54 56 58 59 59 59 60 61 61 60 58 57 56 53 48 44 47 48 46 42 41 43 44 46 49
21 22 24 25 25 26 26 26 26 26 26 26 27 28 30 31 33 34 36 38 40 42 43 45 46 48 48 49 51 52 53 56 57 57 56 55 55 54 54 53 50 46 41 40 42 44 40 37 37 38 40 42 45 48
26 27 27 27 28 29 30 31 31 30 30 30 30 31 29 28 28 30 32 35 37 40 42 44 46 48 49 51 53 53 53 52 51 52 53 53 52 50 48 46 42 38 38 40 42 39 35 34 36 38 40 42 46 48
26 28 29 30 28 27 28 28 27 26 25 23 20 22 26 30 33 36 39 42 43 44 44 45 46 47 47 47 48 48 49 49 50 50 50 48 47 45 43 40 38 37 38 40 40 37 35 34 36 38 40 43 46 47

GFSWCAN_500_spd_021.txt.gz
Wind_Speed
66 72 71 69 65 59 55 53 50 48 46 40 40 38 37 38 40 43 45 48 54 54 50 45 42 39 35 32 30 27 26 24 24 24 23 22 22 23 23 23 24 26 30 30 33 36 39 40 41 44 45 46 47 47
68 65 63 60 56 53 47 44 41 38 29 40 41 39 35 36 38 38 43 46 53 52 47 44 41 39 36 35 33 30 30 28 27 27 28 29 30 29 29 31 32 33 35 37 38 37 39 43 44 45 45 45 45 46
58 56 53 51 47 43 40 35 40 29 39 37 38 33 34 35 35 37 33 37 46 49 47 44 41 39 38 36 34 32 31 29 30 32 33 33 34 34 36 38 38 38 40 39 39 35 39 43 44 43 44 44 44 45
52 48 45 41 39 37 34 34 31 37 35 36 34 30 31 31 34 35 38 28 43 45 43 43 41 40 38 37 36 34 32 33 34 34 35 36 38 40 41 42 43 40 36 35 36 36 39 39 39 40 42 43 43 44
44 39 37 35 35 34 31 39 33 31 31 33 29 26 30 34 36 36 41 39 37 41 41 40 41 40 39 38 37 37 36 36 37 37 38 40 41 42 44 44 40 29 34 38 39 36 39 39 39 41 42 42 42 44
35 31 29 30 30 32 33 36 31 28 24 31 28 28 31 43 47 35 37 41 41 40 37 39 39 37 37 37 38 38 38 38 39 40 41 42 40 41 43 39 30 30 34 37 39 41 41 41 42 42 43 45 48 50
31 28 27 31 36 34 31 32 30 29 25 27 29 27 27 34 34 36 34 31 27 29 30 32 33 34 35 35 35 36 37 37 39 39 39 38 35 36 37 37 33 34 36 38 40 41 40 42 44 45 47 49 50 50
26 26 27 33 29 33 33 30 27 25 32 33 29 27 26 26 28 29 30 30 30 30 32 32 32 30 31 30 32 33 34 34 34 34 33 33 36 36 37 35 34 34 35 38 40 42 44 46 47 47 47 48 48 49
24 24 27 31 28 35 29 26 27 27 28 27 27 25 24 25 26 25 26 27 28 29 29 27 25 25 28 26 26 27 29 30 32 33 32 33 35 38 37 35 36 37 38 39 41 42 42 43 45 47 49 50 52 54
24 24 20 34 30 24 29 32 29 26 26 25 26 26 25 25 23 23 24 25 25 25 24 23 23 23 24 24 25 27 29 30 32 34 38 39 40 38 36 38 38 38 38 39 40 42 45 48 50 51 52 53 55 56
21 26 25 27 33 25 26 26 26 24 23 23 22 24 24 23 22 21 23 24 25 26 25 24 23 24 24 25 27 31 33 34 37 40 41 42 41 38 38 38 39 40 40 41 44 46 49 51 52 54 57 60 61 62
15 17 24 30 37 28 28 30 30 28 28 29 27 25 24 24 25 29 30 30 30 29 27 26 25 29 30 31 32 34 37 41 42 39 40 41 39 38 38 39 41 43 45 47 49 51 53 55 57 58 58 59 59 59
11 7 8 10 36 40 33 35 34 31 29 28 27 28 29 30 32 34 32 30 29 28 28 30 31 31 32 33 36 35 36 38 39 40 40 38 37 39 42 43 46 49 51 54 57 60 61 61 62 61 60 58 55 52
15 14 14 14 19 41 38 33 32 29 27 28 29 29 34 36 35 31 30 30 28 29 28 27 28 29 29 31 34 35 38 38 40 39 39 41 44 47 51 54 56 58 61 63 64 62 62 59 58 59 54 49 49 51
22 19 17 18 18 21 26 28 29 30 27 25 27 28 31 31 29 26 23 22 23 25 26 27 29 30 32 34 35 36 38 40 41 42 45 49 51 54 57 58 58 58 57 56 58 62 61 57 54 52 50 52 54 57
29 29 26 26 23 21 23 23 24 24 22 24 27 27 25 24 24 24 24 26 27 29 31 32 32 33 34 36 38 39 41 43 46 49 51 51 53 53 54 56 57 57 58 57 56 55 52 49 50 55 60 61 55 51
36 34 31 29 28 28 25 25 26 26 27 28 30 28 28 28 30 31 31 32 34 35 36 37 38 39 41 42 42 43 45 45 47 49 50 51 50 49 47 46 45 47 50 51 54 56 58 61 61 54 50 48 51 53
41 39 37 36 34 33 32 32 32 31 31 32 33 34 34 35 35 36 37 38 38 39 41 42 42 42 43 44 44 44 43 43 43 41 39 38 38 38 41 44 46 48 51 53 55 55 52 52 51 49 48 49 53 55
13 17 22 27 30 31 31 33 33 33 35 35 35 35 36 37 38 40 40 41 41 42 43 42 42 39 36 35 33 32 31 31 32 34 37 40 43 44 46 48 50 52 53 53 51 49 48 48 50 53 54 57 60 61
9 8 9 11 13 13 15 17 19 20 23 24 26 26 27 28 30 30 31 30 29 28 27 27 27 28 29 31 33 35 37 39 41 42 44 46 48 50 50 51 51 50 48 47 47 48 50 52 54 56 60 61 63 69
8 9 10 10 12 12 13 14 15 15 17 19 20 21 22 23 24 25 26 27 28 29 30 31 33 34 36 38 40 41 43 45 46 47 49 50 51 51 51 48 46 45 46 47 48 50 52 55 58 60 62 66 72 77
9 9 10 11 12 13 14 15 16 17 19 20 22 24 25 27 29 31 32 34 35 36 38 39 40 42 43 44 45 47 48 49 50 50 50 50 49 48 45 44 45 46 46 47 50 54 57 58 60 64 68 73 79 82
18 19 19 19 20 21 23 23 24 25 27 29 30 32 33 34 36 37 38 39 40 42 44 46 47 48 49 51 51 51 51 50 50 50 50 48 46 44 45 46 47 48 49 52 56 58 59 62 66 70 75 79 81 79
24 25 26 26 27 30 31 32 34 35 36 38 38 39 41 43 44 46 47 48 50 52 54 54 55 54 54 54 53 51 50 49 47 45 43 42 43 44 45 46 48 51 54 57 59 61 64 68 72 76 79 79 75 75
29 30 31 32 33 35 36 38 40 42 44 46 48 49 52 53 55 56 57 58 59 59 58 57 56 52 48 45 42 40 40 39 38 39 40 41 43 45 47 50 52 54 56 59 63 66 70 73 76 77 75 73 71 69
32 33 34 35 37 37 40 40 42 42 43 42 42 41 41 41 42 42 41 40 41 41 36 33 29 28 28 28 30 31 33 35 37 39 41 44 47 49 51 53 55 58 61 64 67 70 73 73 71 70 68 65 61 58
26 25 21 21 14 13 12 12 10 11 10 12 13 13 14 14 13 14 14 16 14 12 16 19 22 22 25 30 32 33 35 40 44 47 50 52 52 53 54 57 60 63 66 68 69 68 68 67 63 61 58 54 53 51
2 2 6 7 8 10 11 13 14 15 16 17 18 17 16 15 15 16 17 18 18 20 24 26 27 30 33 36 39 43 46 47 48 49 50 52 54 57 59 61 63 65 65 66 66 62 58 57 56 51 47 48 46 43
10 11 12 13 15 17 18 17 17 17 18 19 19 18 18 19 20 21 23 24 25 26 27 30 33 35 37 39 41 43 46 48 51 53 55 56 58 59 60 62 63 63 61 59 57 55 54 51 45 42 45 44 40 40
18 19 21 22 23 24 25 26 27 27 27 27 26 25 25 25 25 25 27 28 29 31 33 34 36 38 40 42 45 47 49 51 53 54 55 57 58 59 59 58 57 56 55 54 53 51 48 44 42 42 43 40 39 39
21 24 26 27 28 28 28 28 31 32 32 32 32 31 31 30 30 31 31 31 31 31 32 35 38 40 43 45 48 50 51 53 54 55 55 55 54 54 55 54 53 53 52 51 48 45 43 40 40 42 42 40 38 39
29 28 27 27 26 25 26 29 29 30 30 30 30 30 30 29 27 26 27 29 32 35 39 42 43 45 47 49 50 50 51 51 51 52 52 52 52 52 52 52 51 50 48 45 43 41 39 38 39 39 40 39 38 38
26 26 27 28 31 33 33 31 27 25 23 21 20 20 20 23 26 30 33 36 41 45 47 48 49 50 50 49 49 49 49 49 49 49 49 49 50 51 51 49 48 46 43 41 39 38 37 37 37 37 37 37 36 36

GFSWCAN_500_spd_024.txt.gz
Wind_Speed
65 60 63 53 58 67 72 69 69 64 57 55 55 54 52 49 45 46 48 48 54 56 57 56 51 49 45 41 36 31 29 24 21 19 17 16 15 15 15 16 17 20 23 25 27 31 35 35 39 42 44 45 45 46
63 66 66 70 69 66 62 58 58 56 54 53 51 50 46 43 41 41 44 46 48 54 56 54 50 47 44 41 37 34 31 28 26 23 20 20 20 20 21 23 25 26 29 31 32 33 39 43 45 46 45 44 43 43
60 57 59 60 65 61 57 56 54 51 49 47 45 42 41 40 39 39 40 40 43 51 54 51 48 46 43 40 38 35 33 29 27 26 26 25 26 26 27 29 30 31 34 35 37 38 43 45 44 43 42 42 41 42
63 65 63 60 58 56 54 52 50 48 46 43 43 41 39 39 38 40 35 38 33 38 48 47 46 43 42 40 37 34 31 31 30 30 29 30 30 31 32 33 34 35 38 40 41 40 41 39 40 41 41 43 43 44
58 57 55 51 49 46 43 43 41 38 35 36 41 40 37 35 34 33 36 42 30 33 38 44 45 43 40 38 37 35 33 33 33 32 32 33 35 36 37 38 37 39 41 42 40 39 39 39 40 42 42 43 42 43
50 49 45 42 41 41 41 32 30 37 38 41 41 37 34 32 31 37 35 42 32 30 37 38 44 42 40 38 37 36 36 35 35 36 37 37 38 39 42 41 40 36 37 38 38 39 41 42 42 42 42 43 44 45
39 39 38 35 37 37 34 30 31 32 35 38 33 32 34 34 36 42 40 35 32 33 35 38 39 39 39 40 39 38 38 38 38 39 39 39 39 41 42 42 37 33 34 37 39 40 42 43 44 44 44 45 44 43
35 33 34 33 40 34 31 29 30 29 33 33 31 30 33 35 39 30 44 39 34 30 29 32 35 37 38 36 36 36 37 38 39 39 39 37 39 39 40 36 34 34 35 37 38 40 43 44 44 45 45 44 45 48
25 30 36 33 30 34 30 23 27 28 36 36 36 35 36 35 32 29 36 37 34 31 31 30 30 28 32 33 35 35 36 36 37 37 36 36 37 38 36 34 36 38 38 39 41 41 42 42 43 44 45 48 51 53
33 36 29 32 28 29 28 28 30 28 27 31 30 32 34 30 29 27 28 29 29 28 27 26 28 29 30 29 31 32 33 34 35 34 35 36 35 34 36 37 38 39 41 42 42 43 43 44 45 47 50 52 55 57
31 29 29 27 33 26 27 28 20 27 29 27 27 30 29 30 29 28 28 29 30 29 26 24 25 24 24 25 27 30 32 33 36 35 35 35 35 35 38 38 38 39 41 43 43 43 44 46 49 52 55 58 60 60
22 25 29 26 27 31 28 23 24 22 21 20 25 24 24 24 25 26 26 25 23 21 18 17 19 22 25 26 29 30 32 34 37 35 35 39 35 34 35 36 37 37 38 40 43 46 50 53 56 58 59 60 61 65
26 25 24 30 28 25 28 26 23 24 21 20 21 20 23 26 25 23 21 19 18 18 21 23 26 27 27 29 31 31 33 35 35 40 41 34 32 35 37 38 39 41 44 46 49 53 55 57 59 61 61 61 59 54
17 18 21 28 32 31 28 33 32 31 27 26 26 29 30 31 27 22 21 22 23 25 26 28 29 31 31 33 35 36 37 37 37 35 35 35 37 38 40 42 44 48 52 54 56 58 59 57 53 50 49 52 55 55
15 13 14 15 19 36 34 29 30 33 33 32 32 32 30 26 25 26 28 29 29 31 33 32 29 27 26 28 29 32 35 37 37 37 38 39 41 44 47 49 51 52 53 55 54 51 47 46 48 50 53 56 58 60
17 16 15 13 13 19 35 33 29 25 24 25 30 31 28 28 28 27 28 28 29 26 24 25 27 29 31 32 34 34 35 36 37 40 43 45 47 49 50 51 52 50 46 43 42 45 47 49 52 54 57 58 58 57
20 19 19 20 16 18 20 23 27 28 28 30 29 29 26 25 25 25 25 26 27 28 28 30 31 32 34 36 36 36 37 39 42 44 47 48 49 49 48 46 41 39 41 44 47 49 51 54 56 57 57 56 55 54
25 26 26 26 28 26 26 25 24 25 26 29 29 28 30 32 31 31 31 31 32 33 33 34 35 37 38 38 39 40 42 43 44 44 44 43 41 38 37 39 42 44 46 49 52 54 55 56 57 56 55 53 52 53
33 33 34 33 33 32 30 29 29 29 30 33 34 35 36 37 38 38 38 38 38 38 39 39 40 40 41 43 43 42 41 38 36 35 35 36 38 40 42 45 47 49 51 53 54 55 56 55 54 52 51 51 53 55
7 10 16 19 27 30 31 32 34 34 34 35 37 38 39 39 38 38 38 38 38 37 35 35 34 34 32 32 32 32 33 34 36 38 40 42 44 46 48 50 51 53 54 54 54 53 52 51 50 51 52 54 56 59
3 5 6 6 7 8 12 13 15 18 19 21 21 23 24 26 27 27 27 27 27 26 27 29 29 30 32 33 35 37 39 41 43 44 46 48 49 51 52 53 53 52 52 51 49 48 49 50 52 53 56 59 62 64
7 8 8 9 10 10 11 12 13 15 16 17 19 19 21 23 24 25 26 27 29 30 32 33 35 36 38 40 41 43 46 48 50 51 52 53 53 53 52 51 51 49 47 46 47 49 50 52 54 57 59 62 66 69
11 12 14 15 16 16 17 18 19 20 22 22 24 24 26 27 29 30 33 34 36 38 39 41 43 45 47 48 51 52 53 54 55 55 54 52 50 48 47 46 45 45 46 47 49 50 52 55 57 60 64 67 70 74
16 18 20 22 23 24 24 26 26 28 29 31 32 33 35 36 37 38 40 42 44 45 47 48 50 52 54 55 56 55 53 52 49 46 42 40 39 39 40 42 43 45 46 49 51 54 56 60 62 64 67 71 74 75
26 24 26 28 29 30 31 32 33 34 35 36 37 39 41 43 45 47 48 49 50 51 52 52 53 53 50 48 44 37 34 32 32 33 35 38 40 41 42 44 45 48 51 54 57 60 62 63 65 68 71 71 71 66
33 34 31 30 31 31 31 32 32 32 33 32 32 30 29 28 28 24 22 22 20 19 21 22 23 20 23 24 25 28 30 33 35 37 38 40 41 44 47 50 54 56 58 59 60 61 63 66 67 68 68 65 61 59
36 34 28 26 20 18 14 11 10 11 10 11 12 11 12 13 14 15 15 15 15 16 17 17 18 18 18 21 24 26 29 32 37 40 44 47 49 52 55 56 57 58 59 60 61 62 64 65 65 62 60 57 56 53
15 11 9 10 9 10 11 11 13 15 16 17 18 19 20 21 22 21 22 22 22 23 23 23 23 24 27 31 34 37 40 42 43 45 47 49 51 53 55 56 57 59 60 61 62 62 61 58 57 55 54 53 50 46
9 11 11 14 16 17 19 20 22 23 24 25 25 26 26 26 26 26 26 25 26 26 27 28 29 31 32 34 36 37 39 41 44 46 48 51 53 55 57 58 59 59 59 59 57 56 55 53 53 53 51 47 44 41
17 19 21 22 24 26 27 28 29 31 31 32 33 34 34 34 34 33 32 32 32 32 32 32 32 32 32 33 36 40 43 46 48 50 52 54 55 56 57 57 57 56 56 55 53 53 52 52 51 49 45 42 39 37
23 25 27 30 32 32 31 29 27 27 28 29 31 32 33 32 32 32 32 33 32 32 31 31 33 35 37 41 45 49 50 51 52 54 55 55 55 55 55 54 54 53 52 52 52 52 51 49 46 42 39 37 35 35
30 31 30 29 27 26 26 27 29 30 30 30 29 28 27 26 26 27 28 28 29 31 33 36 40 43 48 51 54 54 55 56 56 56 56 55 54 54 54 53 52 52 52 51 51 48 45 41 39 37 36 34 34 34
24 26 28 29 30 31 32 32 32 31 29 26 22 20 19 20 21 23 25 29 33 37 41 45 49 53 54 56 56 57 56 56 55 55 54 54 54 54 54 53 52 51 48 45 42 40 39 38 37 36 35 35 34 34

GFSWCAN_500_spd_027.txt.gz
Wind_Speed
48 46 45 40 46 69 74 79 80 61 68 75 80 83 71 73 70 67 64 54 56 60 58 57 62 59 57 53 48 42 37 32 28 23 19 17 14 12 11 12 13 14 15 17 20 22 27 28 32 34 37 39 42 43
65 57 59 64 75 58 44 65 70 74 71 70 74 75 73 70 58 57 53 54 51 57 56 56 59 59 56 54 47 43 39 34 32 30 23 20 18 17 16 17 18 21 22 24 25 28 33 36 37 39 41 42 43 43
53 56 43 49 54 51 52 54 60 59 62 67 67 63 59 56 53 52 48 49 46 50 53 55 58 58 57 53 47 44 42 36 33 31 29 26 24 21 22 23 23 26 27 29 30 33 37 39 41 44 44 44 43 44
54 57 59 59 50 53 56 62 52 53 53 52 52 58 54 51 50 41 44 45 46 45 50 52 52 54 53 52 48 45 41 38 37 36 33 30 28 27 27 29 28 30 32 34 35 37 40 42 45 44 43 44 44 46
63 51 47 51 54 58 59 60 60 59 58 57 54 50 49 49 41 35 37 38 42 42 45 47 49 51 50 48 45 44 41 40 39 37 36 33 32 32 33 34 35 34 37 38 39 41 41 43 43 41 44 45 45 46
50 52 56 55 54 55 55 55 53 51 50 50 48 47 45 44 38 33 31 33 35 33 36 45 47 48 48 45 44 42 39 38 38 37 37 36 35 37 38 39 39 39 39 41 42 41 42 42 44 45 45 45 46 46
52 52 50 48 47 48 48 49 48 47 46 44 43 42 40 40 39 35 33 33 30 30 33 38 43 46 45 43 41 40 39 38 39 38 38 39 40 40 42 44 41 41 40 41 38 40 44 41 45 46 46 46 46 46
42 44 41 40 41 38 40 40 40 40 40 41 40 39 38 37 34 33 35 41 35 34 30 32 40 45 44 41 41 41 40 40 40 40 40 42 43 43 45 43 40 39 40 39 40 41 43 45 45 45 46 46 46 47
35 31 32 32 32 34 36 34 36 35 39 38 38 35 35 38 36 36 37 44 42 34 31 34 34 38 43 42 40 41 42 42 42 42 42 42 43 45 42 40 37 37 38 39 42 43 43 45 47 47 47 48 48 49
32 26 29 26 23 26 31 33 33 37 38 36 36 36 36 34 35 39 33 33 49 41 30 33 37 37 39 39 39 39 38 39 42 41 42 44 44 41 37 35 35 38 41 43 45 46 46 46 47 47 47 48 50 53
20 19 33 32 20 26 24 31 32 34 36 37 34 33 32 38 38 34 37 42 41 36 34 32 32 33 34 34 34 37 38 40 42 42 43 43 42 35 34 36 38 41 44 45 44 44 45 45 45 47 50 53 56 57
21 24 26 20 26 23 21 28 28 32 32 32 35 32 30 33 36 34 35 38 36 37 31 27 26 27 29 31 33 35 37 39 43 41 40 42 36 35 36 38 41 44 45 44 44 44 45 47 49 52 54 55 57 59
23 22 22 23 29 15 25 19 20 26 29 30 32 32 33 30 27 26 29 26 22 17 19 22 24 25 26 29 31 33 36 39 39 40 41 38 36 37 41 42 42 43 43 44 44 47 49 52 53 54 57 56 49 47
23 26 25 25 30 31 25 22 17 27 22 21 28 29 31 27 26 23 19 19 19 20 21 23 26 27 28 29 33 36 38 40 41 41 39 38 40 40 40 41 42 44 45 47 49 51 52 54 56 53 46 45 48 52
20 22 23 25 26 26 26 27 30 21 23 22 24 26 25 22 24 27 24 22 22 22 24 26 28 31 31 34 35 38 40 43 42 39 36 38 41 42 43 44 45 47 50 51 53 55 55 51 45 45 48 51 53 56
17 18 18 20 25 26 24 24 29 27 30 31 29 27 27 29 26 24 24 24 25 26 28 30 31 33 37 38 38 37 36 36 36 38 39 41 43 45 47 48 50 52 53 54 54 50 45 46 48 51 53 55 56 58
14 15 16 15 15 17 22 30 27 29 30 28 26 30 35 31 30 29 29 29 30 30 31 33 34 32 31 33 34 35 36 37 40 42 44 46 47 49 50 52 53 53 52 47 45 46 49 51 53 55 57 59 60 61
16 15 17 20 19 18 16 17 18 20 25 29 29 28 26 27 29 31 32 30 29 30 29 30 30 31 32 34 36 38 41 43 45 46 47 48 49 50 49 48 46 44 45 47 49 51 53 55 57 58 60 61 61 60
23 23 21 21 21 23 20 24 21 22 23 25 26 28 29 29 29 30 32 34 34 34 35 35 37 39 40 42 43 44 46 46 46 46 46 44 43 41 41 43 45 47 49 52 53 56 57 59 60 60 60 59 59 58
14 17 21 25 27 28 29 29 29 30 31 30 31 33 35 38 39 41 42 43 43 42 43 44 44 44 43 43 43 43 42 40 39 38 38 40 42 44 46 49 51 53 54 56 58 59 60 60 59 57 56 56 56 57
3 2 3 6 8 12 20 20 25 28 31 32 34 35 35 38 38 39 38 36 36 35 34 35 34 34 34 34 35 35 36 37 39 41 43 45 48 50 52 54 56 58 58 59 60 58 57 55 53 52 54 54 55 57
2 3 4 5 7 8 8 10 11 13 15 17 19 21 21 23 24 25 26 27 27 27 28 29 30 32 34 36 37 39 41 43 46 48 50 52 54 56 56 57 58 58 56 54 51 49 48 49 51 52 53 56 58 60
6 7 9 11 13 14 14 16 17 18 19 20 21 22 23 25 26 27 29 30 31 33 35 36 38 40 41 43 45 47 49 51 53 55 56 57 58 57 55 52 49 45 43 44 46 48 50 51 52 55 59 62 64 66
14 11 11 13 14 18 20 23 25 25 26 27 28 29 31 32 34 35 37 38 40 41 42 44 46 48 49 51 53 55 57 57 57 56 52 50 45 41 41 41 43 46 48 49 49 51 53 56 60 62 64 65 66 67
21 22 23 23 24 27 26 27 29 30 31 33 34 36 37 38 40 41 42 44 45 46 48 49 51 51 52 53 52 51 47 41 35 33 34 36 40 44 46 47 46 46 48 52 54 58 60 61 63 65 66 66 67 67
25 28 30 31 35 34 30 27 27 28 30 31 32 33 34 34 34 34 34 32 30 30 29 29 30 30 28 26 28 28 28 30 32 34 37 41 42 43 43 46 50 53 56 58 59 60 62 63 65 66 66 65 64 62
31 31 30 33 28 24 21 20 19 19 18 17 16 17 18 19 20 20 20 21 21 21 22 22 23 23 23 22 24 27 28 29 32 35 39 41 44 47 49 51 52 54 56 58 60 61 63 64 64 63 62 61 59 57
25 21 16 15 14 12 10 10 12 14 16 18 20 21 22 23 24 25 25 26 26 27 28 29 30 30 30 31 31 33 34 36 38 40 42 44 45 47 50 52 54 57 58 60 61 62 62 61 60 59 57 55 54 53
13 13 13 14 16 18 20 22 24 25 27 29 30 31 31 32 33 34 34 33 33 34 34 34 34 34 34 35 37 38 38 39 40 42 43 46 48 52 55 57 58 60 62 63 62 61 59 58 57 55 54 53 52 51
16 18 20 22 24 25 27 29 31 33 33 32 31 31 32 32 33 33 33 34 34 34 35 35 35 35 36 37 38 38 40 42 45 48 51 55 59 61 62 63 63 64 64 63 62 61 59 57 55 53 52 50 48 44
23 26 29 31 32 33 32 31 29 29 30 30 32 33 33 34 34 34 34 34 33 33 33 34 34 35 36 37 40 42 46 50 54 58 61 62 64 64 63 62 61 59 58 56 55 54 53 52 50 48 45 42 39 38
26 27 29 29 29 29 30 30 32 33 33 34 33 33 32 31 29 27 26 25 25 26 27 30 32 36 40 44 48 52 55 59 61 62 62 61 59 57 55 52 50 49 49 48 47 46 44 42 40 38 37 36 36 36
29 31 32 33 34 34 34 35 34 32 30 29 27 26 25 25 25 26 26 27 29 32 35 38 42 46 49 53 56 58 59 59 59 57 56 54 52 49 47 47 47 47 47 45 44 43 41 40 39 38 38 38 37 36

GFSWCAN_500_spd_030.txt.gz
Wind_Speed
21 27 29 31 36 38 40 36 39 43 42 62 96 100 88 96 87 86 66 56 27 44 50 54 51 58 56 60 58 50 48 45 38 31 26 21 18 14 13 12 13 14 13 13 15 16 19 20 24 25 28 31 34 37
24 23 29 34 33 34 36 38 40 40 48 72 95 78 88 82 82 73 70 48 35 36 45 63 57 60 59 50 57 50 45 42 36 32 29 25 22 20 18 16 16 17 16 17 19 21 24 27 27 31 32 34 38 41
47 45 42 40 34 34 38 41 44 56 67 90 76 81 78 78 71 65 54 54 43 60 45 60 56 57 60 60 55 54 51 47 40 38 32 30 27 23 22 21 22 21 21 22 23 25 30 32 33 36 36 40 43 44
48 46 50 47 53 52 52 66 66 78 84 56 67 70 72 73 68 79 56 63 36 34 40 58 53 54 55 56 55 50 50 45 39 38 37 36 32 28 26 27 27 27 26 28 29 31 34 38 40 40 42 44 46 45
53 50 53 53 59 54 60 55 58 62 65 69 66 66 67 65 65 47 61 38 45 48 46 52 50 47 52 57 53 52 50 49 46 43 41 38 34 32 31 33 33 33 33 35 36 37 37 42 43 45 47 47 46 46
46 45 49 48 48 52 54 54 58 61 65 66 66 63 69 68 70 56 38 34 44 42 42 49 49 46 47 50 53 51 48 47 48 48 45 42 37 37 37 37 38 38 38 40 42 42 45 46 45 45 45 47 47 47
42 44 48 50 55 53 46 52 57 60 58 60 55 53 61 59 48 41 36 35 39 41 38 38 40 43 44 47 49 49 47 48 50 47 45 43 41 41 41 41 41 41 42 43 43 45 49 48 47 46 46 46 48 49
34 35 37 38 42 47 51 53 51 54 55 54 56 56 52 47 39 43 39 33 33 36 38 36 35 39 44 45 48 48 44 44 46 43 44 43 43 43 44 44 44 44 46 45 45 45 48 49 49 47 47 49 50 51
39 42 39 40 42 43 47 49 50 51 52 52 52 52 44 39 32 28 24 27 29 32 31 31 31 35 40 41 43 44 43 41 42 44 45 44 44 46 45 45 46 47 48 46 45 47 47 46 47 48 50 51 50 49
29 30 34 37 38 39 41 42 43 44 45 47 48 49 42 40 37 34 30 35 27 27 32 27 28 31 36 39 40 41 41 42 44 45 45 45 45 46 47 46 46 45 46 45 47 47 47 48 48 50 50 49 49 50
19 20 27 26 34 38 36 38 39 41 42 44 46 49 43 40 34 32 32 42 37 29 32 29 26 30 31 37 37 41 42 44 44 44 45 45 46 44 43 43 42 42 44 46 48 49 50 51 52 51 50 50 52 54
19 15 20 27 25 28 32 33 38 36 36 38 37 39 40 34 25 31 31 36 47 40 37 30 24 27 33 36 38 40 41 43 45 45 46 47 44 41 39 39 41 43 45 48 49 50 51 51 50 50 51 53 55 58
24 21 16 20 22 29 26 30 31 32 33 33 33 33 33 33 36 34 35 26 27 25 32 36 34 28 31 33 36 37 40 42 43 46 47 45 40 38 38 41 43 45 46 48 49 49 49 49 50 52 53 56 59 61
13 17 15 20 15 21 24 22 23 25 27 29 30 31 32 31 31 25 22 24 22 25 28 32 33 31 29 31 34 36 38 40 42 42 40 37 39 41 42 44 45 47 47 47 47 49 49 50 52 55 57 60 59 54
11 17 20 27 24 19 17 13 17 20 22 26 24 27 27 31 26 24 25 26 25 22 23 24 26 28 30 32 32 33 36 37 38 38 38 40 42 44 44 44 44 45 46 45 47 50 51 54 56 58 57 52 50 52
10 14 17 20 24 20 17 17 17 17 20 24 21 21 24 27 27 24 23 25 24 24 24 24 26 28 29 31 33 36 37 39 39 41 43 41 40 41 42 43 45 47 48 50 52 54 56 57 55 51 49 51 54 58
9 11 14 16 17 20 23 21 19 24 22 25 27 21 22 23 24 24 25 25 27 30 28 28 29 31 33 35 35 37 39 40 39 37 38 40 40 43 46 48 50 51 52 54 56 56 52 49 49 52 54 58 60 62
11 12 12 14 14 16 18 19 21 21 24 27 29 30 32 32 34 33 32 33 33 33 32 33 33 34 35 35 34 34 34 36 37 39 41 44 47 50 52 53 54 55 55 53 50 49 50 53 55 58 61 63 65 66
12 13 15 16 16 14 12 13 13 14 16 21 24 25 25 25 25 26 28 30 32 34 34 35 36 35 36 37 38 39 40 42 43 46 50 52 52 53 53 52 51 48 48 49 51 54 57 59 61 63 65 66 66 64
16 18 19 20 20 21 22 24 23 24 25 28 27 28 27 27 28 29 30 29 32 33 33 37 39 41 42 42 44 45 47 49 50 49 47 47 46 46 46 47 48 51 53 56 58 60 62 64 65 66 64 62 59 58
6 7 9 14 17 20 21 25 26 28 30 30 29 29 30 31 32 34 36 37 38 40 43 44 44 47 49 49 47 43 41 41 41 42 43 44 45 47 49 52 54 57 59 62 64 64 64 64 61 58 54 53 53 54
6 5 4 3 2 3 4 8 10 12 15 18 21 24 25 26 27 28 29 30 30 29 30 31 32 32 33 34 36 38 39 41 42 45 47 48 51 53 56 58 60 62 63 63 62 58 55 52 51 51 53 53 55 59
8 9 8 7 6 6 8 9 12 14 15 16 17 19 20 21 22 23 25 27 28 29 30 32 34 35 37 39 41 43 45 47 49 51 53 56 58 60 61 62 62 59 55 51 48 48 50 52 52 52 54 59 62 65
10 11 13 12 14 17 17 16 18 18 19 22 25 27 29 30 30 32 33 34 36 38 39 41 42 44 46 47 49 50 52 54 56 57 58 58 57 56 52 48 46 46 47 48 52 56 55 54 55 59 62 64 65 66
19 20 23 26 29 26 22 24 27 29 28 28 29 31 33 35 37 39 40 42 43 44 45 46 48 49 50 52 52 52 51 49 47 44 42 40 38 38 38 39 43 49 53 55 53 54 57 59 61 62 63 64 65 67
23 27 30 32 32 28 26 31 32 28 26 26 28 30 31 33 34 34 35 36 37 37 37 37 36 35 35 34 33 31 30 29 29 30 32 33 35 37 40 43 45 48 52 55 56 57 57 59 61 63 65 67 68 69
27 27 28 29 30 31 32 29 25 21 21 21 21 21 22 22 23 24 25 25 26 26 27 28 28 29 30 31 32 34 35 35 35 36 37 39 41 44 46 48 50 51 53 54 56 58 61 65 67 68 69 71 71 69
29 30 27 24 21 19 16 15 15 16 18 19 21 23 25 27 29 31 32 33 34 34 35 36 37 38 38 39 39 39 39 39 41 42 43 45 46 47 49 50 52 54 56 59 63 67 69 70 71 70 69 67 65 62
21 17 16 14 16 19 20 21 23 25 26 28 30 31 32 34 35 35 35 36 36 36 36 36 37 38 39 40 41 42 43 43 44 45 46 46 47 48 51 54 57 60 64 67 69 70 69 67 64 60 57 55 53 52
14 16 18 20 22 24 27 29 31 32 32 32 31 30 30 31 32 34 35 35 36 37 37 38 39 39 40 41 41 41 42 43 43 44 45 48 50 54 57 61 65 68 69 68 66 64 61 56 52 51 50 49 47 45
19 21 23 26 28 30 31 32 32 32 32 32 33 33 35 36 36 36 36 36 35 35 34 34 34 34 34 34 36 37 40 42 45 49 52 56 60 63 66 67 67 66 63 60 59 56 52 50 50 50 48 47 45 43
24 26 28 31 33 34 35 35 35 34 33 33 34 34 33 32 31 31 31 30 30 30 30 31 32 34 36 38 41 44 47 50 53 57 61 64 65 65 64 62 60 58 57 55 54 52 52 52 51 50 49 48 46 43
27 30 32 33 34 34 34 33 31 29 28 27 26 26 26 26 26 27 28 28 30 31 33 36 38 40 43 45 48 52 55 58 61 62 62 61 60 59 58 58 57 56 55 55 54 54 53 52 51 50 49 47 46 44

GFSWCAN_500_spd_033.txt.gz
Wind_Speed
30 33 32 31 34 34 34 27 47 46 40 53 45 57 93 101 93 89 85 78 74 55 43 47 47 52 51 51 51 49 48 52 48 40 38 33 26 21 18 16 16 16 17 17 17 17 18 17 17 19 21 22 25 28
22 24 27 27 32 32 33 29 34 53 39 37 43 64 93 99 93 84 81 76 73 43 33 38 43 51 46 49 54 47 43 37 39 42 39 33 28 24 21 18 17 16 15 15 17 17 18 20 21 21 23 25 29 33
17 22 27 24 25 30 35 33 34 38 45 39 44 61 91 93 85 82 73 67 52 40 41 35 42 53 47 52 50 49 50 43 44 44 40 36 33 28 25 21 22 19 18 19 20 22 22 24 24 26 28 31 35 38
18 23 23 23 26 31 34 36 34 38 39 41 51 72 91 87 78 72 69 58 40 43 50 44 50 54 60 56 53 50 54 50 45 45 45 40 36 33 28 27 26 24 23 23 24 26 27 30 32 34 37 39 40 44
43 40 27 23 29 33 37 40 39 39 43 51 63 82 83 78 81 73 64 61 52 28 34 57 51 56 55 51 44 37 49 51 43 43 47 46 42 37 33 32 31 30 29 29 31 31 32 35 37 40 42 45 48 48
48 51 49 36 36 32 36 42 45 50 62 68 79 93 74 76 70 63 58 29 32 35 32 52 49 48 55 56 51 47 38 41 47 51 50 48 44 39 38 37 35 35 35 36 37 38 39 39 41 43 47 50 49 49
44 49 56 57 63 58 50 47 59 74 76 85 80 75 71 72 71 56 32 32 31 36 43 48 47 51 50 44 46 50 53 50 49 50 53 50 47 45 44 42 40 40 40 40 42 43 43 43 45 49 50 50 50 49
47 47 47 49 55 54 59 60 74 75 70 69 66 67 67 62 72 45 31 28 25 28 32 35 33 37 40 37 38 40 44 47 48 50 49 49 48 49 49 48 46 45 44 43 44 46 48 49 51 51 51 50 48 48
38 46 48 49 49 53 49 58 59 60 63 68 70 69 65 38 48 30 30 23 20 20 20 24 27 33 38 41 37 35 37 40 45 47 49 47 47 49 49 47 46 47 47 47 47 48 50 52 53 54 52 51 50 51
36 43 45 44 48 53 53 54 54 50 51 66 62 53 39 42 26 46 25 23 23 23 26 28 28 28 30 34 36 36 37 40 43 45 45 46 46 46 46 46 47 48 48 48 49 50 50 52 53 51 51 52 53 54
31 34 41 42 44 40 43 49 51 47 49 59 57 53 55 43 26 25 36 28 27 26 26 25 28 28 29 30 30 33 36 38 40 42 45 47 45 44 44 45 46 47 48 49 50 51 51 51 51 51 53 54 54 55
24 30 32 36 39 38 40 42 43 48 48 45 44 43 45 30 25 28 29 25 23 25 27 30 27 25 24 25 28 31 35 38 41 42 45 46 43 42 43 44 44 44 46 48 50 50 50 51 52 53 53 54 54 53
22 21 25 27 31 33 33 35 41 45 47 39 42 44 26 28 29 29 28 26 29 28 25 22 26 23 22 22 24 27 30 35 39 43 44 42 42 42 42 41 42 43 45 46 48 50 51 52 52 52 52 53 54 55
18 20 23 19 25 29 30 31 32 35 40 45 46 39 37 29 38 30 27 25 28 35 31 29 27 26 25 25 25 27 30 35 40 40 39 38 39 40 40 40 41 43 45 47 49 50 50 50 49 50 50 53 56 59
14 12 12 13 20 19 23 26 31 32 34 38 42 48 43 34 34 26 18 24 18 18 26 27 27 29 30 31 32 33 35 37 38 36 36 36 37 38 40 42 45 46 47 47 45 45 45 47 51 53 55 58 59 58
11 8 12 14 16 13 13 12 15 16 20 24 27 23 25 29 28 26 21 23 19 18 23 26 27 29 29 30 30 30 31 33 33 34 36 39 41 41 43 46 46 43 42 42 44 47 49 52 55 57 58 57 55 54
7 10 14 15 15 12 11 12 10 12 15 20 22 18 17 19 22 25 20 20 21 23 25 25 24 25 25 28 30 31 33 35 38 39 40 41 43 43 40 40 41 41 43 47 50 54 57 57 56 54 53 53 54 58
4 6 7 10 12 12 12 13 16 20 18 18 22 24 20 18 21 23 24 26 27 25 25 30 33 35 35 36 36 36 37 38 40 41 40 39 41 43 43 44 46 49 52 57 57 56 54 51 51 53 56 58 60 63
2 2 3 5 8 10 13 15 16 18 20 22 24 26 28 29 30 30 31 32 33 34 35 35 37 37 38 39 39 39 39 40 41 43 44 45 47 48 50 52 54 55 54 51 49 50 51 53 56 58 60 62 65 66
10 10 9 10 11 13 13 12 12 14 18 19 18 19 21 22 24 26 27 28 30 32 31 32 34 37 39 40 43 45 46 45 47 48 50 51 53 54 54 51 49 49 49 50 52 54 57 59 61 64 65 66 66 65
9 10 13 15 17 20 20 21 22 23 24 25 24 24 26 30 31 32 32 33 34 35 36 38 38 40 43 45 47 49 50 52 52 52 52 49 47 44 46 48 49 51 53 56 59 61 63 64 65 65 63 59 56 54
3 4 4 7 10 13 15 19 20 21 21 21 22 24 26 28 32 34 36 38 40 41 41 42 44 45 47 47 47 46 44 42 42 42 42 43 45 48 51 54 56 58 60 62 63 63 64 64 62 58 54 53 56 58
8 7 7 6 4 4 4 6 8 11 13 15 17 18 19 20 22 23 25 25 25 27 28 29 30 31 33 35 37 39 40 42 44 47 49 51 53 55 56 58 59 60 60 60 60 58 54 52 51 54 56 60 60 59
12 13 15 13 15 14 15 19 20 22 24 24 24 24 24 25 27 29 30 31 33 34 35 36 37 40 41 43 44 46 48 49 51 53 54 56 57 58 57 56 55 53 50 47 48 48 49 50 54 59 60 60 63 64
16 18 21 23 25 28 31 32 32 33 27 27 28 30 32 34 34 35 35 37 39 40 41 43 44 45 46 47 48 48 48 49 48 48 45 43 40 40 40 39 40 41 42 44 47 49 51 55 57 61 63 64 65 66
21 22 23 27 29 31 34 34 30 30 30 30 28 28 29 31 32 31 31 31 32 33 33 34 35 36 36 36 36 36 36 36 36 36 37 38 39 41 42 43 45 47 49 51 54 56 58 59 60 62 64 65 67 70
21 21 23 25 26 26 24 26 28 27 26 23 22 22 21 22 23 24 25 26 27 29 30 32 33 34 35 36 37 38 39 41 42 43 44 45 46 46 47 48 49 51 53 55 57 58 59 60 61 63 66 71 74 74
22 24 25 24 22 21 22 22 20 19 20 21 23 25 27 29 31 33 34 34 35 36 37 37 38 39 40 41 42 43 44 45 45 46 47 48 49 50 51 52 53 54 55 56 57 58 60 64 67 71 73 73 72 67
26 24 21 20 20 20 21 22 24 25 26 28 30 31 33 34 35 35 34 34 33 33 34 36 37 38 39 40 41 42 44 45 47 47 49 49 49 50 51 52 53 55 56 58 61 65 68 71 73 72 70 66 62 59
19 19 20 21 23 24 26 27 29 31 32 32 33 34 35 34 33 33 34 35 36 37 38 38 38 38 39 40 41 41 41 42 43 43 44 45 47 49 51 53 56 60 63 66 70 72 72 71 68 64 62 59 56 53
20 22 23 26 29 30 32 33 34 34 34 34 34 33 33 33 34 34 35 35 35 34 34 35 34 34 35 35 36 37 39 41 44 46 49 52 54 57 59 62 65 68 70 71 70 68 66 65 63 61 59 57 55 53
24 27 29 30 32 33 34 33 34 33 31 29 29 29 28 27 28 27 27 28 28 29 30 31 33 34 36 37 39 42 44 47 49 52 56 59 63 65 67 68 68 68 68 67 65 64 62 60 58 56 55 53 52 50
26 29 29 29 29 30 32 32 29 26 24 24 24 24 24 23 24 25 26 27 29 30 32 34 36 38 40 43 46 49 52 54 57 58 60 60 61 62 62 61 60 59 59 58 57 56 55 54 53 52 50 49 48 47

GFSWCAN_500_spd_036.txt.gz
Wind_Speed
22 26 31 33 32 32 36 35 38 38 37 35 33 37 57 81 94 93 88 83 75 69 67 63 65 50 54 53 56 52 52 50 49 49 46 45 41 36 31 26 23 25 24 22 21 20 18 19 21 22 21 20 19 23
21 24 28 26 28 33 31 30 28 28 29 33 34 36 56 78 92 92 89 82 74 68 67 48 46 56 53 53 55 55 48 47 45 44 45 44 42 36 32 27 27 23 20 20 19 16 17 17 16 17 18 20 23 26
22 26 29 30 30 29 25 23 22 31 32 42 39 36 57 76 89 90 87 79 70 58 43 44 44 37 56 50 52 52 47 49 46 46 47 44 38 34 35 29 27 24 21 20 20 17 18 18 18 20 22 25 28 31
19 20 22 24 25 24 25 27 30 36 36 37 48 46 46 74 87 88 84 81 78 63 33 24 33 40 41 52 52 50 47 46 46 39 47 41 41 38 36 35 32 29 27 24 23 20 22 23 24 27 29 31 34 37
20 22 24 22 29 30 33 38 37 39 38 32 33 38 57 76 88 88 80 65 75 65 43 33 30 35 41 45 50 50 50 50 44 48 39 41 45 41 41 40 38 33 31 28 28 28 28 30 32 33 36 39 42 44
20 26 27 28 32 34 35 34 39 38 33 31 35 45 67 80 87 84 56 49 61 57 38 36 30 30 37 44 47 48 52 47 45 50 47 47 41 43 44 45 41 38 35 33 32 33 35 36 37 39 41 44 46 48
37 24 28 31 31 33 37 37 36 36 38 35 51 58 71 80 76 67 62 50 46 37 24 35 34 29 38 42 40 31 44 44 43 47 48 41 42 46 47 46 45 44 41 39 37 37 39 41 43 44 46 48 50 50
41 42 38 24 30 32 35 37 36 38 40 60 63 66 74 78 70 54 52 53 44 36 24 34 32 41 54 55 55 59 53 47 36 46 52 53 49 49 47 46 46 47 46 46 45 45 46 46 47 48 50 51 51 53
56 53 39 35 34 32 35 38 45 65 71 73 74 74 71 68 62 44 42 43 42 34 25 27 43 50 42 41 45 46 41 47 43 36 39 40 40 45 49 48 46 48 49 50 50 50 49 49 50 51 51 52 53 53
48 61 66 66 66 67 75 83 81 76 73 76 76 64 63 56 55 57 40 32 29 29 30 34 47 48 39 26 30 39 38 38 41 43 46 47 45 45 48 47 46 45 47 47 47 50 51 51 50 51 52 53 54 54
41 48 57 63 65 74 81 80 77 75 72 62 58 51 59 40 27 23 24 28 22 17 15 15 22 24 29 31 32 38 41 39 38 37 38 38 37 39 42 43 43 44 45 47 48 48 48 49 50 52 53 53 54 54
38 41 46 52 53 53 56 60 63 70 66 62 53 41 40 33 24 29 24 17 12 15 18 18 23 28 30 32 33 37 41 41 41 39 38 38 39 41 41 42 44 44 45 45 46 47 49 50 51 52 52 52 53 55
27 31 37 40 45 47 48 52 55 48 49 41 39 31 32 46 25 19 20 21 22 20 22 23 25 25 27 28 31 31 32 35 35 36 37 36 36 37 38 41 44 45 46 48 49 49 49 49 50 51 52 54 55 54
28 27 28 31 34 37 47 51 44 39 40 30 23 23 30 25 15 14 14 14 14 14 16 15 24 27 25 20 23 25 27 28 32 33 32 31 33 36 37 40 42 43 43 43 44 45 47 50 52 53 53 52 50 52
20 22 21 24 28 33 35 35 32 28 29 26 24 27 30 14 12 25 16 12 14 14 18 23 20 24 26 28 25 25 27 28 26 28 30 33 34 34 35 35 37 38 40 43 45 47 50 52 51 49 48 51 55 57
17 12 19 17 20 22 24 28 28 32 30 29 29 30 36 25 23 13 15 15 12 17 16 18 21 26 27 27 29 31 31 31 30 32 33 33 33 34 35 38 41 44 46 47 49 50 48 46 46 49 53 55 56 57
16 17 17 19 18 16 16 17 20 22 21 22 25 31 33 30 31 28 29 25 23 20 21 18 19 22 26 29 31 32 33 31 30 29 30 31 35 39 42 44 45 46 48 47 47 48 48 50 52 54 57 62 61 58
11 11 10 12 13 14 14 15 16 17 16 16 23 26 23 20 20 21 21 23 24 21 20 21 20 21 22 23 25 28 31 33 35 37 38 41 44 45 46 47 47 47 48 50 51 52 54 58 61 63 58 56 57 59
10 11 11 11 12 12 13 14 15 15 17 16 16 21 23 23 24 21 22 21 24 25 26 27 29 29 31 33 37 40 41 42 43 45 46 48 48 48 48 48 49 51 53 55 57 59 58 56 55 55 56 59 61 62
7 7 6 7 9 11 13 15 16 17 19 20 21 23 24 27 26 25 27 28 30 31 32 33 35 36 36 36 37 38 40 43 45 47 48 48 50 51 52 53 54 56 58 58 56 55 54 55 57 60 61 64 65 66
6 8 10 11 11 12 14 14 15 16 19 21 22 22 24 25 26 28 29 30 30 31 31 33 35 37 38 39 40 42 45 46 48 50 51 52 53 54 55 56 52 49 49 50 53 56 58 61 62 63 64 66 66 65
1 3 4 6 9 12 15 16 19 21 23 27 29 31 33 33 33 32 33 34 36 38 40 41 42 42 42 43 44 46 47 48 51 51 53 52 47 45 46 47 49 52 55 57 59 60 62 63 62 62 63 61 56 54
7 4 8 7 3 3 3 7 6 9 11 13 16 18 21 23 26 30 31 32 33 34 34 36 38 39 40 39 39 41 43 44 43 43 44 46 48 49 51 53 55 56 56 58 58 58 57 57 59 56 54 53 53 55
8 10 10 10 10 12 12 17 19 17 19 20 20 20 22 24 28 30 31 31 32 33 35 37 38 39 41 42 43 44 46 47 48 49 50 51 51 52 51 51 51 51 50 50 50 50 50 50 51 52 54 57 59 60
9 11 14 15 18 23 24 25 23 28 29 20 21 30 32 32 32 34 35 36 38 39 40 40 42 43 44 45 46 46 46 46 45 45 44 44 43 43 43 44 45 46 46 48 50 52 54 55 56 58 60 61 62 63
15 17 20 24 24 25 25 24 24 25 28 32 32 30 28 27 28 31 31 30 30 31 32 33 33 33 34 34 35 36 36 37 38 39 40 41 43 44 46 48 50 52 53 54 55 56 57 58 60 62 63 64 65 65
21 21 23 25 25 25 23 24 26 28 30 29 27 25 23 22 22 24 25 27 28 30 32 33 35 36 37 38 39 40 41 43 44 45 47 48 49 50 51 52 53 54 56 57 58 59 61 62 63 63 65 66 66 66
23 24 25 26 28 28 24 26 29 31 29 27 26 27 28 29 31 32 32 33 35 36 36 37 37 38 38 38 39 41 42 43 44 46 47 49 50 51 52 54 55 56 57 58 59 60 61 62 63 65 66 68 71 73
26 27 28 29 27 24 27 28 28 29 30 30 32 33 34 34 35 36 36 36 36 36 36 36 36 38 38 40 42 43 43 43 44 45 46 47 48 49 49 50 52 53 55 57 60 62 64 66 69 71 73 74 76 76
27 27 25 23 24 25 27 29 32 34 35 36 37 37 36 36 36 36 36 36 35 36 36 36 37 38 39 39 39 39 40 40 41 42 44 45 48 50 53 55 58 60 62 65 67 70 72 74 75 75 75 74 72 70
22 22 24 26 28 30 32 34 36 35 34 34 34 33 32 31 30 30 30 29 30 30 30 30 30 31 32 33 35 37 39 41 43 45 48 51 54 57 60 62 65 67 69 70 70 70 70 69 68 67 66 64 63 61
22 25 26 28 31 32 31 30 31 32 31 30 27 26 25 24 23 23 23 23 24 25 27 29 30 32 34 36 38 40 42 45 47 50 53 55 58 60 61 62 63 63 63 63 63 62 61 60 59 58 57 56 55 53
23 27 30 30 29 28 29 30 31 31 30 25 22 21 21 21 22 22 23 24 26 27 29 31 33 36 37 40 41 42 44 45 46 46 46 46 47 47 48 49 49 49 49 49 49 49 49 49 49 49 49 48 48 47

GFSWCAN_500_spd_039.txt.gz
Wind_Speed
25 29 32 34 36 37 38 39 41 43 46 44 42 44 42 42 48 71 83 94 91 85 78 71 69 67 64 61 59 58 64 62 59 58 50 49 47 42 43 38 35 33 32 32 31 30 28 22 25 24 20 20 20 23
24 26 27 28 28 29 32 36 40 41 40 40 39 36 33 35 50 74 84 93 91 83 74 69 67 67 62 55 58 58 61 61 59 55 52 47 45 41 37 39 36 33 32 32 29 26 24 20 20 19 18 19 20 22
21 23 25 26 28 28 29 34 37 37 36 36 36 33 30 34 60 77 80 87 83 77 74 69 64 69 60 54 56 61 62 58 53 51 48 50 46 41 36 35 33 34 33 31 28 23 20 18 17 18 19 21 23 24
19 20 22 22 21 22 23 25 25 27 31 34 33 32 34 43 69 68 80 84 81 74 57 71 56 42 56 56 54 61 61 59 56 52 50 49 43 41 40 36 36 34 35 31 29 25 22 22 22 22 22 24 26 29
21 21 22 21 23 23 18 15 16 18 23 28 36 38 44 57 75 73 80 81 73 65 69 55 57 29 35 55 58 55 59 57 55 58 55 51 49 45 43 43 41 38 35 34 30 30 30 28 28 27 28 31 33 35
16 18 19 20 20 19 21 20 21 32 25 23 30 45 51 68 76 78 80 74 65 60 46 46 46 37 31 48 53 56 52 52 53 53 53 50 45 43 46 39 41 42 38 37 35 35 34 34 34 35 36 37 39 41
19 22 22 28 31 30 27 32 30 33 34 24 31 55 55 52 71 80 82 80 76 56 42 43 39 41 41 42 47 50 49 49 52 52 49 46 44 45 42 41 41 43 42 43 41 40 40 40 40 41 42 44 47 48
26 23 25 31 35 33 32 32 34 33 32 38 39 53 49 48 70 77 73 70 64 65 51 45 40 37 38 38 40 44 49 47 47 49 53 53 51 45 46 44 47 42 42 43 43 44 44 44 45 46 48 50 51 52
28 32 31 34 35 34 33 35 31 27 28 40 51 51 62 66 64 56 52 54 60 59 35 21 25 28 30 26 31 38 43 47 48 54 49 45 45 47 49 46 48 39 37 41 43 45 47 47 49 50 50 51 52 52
25 36 36 32 32 29 27 28 32 30 38 47 56 61 67 66 63 52 45 39 44 61 34 22 22 28 31 23 32 43 41 46 52 41 46 45 37 43 45 50 44 34 39 41 44 45 46 47 48 48 51 51 50 51
45 38 36 33 31 28 26 42 50 59 64 64 61 60 56 60 41 36 28 28 37 50 42 28 26 29 33 28 41 43 40 34 39 37 40 46 49 35 35 41 44 46 48 46 46 46 47 47 47 49 50 50 52 53
62 63 57 56 60 64 65 71 74 75 71 68 62 61 54 46 39 36 39 21 23 36 41 33 29 27 33 40 44 28 24 29 34 41 43 40 38 38 36 38 39 39 38 39 41 43 42 44 48 50 52 53 54 54
53 64 72 79 78 72 57 66 65 66 64 57 56 42 35 25 23 24 35 22 18 14 13 15 16 20 21 27 31 34 40 37 34 39 43 41 37 38 39 40 39 41 43 43 42 44 46 48 50 52 52 51 52 53
40 45 57 54 52 48 47 43 45 47 36 27 21 19 20 29 29 20 19 13 12 14 11 12 18 24 27 29 32 33 34 33 32 35 36 36 36 36 36 35 36 38 40 41 42 43 45 47 49 48 48 51 53 56
31 33 30 30 23 35 30 30 32 23 22 23 22 23 26 19 15 15 11 8 6 6 6 6 11 16 23 26 26 26 26 29 30 29 29 28 29 29 32 35 38 38 39 41 43 44 44 45 47 50 52 54 55 55
24 23 26 28 22 14 18 21 19 18 13 10 5 8 20 12 9 4 8 9 11 8 9 11 14 17 19 24 26 23 25 26 25 25 26 28 30 34 37 39 40 38 36 37 40 44 49 51 51 52 53 53 53 54
19 17 17 20 24 22 21 16 13 13 13 13 10 9 8 14 21 9 9 13 11 13 13 13 14 14 19 27 33 35 33 28 27 28 30 33 35 38 37 35 36 38 42 46 49 52 52 53 51 52 53 54 55 59
18 17 15 14 14 14 14 14 12 13 15 16 17 18 16 18 23 24 23 16 17 15 17 18 16 17 18 20 21 24 26 27 28 30 31 32 34 37 40 43 45 48 50 53 53 52 52 53 54 55 57 60 62 65
14 14 15 15 13 12 10 13 16 16 15 15 13 13 15 16 17 16 14 14 15 15 16 19 21 21 22 24 26 28 29 30 33 36 39 41 43 44 46 48 51 53 53 53 53 53 55 56 59 61 63 65 63 61
9 8 7 9 10 9 10 12 13 14 16 14 15 15 14 15 17 19 21 21 19 21 24 26 26 27 29 31 33 35 37 39 40 41 42 44 46 48 50 51 52 53 53 53 54 56 59 62 63 61 60 59 61 63
12 11 10 9 8 9 10 12 13 14 15 16 17 18 19 21 23 24 25 26 27 28 29 31 33 34 35 36 37 38 40 42 43 45 47 48 49 50 52 53 54 55 57 59 58 57 54 55 57 58 61 63 65 65
10 11 11 13 14 14 15 16 18 19 20 21 22 24 25 26 27 29 31 32 34 35 36 37 38 39 40 41 42 43 45 46 47 48 49 50 50 52 54 55 56 55 54 53 54 56 58 60 60 61 60 61 61 63
3 3 6 4 5 8 7 9 9 12 12 15 18 20 22 24 25 27 29 31 32 34 36 38 41 43 44 44 45 46 47 49 49 51 51 52 51 51 52 53 54 54 55 55 56 56 56 56 56 55 58 59 60 60
5 8 5 4 3 3 3 9 12 12 11 15 21 21 19 20 21 25 33 31 31 34 35 36 37 38 39 40 41 43 44 45 46 47 48 49 49 50 50 50 49 49 49 50 51 53 54 55 56 57 58 60 62 64
4 4 5 6 9 13 16 20 21 19 20 20 22 26 29 31 37 37 36 35 35 36 37 38 39 40 40 42 42 43 43 44 44 45 45 45 45 45 45 46 48 49 51 52 54 56 58 59 61 63 64 65 66 67
7 11 14 16 19 20 23 25 24 25 25 24 27 31 33 35 38 38 35 33 33 33 31 30 31 32 32 32 33 34 36 37 39 40 42 44 45 47 49 51 52 54 56 58 59 61 62 62 64 65 66 67 68 69
14 17 19 22 26 29 29 27 29 30 29 30 34 36 37 37 35 32 31 31 31 32 34 35 36 36 37 38 39 41 42 43 44 45 45 46 47 48 50 52 54 56 57 59 60 62 63 64 65 65 66 67 68 68
19 22 24 27 29 30 31 32 35 36 34 35 37 38 37 36 35 36 36 37 37 37 37 38 39 39 40 41 41 41 42 43 44 45 46 48 50 51 52 53 53 54 55 56 58 59 61 64 66 68 71 73 75 77
25 26 27 29 31 32 33 34 34 35 36 37 37 36 37 38 38 39 39 39 39 38 38 39 39 39 39 39 39 40 41 42 43 44 44 45 45 46 47 49 51 54 56 59 63 65 68 71 73 74 76 76 77 76
28 29 29 30 31 31 31 33 34 35 36 37 36 35 35 36 36 35 34 33 33 32 32 33 34 34 34 34 35 35 35 36 37 38 40 42 44 46 49 52 56 59 61 64 65 66 67 68 68 68 67 67 66 65
28 27 27 28 29 31 33 35 36 36 35 35 35 36 34 31 28 26 25 25 25 25 25 26 27 28 29 31 32 34 35 37 39 41 43 45 47 48 48 47 46 46 47 48 49 50 51 51 52 53 54 54 55 55
24 25 26 28 31 33 33 32 32 33 34 34 33 31 28 24 21 21 21 22 22 23 23 25 26 28 30 33 35 36 38 39 39 39 37 34 31 31 31 33 35 36 38 39 40 42 43 44 45 46 47 48 49 49
23 26 29 32 31 30 31 33 33 33 31 30 29 25 21 20 20 21 22 23 25 27 29 30 31 31 32 32 32 32 29 25 22 21 21 23 25 27 29 30 32 33 35 37 38 40 41 41 42 42 42 41 40 39

GFSWCAN_500_spd_042.txt.gz
Wind_Speed
20 25 29 36 41 41 40 45 53 50 48 47 47 47 48 47 43 34 33 56 77 86 85 82 79 75 70 64 58 55 54 56 57 57 56 57 53 49 47 42 38 34 34 32 30 32 29 28 30 29 27 26 26 25
10 17 20 24 32 36 40 45 47 45 46 44 42 43 49 47 43 38 34 40 67 81 85 83 79 74 69 66 60 57 55 56 57 59 60 58 55 50 48 45 39 36 34 36 32 29 29 28 26 26 25 23 22 23
14 16 18 23 27 32 37 37 37 40 42 41 39 43 47 45 40 35 31 36 57 75 83 81 78 77 72 65 63 60 59 61 61 58 57 55 51 52 47 45 40 32 36 37 32 29 27 26 24 23 22 20 20 19
15 18 21 23 25 28 30 31 33 35 37 38 40 42 42 39 36 34 34 37 50 71 81 80 78 74 69 63 60 59 58 60 60 59 56 56 51 51 50 48 40 31 33 34 36 31 27 25 25 26 23 22 22 22
16 16 19 22 22 22 23 24 27 28 28 31 35 36 35 35 33 30 43 49 47 65 77 77 73 71 63 58 56 57 58 61 60 57 54 52 50 53 52 51 47 34 31 33 33 27 33 29 28 28 28 27 28 29
17 17 17 17 18 19 20 20 22 26 29 32 33 33 35 34 32 35 59 52 49 43 61 71 68 64 47 43 51 52 54 56 61 58 51 52 52 54 52 49 42 38 36 34 38 36 37 35 33 32 33 33 33 35
20 21 22 22 22 20 15 14 14 17 23 29 33 34 35 35 34 42 68 55 40 37 44 59 53 54 40 31 34 52 55 52 52 58 53 48 50 47 50 49 46 41 38 38 37 42 42 40 37 39 40 40 41 42
22 23 23 21 18 15 13 15 14 11 12 27 34 38 37 35 54 60 63 58 47 45 42 41 39 39 28 18 32 40 49 53 50 48 54 49 50 53 56 51 48 45 42 45 40 41 42 43 45 44 46 48 48 49
22 25 25 26 24 23 24 25 19 30 24 31 32 30 31 50 59 57 60 55 38 43 55 48 34 36 48 17 31 37 43 42 46 50 46 48 47 49 48 48 44 44 42 44 43 38 38 42 45 44 44 47 50 50
27 28 27 23 22 24 27 25 20 29 39 45 38 47 54 54 59 58 29 46 41 40 44 40 46 42 53 48 30 30 32 42 41 45 46 44 46 47 47 46 47 41 51 50 47 48 42 41 42 43 45 47 47 49
29 26 24 22 19 21 21 18 23 39 40 43 40 36 49 54 55 42 25 29 48 45 47 42 40 32 37 37 35 31 34 35 38 41 47 49 49 48 48 47 52 49 48 44 49 47 46 42 42 45 47 48 48 43
31 31 30 33 36 35 34 32 35 36 37 40 44 44 59 49 32 32 38 40 41 43 42 24 19 20 20 28 24 13 29 39 39 46 46 47 52 48 33 41 44 42 38 39 45 48 50 45 42 43 43 49 44 45
55 52 68 72 67 66 63 61 62 40 35 49 55 47 46 38 31 30 27 20 14 21 33 37 28 16 14 21 26 20 24 39 42 50 37 38 44 44 41 35 28 30 33 33 35 38 41 42 43 42 41 46 54 54
56 57 54 47 50 52 49 52 50 57 57 49 44 42 35 24 25 30 19 13 11 17 22 28 27 23 18 26 32 30 34 32 25 27 30 30 28 26 27 30 31 34 37 38 38 39 35 38 38 43 46 51 53 51
44 53 49 47 43 46 60 54 51 47 43 37 33 23 24 23 16 13 14 17 13 14 12 11 16 17 16 18 21 20 18 25 30 27 25 25 26 26 28 31 33 34 35 37 36 36 37 41 45 48 48 46 47 52
30 29 32 34 37 40 29 28 29 29 20 21 21 23 23 21 19 20 17 9 10 11 9 9 10 12 14 17 21 23 27 28 25 24 23 24 24 26 27 29 31 34 36 38 39 40 41 41 41 42 44 49 56 58
18 14 15 21 26 25 23 22 15 11 12 15 17 15 13 13 14 10 8 7 6 4 4 6 7 10 13 17 17 18 22 25 24 23 25 27 29 30 30 33 36 38 40 41 41 41 42 43 46 51 56 59 61 60
15 14 12 14 13 13 10 5 4 4 2 5 6 3 2 1 5 10 13 13 13 16 15 17 16 18 18 17 17 20 24 29 32 36 32 29 30 32 34 36 38 39 40 43 45 47 49 52 55 58 61 61 61 61
8 7 8 6 8 8 7 6 4 6 5 6 7 8 8 10 13 14 15 17 19 16 14 14 18 19 20 20 22 24 25 26 27 30 32 33 34 37 39 41 43 45 47 48 50 53 56 58 60 62 62 62 62 63
12 12 10 8 7 8 4 8 8 8 9 9 12 10 8 8 11 14 15 16 17 17 16 17 18 19 22 24 26 28 31 33 35 36 38 41 44 46 47 48 48 48 52 55 57 58 58 59 61 61 62 64 65 67
11 11 11 10 9 9 9 9 8 8 9 10 12 14 15 16 16 17 18 19 20 21 21 23 25 28 30 31 34 36 38 40 42 44 45 47 48 49 51 52 53 55 55 56 57 58 60 62 63 64 64 64 63 64
7 7 6 7 5 6 8 7 8 9 10 11 13 14 15 17 19 21 22 23 25 27 29 30 32 34 35 37 39 41 42 43 44 45 46 48 50 52 53 54 55 56 58 60 61 62 63 63 62 63 64 65 65 65
8 4 4 2 3 8 4 5 4 8 6 8 10 12 13 13 14 16 15 18 20 23 25 26 29 32 35 37 39 40 42 44 45 47 49 51 53 54 55 56 57 57 57 58 58 59 59 60 60 60 61 63 64 66
6 10 5 1 2 3 4 5 8 11 12 12 14 17 19 19 20 22 25 27 32 34 33 32 33 34 36 38 40 41 42 44 45 47 48 49 50 52 52 53 53 53 53 53 53 54 55 57 59 61 64 66 68 70
8 5 3 2 1 3 9 12 16 18 20 21 23 23 24 28 32 34 36 36 39 42 44 41 38 38 37 37 38 39 40 41 42 44 44 45 45 46 46 47 48 50 52 54 56 58 60 62 64 66 68 70 71 73
8 6 7 9 12 16 20 22 22 24 25 25 25 28 32 35 37 40 43 44 45 45 44 41 38 36 35 35 35 36 37 38 39 41 42 44 46 47 49 51 52 54 55 56 57 59 60 62 64 66 68 69 70 71
9 11 13 16 20 22 25 26 27 29 27 28 33 38 40 41 43 45 47 47 45 43 42 40 39 39 39 40 40 40 41 42 43 44 45 46 47 48 49 50 51 53 54 55 57 58 59 60 61 64 67 70 73 76
15 18 21 23 26 29 30 31 32 33 34 36 40 42 44 46 47 48 47 46 43 41 41 41 41 41 42 42 42 42 42 43 43 43 44 44 45 45 46 47 47 48 49 51 53 55 58 61 64 66 67 68 69 69
21 23 25 28 30 31 32 34 35 36 39 41 42 44 45 45 44 41 40 40 41 40 40 38 37 36 36 36 37 37 37 37 37 38 38 38 39 40 41 43 45 47 50 52 52 50 47 45 46 49 51 54 56 59
27 29 31 30 31 32 33 35 37 39 40 42 42 41 40 39 39 39 37 36 33 31 30 29 28 27 27 28 28 29 30 31 33 34 36 38 39 41 43 43 41 36 33 34 36 38 39 41 43 44 47 49 52 53
30 30 30 29 30 32 35 37 38 39 38 37 37 38 40 38 36 33 29 26 25 24 24 24 24 25 25 27 28 30 32 33 35 36 36 35 32 27 24 25 28 30 31 32 32 34 36 38 40 42 44 46 48 49
26 28 30 32 33 34 36 38 36 34 36 38 40 39 34 31 27 24 22 21 22 23 24 25 27 28 29 31 31 31 31 30 26 21 18 18 20 22 23 25 27 27 28 29 30 32 34 36 38 40 42 43 44 45
27 29 31 32 34 35 35 34 32 34 38 38 34 31 28 24 22 22 22 23 24 26 26 27 27 27 27 25 21 16 14 14 15 16 17 19 21 23 25 26 27 28 29 30 31 32 33 35 36 37 39 40 41 43

GFSWCAN_500_spd_045.txt.gz
Wind_Speed
26 25 15 17 24 32 30 41 55 53 47 42 47 49 54 49 46 45 41 34 38 65 74 81 81 82 79 72 63 58 55 52 48 55 57 55 57 53 48 43 37 36 34 33 32 33 32 21 23 24 24 23 24 25
20 23 18 20 22 26 46 47 44 43 46 42 43 44 46 44 44 44 40 33 32 56 56 77 81 80 78 74 67 60 52 48 49 50 58 57 56 54 50 44 41 41 35 33 33 29 27 25 23 23 22 24 23 22
13 16 26 29 37 43 37 39 38 36 40 39 40 44 42 41 41 37 34 29 29 55 56 53 73 78 75 72 66 62 56 50 53 51 51 50 51 46 49 48 38 40 39 37 34 33 29 28 27 25 25 23 22 21
15 17 21 21 23 26 29 31 33 35 37 38 41 40 38 36 34 33 30 24 29 50 63 52 51 61 69 70 64 61 57 54 54 55 54 53 51 43 42 42 43 44 42 38 36 29 27 30 30 33 27 25 23 23
18 21 22 22 23 24 26 28 29 31 37 39 37 35 33 31 32 30 29 24 26 41 60 44 52 45 52 53 57 59 55 56 54 55 56 56 54 48 42 43 43 44 43 41 36 25 28 27 32 34 30 27 26 27
19 21 23 24 23 24 24 25 27 32 34 34 33 32 31 32 31 29 24 24 21 30 46 64 59 53 39 55 49 47 51 54 55 54 54 54 51 48 47 45 43 45 45 44 42 36 32 33 36 38 35 33 32 32
18 21 22 23 24 24 24 26 28 30 31 31 31 31 30 28 26 25 21 24 23 28 34 44 66 60 43 33 45 45 43 49 53 54 56 55 52 46 36 37 42 43 46 42 43 42 37 34 36 41 40 39 36 37
21 25 24 23 21 19 18 18 18 22 27 29 28 28 28 28 29 24 23 20 19 20 33 29 49 58 50 32 23 38 41 42 47 51 54 54 50 49 48 38 34 39 43 45 45 43 46 36 37 36 41 44 45 42
25 23 22 21 19 15 11 11 16 22 24 26 28 29 29 29 27 25 30 32 26 25 23 21 34 44 37 41 30 27 31 33 43 51 50 49 47 46 44 48 43 37 41 45 42 44 42 36 39 39 44 47 46 45
27 25 24 23 20 19 15 8 8 18 21 26 30 29 29 27 28 27 27 44 40 43 37 38 37 33 29 30 25 17 31 34 35 42 42 43 44 40 39 44 45 43 45 51 51 51 49 47 40 44 44 47 52 44
26 26 25 26 22 19 18 24 43 47 42 35 37 38 31 32 41 40 46 38 30 33 33 41 33 32 36 41 32 14 23 31 30 34 32 35 33 37 44 43 44 46 45 46 48 51 52 47 48 45 47 50 46 42
20 22 25 28 28 39 41 44 44 40 32 21 31 35 38 53 54 49 31 17 13 12 20 33 34 31 36 44 37 30 18 18 24 26 24 32 34 36 39 43 43 43 44 44 49 51 44 39 42 41 47 47 42 40
58 54 49 42 41 43 45 43 41 38 39 52 56 55 42 34 30 26 18 21 24 25 27 31 30 21 22 27 32 36 36 28 21 30 32 33 33 32 37 38 44 47 44 41 38 44 49 42 40 34 36 38 39 43
55 54 58 54 50 59 62 57 44 41 44 39 39 36 34 36 33 27 25 25 18 11 27 26 29 22 18 19 22 32 25 17 14 16 24 34 33 25 27 28 28 33 38 38 33 34 34 30 31 34 36 36 43 46
46 44 44 46 48 46 50 49 39 31 30 36 29 19 23 22 22 26 22 19 19 14 11 13 10 14 12 12 15 16 23 30 27 25 28 28 27 25 23 18 20 21 24 27 28 30 30 32 34 35 38 43 46 51
44 41 41 40 46 49 48 48 39 25 31 29 25 23 22 20 18 14 13 10 23 23 19 16 17 14 15 15 17 16 17 17 19 20 17 18 18 17 18 20 22 24 28 30 31 33 35 37 39 42 46 49 52 53
30 34 32 35 34 34 36 31 24 23 22 21 19 18 21 23 23 21 19 18 18 16 13 9 8 8 9 12 13 12 13 17 20 20 20 23 23 23 24 26 27 28 30 36 36 37 39 41 43 45 47 49 50 52
22 24 19 21 26 25 30 29 24 21 21 21 18 16 14 12 13 13 12 10 7 4 4 5 8 12 14 15 15 17 18 20 22 24 27 28 29 31 32 32 34 36 38 40 41 42 43 45 49 52 52 53 54 57
11 13 13 14 17 16 13 9 9 9 8 7 7 7 5 4 5 6 6 6 7 9 10 11 12 16 19 20 21 22 23 25 27 28 29 29 30 31 33 35 37 39 41 43 45 48 50 52 54 54 54 57 61 63
8 9 11 9 7 7 5 4 6 6 6 5 3 3 2 2 3 6 8 10 12 13 12 13 15 16 19 22 24 25 26 27 30 31 33 35 36 39 40 41 43 45 47 48 50 51 52 53 54 56 59 61 61 62
15 13 11 10 7 5 5 4 2 1 0 2 3 5 6 8 9 10 12 13 15 18 20 22 24 25 25 27 29 31 33 34 37 38 39 41 42 44 45 46 47 48 49 51 51 52 54 55 56 58 60 61 62 64
9 8 7 8 7 6 4 4 2 2 3 4 5 6 8 10 12 14 16 17 21 23 25 26 27 28 30 32 33 35 35 36 38 38 39 41 43 44 45 46 47 49 51 53 54 55 57 59 61 63 65 65 66 67
8 6 5 4 3 2 3 2 1 0 1 3 5 6 8 10 11 15 14 18 19 22 24 26 28 30 31 31 33 36 38 40 41 43 44 46 47 49 51 53 55 56 58 60 61 62 62 63 63 62 62 62 63 65
16 14 9 5 3 4 4 6 5 7 7 8 10 11 14 15 17 18 20 22 25 27 28 28 30 33 35 37 37 37 39 43 47 48 50 51 52 53 53 54 55 55 55 55 55 55 55 56 58 60 62 64 66 68
11 10 9 6 2 2 4 8 11 12 13 14 16 18 17 18 21 24 29 32 33 34 36 39 41 44 45 47 47 47 44 42 43 44 46 47 47 47 47 48 49 50 51 53 54 56 58 59 61 62 64 65 66 67
11 8 6 6 7 10 13 16 20 23 23 24 26 26 27 28 31 35 38 40 43 45 45 47 48 48 47 45 43 41 40 40 41 42 43 44 45 46 48 49 50 52 53 55 55 56 58 59 59 60 60 60 61 63
12 10 10 11 13 16 19 23 27 31 34 36 37 36 35 36 41 44 46 48 49 51 51 49 45 41 39 38 38 39 40 41 42 42 43 44 44 45 46 47 48 49 49 49 49 49 49 50 52 54 55 54 51 50
13 13 15 18 20 23 26 30 33 37 39 37 37 37 41 45 47 49 51 52 50 48 46 44 42 41 40 39 37 36 36 36 37 37 38 39 39 40 40 40 40 41 42 43 45 47 47 44 40 39 41 43 44 46
17 19 21 24 27 29 33 37 38 38 37 38 41 44 45 48 50 50 47 46 46 45 42 39 36 34 31 30 29 28 28 28 29 29 30 30 32 33 35 37 39 40 40 36 31 31 34 34 33 34 37 40 42 44
23 24 26 29 31 36 36 36 36 38 41 43 45 47 47 46 44 46 47 44 39 34 30 27 25 25 25 25 25 26 26 28 29 31 32 34 34 34 31 27 24 24 26 28 29 30 32 33 34 36 37 38 39 41
25 27 31 33 32 32 34 37 40 43 45 45 45 43 41 42 45 43 37 31 26 24 22 22 22 23 24 26 27 29 30 29 29 26 22 18 16 18 19 20 22 25 27 29 30 31 33 33 34 35 35 36 37 38
30 27 26 28 31 35 38 40 42 42 43 41 38 39 44 42 36 29 25 24 23 23 24 25 25 26 26 25 25 23 17 13 12 13 14 16 18 19 21 22 24 26 27 29 30 31 32 32 32 31 32 32 34 35
26 28 30 33 34 36 38 39 40 37 36 36 40 41 37 30 26 26 26 26 25 25 24 23 22 21 18 11 9 10 10 12 13 15 15 16 17 19 21 23 24 26 27 29 30 30 31 31 30 30 30 30 31 32

GFSWCAN_500_spd_048.txt.gz
Wind_Speed
24 25 25 7 5 16 17 24 36 37 44 57 55 64 48 50 50 56 52 45 46 49 42 44 51 78 84 76 67 65 62 52 48 47 54 48 45 50 49 46 44 44 40 36 34 34 28 13 20 27 22 26 25 24
18 23 12 8 11 11 16 22 30 37 50 45 47 46 47 47 51 50 46 45 44 37 31 37 51 60 76 76 64 67 58 53 50 49 52 55 48 46 50 50 46 50 42 39 36 34 27 21 20 23 27 26 28 25
17 24 22 20 18 17 24 34 39 47 52 44 45 44 42 45 46 44 43 38 33 25 26 35 48 62 54 59 74 64 60 54 51 48 47 48 54 52 51 52 50 46 40 39 39 34 27 24 23 25 28 30 31 27
16 22 22 26 32 35 39 43 52 41 40 37 40 41 39 39 43 40 39 33 30 25 25 26 34 59 63 63 67 64 61 55 52 53 51 48 49 52 52 49 48 48 47 41 40 35 28 26 23 26 30 35 32 29
15 18 18 21 26 28 30 32 34 36 38 38 37 38 40 42 39 36 33 30 26 22 32 34 27 38 54 60 59 58 57 56 52 54 54 50 46 43 42 45 45 42 46 47 41 31 31 27 27 32 33 35 35 34
19 20 22 24 26 25 25 26 28 34 34 34 40 42 39 36 34 33 31 27 19 30 46 38 37 40 33 22 38 58 54 56 55 54 52 50 46 45 41 39 34 33 37 43 45 41 38 38 33 30 34 36 34 35
24 23 23 25 26 25 24 25 28 34 39 40 40 38 35 33 31 28 23 18 18 38 37 37 47 37 32 30 23 39 53 52 51 52 53 49 45 46 44 36 32 32 33 35 39 42 42 40 39 39 39 38 35 36
26 27 26 25 26 27 29 33 36 37 37 35 33 32 30 29 28 26 22 19 19 25 55 42 37 36 44 32 27 35 37 41 44 49 49 49 48 47 47 39 34 31 30 31 35 42 44 46 42 40 40 35 37 35
22 21 21 22 24 26 28 31 32 32 32 31 30 28 29 29 25 21 17 17 21 29 51 43 50 49 38 25 23 22 31 38 32 39 42 42 44 49 45 36 33 36 39 38 34 33 41 42 42 43 43 40 40 34
18 17 16 16 17 18 21 23 27 29 30 29 32 33 33 29 24 20 16 16 19 26 28 48 43 40 36 29 26 22 20 24 35 30 29 39 41 40 38 35 31 31 33 38 40 43 39 40 45 45 52 52 44 41
20 17 13 11 10 13 18 23 26 27 31 33 33 32 28 24 20 16 14 25 27 19 19 33 37 49 37 34 26 26 16 15 23 28 28 29 30 34 32 31 31 32 35 38 37 41 44 43 44 49 51 52 50 50
26 23 29 40 43 39 33 32 36 35 33 31 30 27 25 20 17 11 27 31 28 23 26 42 42 35 31 26 27 29 20 14 15 24 32 32 27 28 29 31 33 32 35 40 42 41 40 45 47 47 48 49 49 49
32 35 44 44 46 45 41 35 31 32 35 32 30 26 21 17 12 24 29 21 14 21 30 41 36 31 27 30 36 31 21 15 6 15 16 18 22 26 28 29 32 31 33 33 34 39 41 39 39 39 38 38 39 50
51 53 51 50 57 58 43 45 44 39 34 35 32 26 21 33 23 16 13 23 24 21 33 33 27 22 17 22 22 22 26 23 18 19 14 16 25 30 32 30 27 26 32 35 41 39 36 40 44 49 54 46 41 33
54 55 51 47 43 50 52 50 52 51 50 52 54 46 39 34 29 28 26 24 23 21 14 18 18 18 15 18 23 20 19 19 22 24 19 16 17 20 27 31 26 26 31 38 41 39 39 37 36 33 33 32 35 38
47 47 46 43 35 34 33 30 32 37 33 29 30 30 23 28 35 38 28 24 30 27 19 20 19 12 10 19 20 13 13 16 19 26 31 27 21 22 27 25 24 26 26 24 24 27 27 25 27 30 37 38 40 43
35 37 37 36 32 27 23 22 21 25 22 21 17 16 15 21 17 15 14 19 22 21 24 19 17 13 13 14 14 15 14 13 15 18 20 20 19 19 19 20 22 22 23 25 27 23 32 37 38 41 45 47 48 49
27 29 28 25 24 29 25 22 21 20 16 22 25 26 25 23 21 20 20 20 20 19 17 17 16 14 14 14 15 16 16 18 16 15 16 19 23 24 25 25 25 28 30 31 34 36 40 44 47 47 47 49 51 53
26 26 26 23 23 25 24 20 18 18 18 18 18 18 17 15 14 14 13 11 9 9 9 9 9 9 10 13 16 18 19 20 21 23 26 27 28 28 29 30 32 34 35 37 39 41 43 46 48 50 53 55 57 59
22 21 19 19 17 17 14 15 13 13 13 12 13 12 10 8 6 6 5 5 6 7 9 10 11 13 14 16 18 22 26 28 29 30 30 31 33 35 36 38 40 42 43 45 46 48 50 52 54 55 57 59 61 63
16 14 14 16 12 8 4 7 8 8 8 9 7 6 4 3 3 3 4 6 9 11 13 15 17 19 21 22 24 27 29 31 33 35 37 39 41 42 44 45 47 48 49 50 52 53 54 55 57 58 60 61 63 65
14 12 12 18 15 10 5 6 7 6 4 3 3 3 2 2 4 6 7 9 12 14 15 17 19 22 24 26 29 31 33 35 37 39 40 41 42 44 46 47 49 50 52 53 55 56 58 60 62 63 64 66 67 67
11 8 11 14 9 7 10 9 8 6 5 4 4 6 7 9 11 14 15 18 20 22 24 25 26 28 28 29 30 31 33 34 37 39 40 42 44 47 49 51 53 55 57 58 59 60 60 61 61 59 59 59 60 61
17 20 15 8 5 6 5 4 4 3 5 7 9 10 12 14 16 17 19 22 23 24 25 27 28 31 35 37 39 42 45 48 51 50 50 49 49 48 48 49 50 51 51 51 52 52 52 53 55 56 58 59 61 63
20 15 8 5 2 2 0 1 3 5 6 9 11 13 18 19 22 23 25 27 30 33 36 38 40 44 46 49 51 54 53 52 50 48 47 46 46 46 47 47 48 48 49 50 52 53 55 56 57 58 59 59 60 60
11 7 7 6 5 6 6 7 9 12 15 18 22 27 32 32 32 31 33 36 38 40 43 47 49 52 54 53 50 45 42 41 40 40 41 42 43 44 46 47 49 50 50 51 52 52 53 53 54 53 52 52 52 53
6 6 8 9 10 11 13 15 18 22 25 28 33 37 38 36 36 38 40 43 46 50 53 55 54 51 47 45 42 40 38 38 38 39 39 40 41 42 42 42 42 43 43 43 43 43 43 44 45 46 45 42 40 41
11 12 13 14 15 17 19 22 25 28 32 35 38 35 37 38 40 43 47 51 53 54 51 48 47 45 41 37 34 32 31 30 30 30 30 29 29 30 31 32 33 34 36 38 39 39 36 33 32 34 35 35 37 40
15 16 17 19 20 22 25 28 32 33 34 34 35 38 41 44 47 50 50 49 45 45 45 41 35 30 27 25 24 24 24 25 25 25 26 28 30 32 33 32 32 28 24 22 24 27 29 30 32 34 34 35 36 37
20 20 21 23 25 27 30 29 29 32 34 37 40 44 46 48 47 45 42 43 42 37 31 26 23 22 21 21 22 23 24 26 27 28 28 26 23 18 16 17 19 21 22 24 25 26 28 30 31 33 34 34 34 34
22 23 24 26 28 26 27 30 33 36 38 41 45 47 46 44 42 42 41 35 28 24 23 22 22 23 24 24 25 25 24 23 18 13 11 13 14 16 17 18 19 20 21 24 26 27 29 30 32 33 33 33 32 31
23 25 25 23 25 29 32 34 36 39 42 44 45 43 41 42 40 35 30 26 26 26 26 25 24 23 21 21 17 10 7 8 9 11 12 13 13 14 16 18 21 23 25 27 30 31 32 32 32 32 31 31 30 30
20 23 27 29 29 31 34 36 39 41 42 41 38 40 40 36 30 29 29 27 25 23 21 19 18 14 7 4 5 6 8 8 8 9 10 12 14 16 19 22 24 27 30 33 34 34 32 31 29 29 29 29 29 28

GFSWCAN_500_spd_051.txt.gz
Wind_Speed
21 25 31 24 18 12 9 13 16 22 37 46 51 55 53 55 59 57 48 57 50 36 39 37 36 42 50 44 59 61 67 63 52 58 57 57 53 54 47 50 36 47 45 43 41 41 40 30 22 26 17 27 34 31
14 26 24 13 10 3 4 6 9 20 37 48 55 51 51 47 50 48 56 53 42 38 34 38 34 36 48 37 49 64 59 48 54 50 58 52 58 49 52 49 46 42 41 42 42 40 33 26 26 23 23 24 30 33
10 22 19 8 5 7 8 11 20 31 39 45 45 48 49 51 53 53 53 43 40 38 36 35 37 39 38 38 50 56 62 50 51 52 53 53 52 52 51 46 48 48 44 45 48 45 38 32 30 29 25 27 31 32
7 17 25 18 16 19 21 23 28 33 40 43 48 53 57 55 52 46 40 36 38 35 32 38 38 37 39 39 46 61 54 50 51 53 54 53 47 48 49 47 47 50 48 47 47 46 41 39 31 33 34 36 35 35
8 15 23 22 18 21 34 29 33 37 44 46 57 52 50 50 43 40 38 41 42 33 31 27 25 30 39 41 38 50 61 46 54 52 52 51 49 44 50 49 47 46 49 43 42 38 41 37 37 38 31 33 38 35
10 16 22 26 28 34 35 36 39 44 44 42 44 42 42 37 37 36 40 36 34 31 25 20 20 28 34 37 40 33 58 59 43 49 52 51 45 45 43 43 44 45 43 44 44 39 44 44 41 41 40 32 36 35
18 22 22 23 25 27 30 34 37 38 40 42 41 40 41 40 38 38 36 30 24 19 23 25 24 20 34 48 34 33 41 51 51 45 49 48 49 43 41 38 30 33 37 38 40 40 41 41 46 49 45 38 39 36
20 21 20 21 24 24 26 31 32 35 36 37 38 38 38 38 36 33 27 25 22 23 29 36 32 30 32 31 27 28 37 37 42 45 44 47 44 41 41 37 34 35 34 32 33 35 38 34 34 37 41 41 40 39
22 20 20 21 22 24 27 30 35 39 40 40 38 36 34 32 29 28 28 24 19 28 39 36 36 21 30 28 31 33 28 39 40 43 43 42 43 44 42 37 31 30 30 30 31 34 38 37 37 39 38 38 42 42
21 24 24 25 29 32 35 36 37 37 36 34 33 33 33 32 28 23 17 18 22 23 36 32 33 26 25 28 44 38 33 28 41 38 35 38 38 44 44 39 35 35 33 31 33 34 34 34 37 38 39 38 42 46
17 20 22 24 26 31 32 33 32 31 31 30 30 32 32 29 26 22 17 15 20 24 38 42 30 36 33 29 32 29 25 22 24 29 28 29 30 32 30 28 28 29 28 29 31 35 37 39 39 40 43 47 47 46
15 18 21 23 26 27 28 28 28 30 34 33 32 28 24 21 16 11 10 16 29 26 43 44 38 29 23 28 31 25 24 19 13 16 25 29 28 25 21 23 26 30 33 33 35 38 41 41 40 39 40 39 44 48
29 23 22 28 33 30 31 36 38 35 32 32 28 23 17 13 8 16 20 26 27 24 36 32 31 33 39 18 33 31 23 19 12 15 23 17 19 25 29 27 25 27 32 35 35 34 35 35 36 36 38 39 42 41
36 32 27 27 34 40 37 36 35 34 32 28 25 19 14 17 20 21 23 20 11 21 37 48 44 39 31 31 24 29 31 27 21 16 6 9 10 14 18 23 25 23 25 25 27 30 32 34 35 37 39 40 41 42
24 34 36 38 39 40 40 38 36 32 31 29 24 20 24 20 25 19 15 13 14 18 32 50 40 28 22 15 24 33 32 29 24 14 9 14 16 14 14 15 20 23 25 28 31 31 37 43 45 44 44 38 38 38
43 38 41 44 40 34 32 31 29 29 27 22 29 33 24 28 27 27 26 26 31 24 20 21 24 21 24 21 24 25 22 22 21 20 20 21 23 26 25 26 27 28 29 28 29 32 36 38 38 38 37 37 38 39
33 33 33 36 39 44 41 35 33 30 29 29 25 21 22 21 22 22 23 29 28 25 25 22 17 14 20 24 22 20 20 19 18 21 24 27 28 28 28 28 28 27 27 27 28 29 30 31 33 33 36 40 42 48
26 23 18 19 19 19 17 20 27 27 28 25 21 26 20 17 11 13 16 17 24 25 22 20 14 11 21 23 21 20 20 19 19 21 23 24 24 24 24 25 27 27 28 30 31 33 37 39 38 41 43 46 45 48
26 22 19 21 21 26 28 28 27 27 29 29 28 22 19 19 17 13 11 11 12 13 13 18 19 16 15 17 17 16 16 17 19 20 22 23 25 27 30 32 33 34 35 37 39 41 43 45 46 47 50 52 55 58
15 21 22 22 24 23 23 22 19 18 19 19 17 15 14 13 12 11 10 9 8 7 7 8 9 10 12 13 15 16 18 20 22 24 26 28 30 32 34 35 36 37 39 42 44 46 48 50 52 54 56 58 60 62
17 18 16 14 16 12 12 12 12 13 14 13 13 12 9 7 6 5 4 2 1 3 6 8 10 12 14 16 18 21 23 25 28 30 33 35 37 38 40 42 44 46 47 48 50 51 52 54 55 57 59 60 62 63
15 16 14 16 16 10 10 12 11 11 9 9 9 8 6 5 4 4 3 2 4 6 8 10 12 15 17 20 23 26 29 30 32 34 36 38 40 42 44 45 48 49 51 53 55 56 58 60 61 62 64 65 66 67
15 17 17 16 12 10 11 12 12 10 8 8 6 6 5 5 6 7 8 10 12 14 16 19 22 24 27 29 32 34 36 37 40 42 44 46 48 50 52 54 55 55 56 57 58 59 60 61 62 63 64 64 65 65
18 16 17 14 10 10 10 10 9 7 5 5 5 5 7 9 12 13 15 18 22 25 28 30 31 34 37 40 41 44 45 47 49 52 54 55 56 55 54 53 53 53 53 54 55 55 56 57 58 59 60 61 61 62
20 18 15 10 6 6 4 3 3 4 6 8 10 12 14 16 19 22 24 28 29 31 33 36 39 42 44 48 52 53 55 56 55 53 50 49 47 47 46 47 48 48 49 50 51 52 53 54 55 55 55 56 56 55
18 15 10 5 4 1 3 7 9 11 13 15 18 21 24 26 29 31 33 35 37 39 42 45 47 51 54 58 58 56 51 48 46 44 43 43 43 43 44 45 46 47 48 48 49 48 48 47 46 45 44 44 45 44
13 9 6 3 5 8 10 12 14 16 18 21 24 27 30 32 34 35 37 38 41 44 48 52 55 55 51 48 48 46 44 40 38 36 35 34 34 34 35 35 35 35 34 34 35 36 37 38 38 37 35 33 35 37
6 4 6 8 10 12 14 16 18 20 24 27 30 30 32 34 35 38 40 44 48 51 52 50 47 46 43 40 36 31 28 26 25 24 25 25 25 26 27 29 31 32 33 31 28 25 25 27 30 32 33 33 35 36
9 10 12 14 16 17 19 21 24 26 28 29 30 31 34 36 39 42 46 48 48 47 45 43 39 33 28 24 22 21 21 21 22 23 24 26 27 27 25 20 16 17 20 23 24 24 25 27 29 30 32 33 34 35
14 16 18 20 21 22 24 26 27 28 28 30 32 34 37 40 43 46 44 44 44 41 35 29 25 23 22 22 23 23 24 24 24 23 20 14 10 12 14 15 16 17 18 21 23 26 28 31 33 34 35 35 35 35
20 21 22 23 23 25 26 25 27 30 31 32 35 38 41 43 43 41 42 38 33 29 27 27 26 25 24 24 23 21 20 14 8 8 9 11 11 11 13 15 17 19 22 25 28 31 33 34 34 32 31 30 30 31
23 22 23 25 24 24 26 28 29 30 33 36 38 42 42 40 40 39 35 31 30 28 27 25 22 20 17 16 11 5 5 6 8 7 7 9 11 13 15 18 20 23 25 28 31 32 31 29 27 26 26 28 28 29
21 21 21 23 25 26 28 29 31 34 36 39 41 39 37 39 37 33 32 31 27 23 20 17 14 9 3 2 3 5 5 5 6 8 10 12 14 16 18 21 23 25 28 31 33 34 32 30 28 28 28 29 29 29

GFSWCAN_500_spd_054.txt.gz
Wind_Speed
49 34 26 34 43 36 28 29 30 31 36 33 40 48 54 62 63 56 50 50 48 50 49 52 43 46 49 46 50 43 47 49 47 48 56 66 71 63 52 40 34 49 54 46 44 49 46 37 40 41 29 17 20 30
16 17 27 32 26 20 23 22 18 21 27 29 32 39 47 55 54 58 60 55 51 51 45 43 40 30 36 42 43 45 43 41 47 48 50 49 62 57 58 59 35 36 52 41 48 46 47 43 40 32 23 27 27 24
9 18 27 15 15 14 14 12 13 11 16 26 32 41 40 53 61 59 58 46 47 49 38 46 39 31 28 35 40 44 37 36 37 50 48 42 56 54 57 59 50 31 28 41 42 47 41 39 34 34 40 37 27 33
6 17 15 14 15 6 7 5 8 20 26 32 39 45 52 47 55 55 49 44 47 51 31 42 31 34 27 29 40 42 30 40 40 37 45 33 43 54 49 48 50 45 24 31 39 43 46 45 36 23 39 42 39 35
9 13 13 12 15 16 16 23 25 29 38 38 41 44 44 51 59 55 45 43 42 44 40 29 32 34 32 33 38 39 35 31 64 49 52 42 41 41 47 46 48 46 42 42 41 33 38 36 35 41 35 38 38 39
13 17 18 22 22 22 22 24 27 32 34 36 39 41 42 43 47 51 45 40 35 33 32 28 29 30 28 24 25 27 31 39 57 39 30 41 50 47 41 41 41 42 42 39 40 37 40 42 38 42 44 45 42 45
14 16 18 21 25 31 34 32 33 39 40 42 40 43 45 43 43 43 39 35 36 36 30 27 22 20 23 26 28 29 32 39 49 52 44 36 36 44 42 35 32 33 41 42 41 43 44 41 43 41 44 44 46 46
14 16 18 19 23 27 34 39 43 43 43 45 45 46 44 41 39 36 34 32 32 32 25 22 18 17 17 22 28 28 36 37 37 37 42 42 38 38 36 36 37 34 36 38 46 46 40 35 38 37 36 38 42 44
11 14 17 20 23 27 29 32 36 40 43 45 42 40 37 34 33 32 32 31 29 29 28 23 16 19 22 25 32 34 38 45 39 40 36 32 35 39 35 33 29 30 32 34 31 30 32 31 34 34 38 43 43 41
14 16 16 17 21 26 29 31 34 36 37 39 40 38 36 34 33 31 29 28 27 25 21 24 31 23 17 37 38 36 39 50 41 49 45 38 34 33 36 34 29 26 23 27 28 28 29 32 29 32 36 35 33 34
20 20 22 23 26 29 29 30 32 34 34 33 31 30 29 26 23 24 23 21 17 18 21 29 26 18 19 36 38 32 36 33 37 39 32 32 32 31 32 31 31 30 29 30 30 28 30 33 34 36 41 43 43 46
23 24 26 28 29 29 30 30 30 30 29 27 27 27 26 26 23 20 19 18 20 18 28 31 22 11 8 23 27 36 31 25 30 32 29 26 28 27 26 24 22 24 26 27 28 29 31 35 40 42 45 45 44 44
25 26 25 26 27 26 24 23 23 24 26 28 27 25 22 19 17 17 17 21 21 21 25 31 25 16 23 22 21 30 34 36 31 34 38 27 25 27 27 26 25 25 27 29 34 38 41 44 46 47 47 46 45 45
30 28 25 26 24 22 22 26 29 29 27 23 20 16 14 10 12 7 15 21 19 11 26 30 30 29 28 34 17 26 28 28 33 31 28 23 16 19 25 30 34 36 34 35 33 31 35 38 40 41 42 41 42 43
33 33 29 29 30 29 31 31 28 26 21 18 18 18 17 18 17 19 19 16 12 15 31 34 23 27 23 20 11 20 26 31 30 21 20 15 13 15 16 18 22 24 25 26 29 29 32 33 35 36 39 41 43 48
28 29 30 30 30 30 29 28 23 22 20 17 18 15 17 15 11 10 7 8 16 24 45 31 20 27 22 24 18 16 27 28 23 19 16 14 14 18 19 19 21 23 25 26 28 30 31 33 35 37 38 40 40 40
30 26 25 25 25 24 23 24 22 17 13 15 15 16 12 15 19 19 20 16 15 38 44 35 25 28 21 21 14 14 15 20 25 21 17 16 17 20 22 25 29 31 33 33 32 32 32 33 35 37 39 40 40 41
29 36 33 29 24 21 19 18 15 13 19 17 12 13 17 15 18 16 13 22 30 34 36 33 28 21 14 14 16 17 17 16 22 20 22 23 26 29 31 31 30 31 31 33 34 34 36 37 39 40 42 44 47 47
22 20 19 23 28 25 23 25 23 19 14 13 10 11 9 13 15 11 7 12 13 18 15 12 12 17 18 16 21 19 21 22 20 21 21 23 26 27 28 29 31 34 35 35 37 39 42 43 45 46 47 48 50 52
20 25 29 30 29 27 24 22 19 16 13 11 9 15 17 16 15 14 16 17 18 14 9 10 8 7 6 7 8 8 10 12 15 18 21 23 26 28 30 33 35 38 40 43 44 45 47 49 50 52 54 56 58 60
17 19 21 23 26 25 21 21 21 22 21 19 18 16 13 12 11 11 9 10 12 8 5 3 3 6 7 9 12 14 16 18 21 23 26 29 32 35 38 42 44 46 47 49 50 52 54 55 56 58 59 61 62 64
11 11 13 20 19 16 15 16 14 13 15 16 15 12 10 10 10 10 9 8 4 4 5 6 8 11 14 17 20 23 26 31 35 37 38 41 42 44 47 48 49 51 53 55 56 57 58 59 61 62 63 64 65 66
10 7 9 15 12 12 16 16 16 13 10 9 7 9 9 11 12 11 11 11 13 15 18 20 22 24 25 27 29 33 36 39 40 42 46 50 54 55 55 55 55 55 56 57 58 58 59 59 60 60 60 61 61 61
12 13 14 14 10 12 12 12 10 7 6 7 8 9 10 11 12 14 15 17 20 23 26 28 31 33 35 37 39 41 43 48 53 56 55 53 52 51 51 53 54 54 54 55 54 54 54 54 54 54 55 56 57 57
17 14 15 13 11 10 8 7 6 6 7 8 10 12 14 16 18 21 24 28 30 32 34 37 38 40 41 43 47 52 55 55 54 52 50 48 47 46 46 47 47 47 48 48 49 49 50 50 50 49 47 47 45 45
16 15 13 10 7 4 2 3 5 7 9 12 14 17 20 23 26 29 33 35 37 39 41 41 43 45 50 55 57 57 54 52 49 48 46 43 41 40 38 37 36 37 36 36 36 35 35 35 36 37 37 37 37 36
16 13 10 7 3 1 4 7 10 12 15 17 20 23 27 29 33 34 37 37 39 40 42 44 50 56 56 55 51 49 46 41 36 32 30 28 27 26 26 26 26 27 28 30 31 31 28 27 26 27 29 31 32 33
13 10 6 3 4 7 10 12 15 17 21 23 27 29 31 33 34 34 35 38 41 45 49 55 55 53 50 46 41 35 30 26 25 24 24 24 24 25 26 27 26 22 18 18 20 22 22 23 26 29 32 34 36 38
11 8 7 8 11 13 15 18 20 22 26 28 30 30 31 32 34 36 40 44 48 53 53 52 49 44 38 33 29 27 26 26 26 26 26 26 24 20 13 13 15 15 15 18 21 23 26 29 32 34 33 34 35 34
13 12 12 13 16 18 20 22 25 27 27 27 28 30 33 35 38 42 47 51 52 50 49 44 39 35 33 31 30 29 28 26 24 22 15 8 9 11 11 12 13 16 18 21 23 26 29 31 33 33 32 30 29 28
14 15 17 19 20 22 24 26 26 26 27 29 31 34 37 39 44 49 51 50 49 45 41 38 36 33 29 26 24 21 19 12 5 5 7 7 8 10 12 14 16 19 21 23 25 28 31 33 35 33 31 29 29 30
18 19 21 23 25 26 25 25 27 28 31 32 34 37 40 45 50 49 48 45 41 39 37 32 26 22 18 16 10 4 3 4 4 4 6 8 10 13 15 17 19 21 24 26 28 30 33 36 34 30 29 29 30 31
22 23 24 24 24 24 26 28 30 32 33 35 38 42 46 48 44 43 40 37 34 27 20 14 9 5 2 2 3 4 2 2 4 6 8 11 14 16 18 20 22 24 26 28 30 31 34 37 33 29 30 31 31 31

GFSWCAN_500_spd_060.txt.gz
Wind_Speed
48 47 45 43 42 43 45 49 52 52 54 57 60 62 64 63 61 62 59 57 54 55 53 52 53 53 48 46 47 42 41 48 47 51 53 52 55 55 51 45 46 47 52 60 60 37 32 53 50 45 47 52 45 46
13 15 19 23 26 27 28 32 36 40 43 45 47 49 48 48 48 47 47 49 55 57 60 69 58 49 49 44 41 43 42 41 44 50 50 49 53 52 46 45 45 47 47 49 63 22 19 37 48 41 39 41 47 44
7 8 10 13 16 20 24 28 32 39 41 42 41 42 51 52 51 49 47 43 44 51 55 59 46 54 48 52 50 45 44 43 40 42 41 44 45 43 42 45 42 40 42 46 52 41 17 12 37 33 25 30 34 37
12 14 15 17 18 15 13 18 23 30 33 36 37 34 35 35 37 39 39 41 39 38 46 57 57 47 40 41 44 43 45 43 38 39 37 42 40 36 36 38 41 35 43 40 53 42 30 20 18 30 47 44 38 36
14 16 18 17 6 11 10 11 15 18 22 29 32 34 33 33 32 36 36 40 36 32 34 37 36 37 43 43 46 31 28 36 33 39 38 34 32 33 34 26 33 27 37 44 43 38 35 28 23 21 35 41 37 41
14 17 18 8 8 11 14 12 11 13 11 18 29 31 33 36 33 40 42 37 33 31 26 46 24 27 35 35 44 46 31 32 40 32 33 30 30 34 32 31 23 19 30 44 45 38 34 33 30 32 27 32 37 44
14 19 18 13 15 17 21 26 20 15 19 26 35 35 38 35 41 35 33 32 34 27 28 22 20 23 35 35 37 46 35 39 39 27 34 31 40 30 29 29 25 28 28 31 40 46 41 39 37 33 30 35 36 37
16 16 17 15 16 19 23 32 35 34 39 35 37 40 48 43 39 35 35 39 36 32 34 25 22 27 25 24 30 28 29 40 39 40 43 42 28 30 36 37 32 30 26 26 32 41 40 36 32 30 31 34 37 41
17 19 16 18 21 23 27 33 39 42 44 49 52 52 43 38 36 25 32 35 33 27 29 29 21 20 24 26 26 24 33 35 37 40 42 37 40 17 30 31 29 31 30 27 27 27 26 26 27 29 31 35 36 39
16 20 22 21 25 27 29 34 35 32 41 42 41 42 37 33 32 27 28 26 25 26 27 29 16 20 19 23 23 26 29 34 37 39 39 33 31 27 29 39 22 28 36 33 32 33 29 27 26 27 28 31 33 37
18 19 21 24 27 28 29 29 32 30 33 37 37 38 36 35 32 30 26 24 28 24 24 22 21 17 20 17 16 23 27 32 39 40 38 33 32 34 33 33 36 31 29 28 30 35 34 30 27 29 31 32 35 38
19 20 20 19 21 23 25 28 29 28 26 25 24 27 24 24 25 24 22 21 19 19 20 20 20 14 12 12 8 10 22 32 37 32 36 39 38 37 39 28 39 38 34 29 28 33 36 32 34 31 31 31 34 34
19 18 18 17 17 16 18 20 22 22 23 25 23 22 20 19 17 16 17 17 17 17 16 17 17 18 13 7 4 8 15 18 23 29 31 30 29 18 34 31 22 27 31 29 34 37 38 39 36 35 39 43 45 45
21 19 19 18 17 16 15 15 16 17 17 17 16 14 13 12 12 12 14 14 12 15 20 30 18 13 9 10 11 9 15 16 17 24 29 26 20 15 20 22 22 26 28 29 31 35 39 38 33 37 41 40 37 35
18 17 16 16 17 17 18 19 18 17 16 13 10 9 9 6 11 17 16 17 20 27 26 19 16 13 15 9 10 15 16 22 18 18 26 25 19 20 20 22 24 23 27 31 33 32 33 33 32 32 33 35 38 39
15 19 25 25 23 21 19 17 16 15 15 13 10 10 11 11 16 21 21 20 24 20 15 12 8 10 13 9 10 4 13 13 14 14 21 26 22 14 17 25 31 33 34 33 29 34 44 43 36 33 34 36 36 36
23 24 23 22 20 20 18 17 20 19 20 20 17 12 11 15 17 16 18 20 20 18 13 8 9 11 14 8 10 11 9 4 11 6 11 21 28 26 24 24 25 28 32 38 33 29 27 24 24 26 29 32 33 35
23 21 19 19 20 18 18 20 18 18 17 18 17 18 24 16 18 18 24 25 22 18 17 16 8 5 2 0 5 6 6 1 2 6 14 19 22 24 21 17 18 19 19 19 21 22 23 25 27 29 32 34 36 38
21 17 14 13 15 15 19 16 18 16 16 18 19 21 26 28 31 36 31 25 23 17 13 5 1 6 3 7 10 14 14 8 8 10 10 11 14 14 14 14 16 18 20 21 24 25 27 29 31 34 38 40 43 45
14 13 13 12 14 19 16 15 15 13 15 17 19 20 21 24 25 25 22 22 17 12 5 2 7 10 9 9 7 5 7 6 6 8 9 11 14 16 19 23 25 27 29 32 35 37 39 42 44 45 47 49 50 51
25 26 25 23 18 15 10 15 17 19 18 19 21 20 14 21 20 19 15 14 11 6 5 7 9 9 7 8 10 11 11 12 13 16 18 21 24 27 29 32 34 37 40 42 44 47 49 52 53 55 56 57 58 59
20 20 20 18 18 15 17 18 20 21 23 23 25 25 23 21 19 19 15 17 8 4 4 6 6 7 10 13 14 16 17 19 21 23 25 27 31 34 37 40 43 45 48 50 52 54 56 57 59 60 61 61 62 62
18 17 17 18 17 17 22 23 22 19 19 20 21 19 20 19 16 15 12 7 3 3 5 8 11 13 16 18 19 21 24 25 27 30 34 38 41 44 45 47 49 49 50 51 51 52 53 54 54 54 54 54 54 52
15 18 18 17 17 20 21 20 17 14 13 14 15 12 12 11 9 8 7 8 10 12 14 15 17 19 21 24 28 31 33 37 41 45 49 52 52 50 48 46 44 44 43 43 43 41 40 39 38 35 34 33 32 33
16 17 18 17 16 16 14 13 12 10 10 10 9 9 8 8 10 11 13 16 18 20 21 22 24 27 31 35 37 41 45 50 54 55 54 51 49 45 40 36 32 29 27 26 25 24 24 26 27 27 26 24 24 25
17 17 17 16 14 11 8 7 5 6 6 7 9 10 12 14 16 19 21 22 24 25 27 30 33 37 41 45 49 54 57 57 53 46 40 34 31 28 26 23 22 22 23 24 25 24 20 17 17 19 22 24 27 30
16 17 15 12 8 5 2 2 4 5 7 9 11 15 18 21 24 25 26 27 28 30 35 38 41 46 51 56 59 55 49 43 37 33 29 26 24 22 23 23 23 23 19 13 11 12 14 17 20 22 24 27 30 33
15 13 9 5 3 2 3 5 7 9 11 14 18 21 24 25 26 28 29 30 34 38 41 45 50 56 60 56 49 43 38 33 29 26 24 21 21 19 18 15 8 8 8 9 12 14 16 19 22 24 26 29 32 35
12 8 6 6 6 8 9 10 12 14 17 20 23 26 27 28 30 30 32 35 39 43 47 52 58 59 51 45 40 34 26 21 18 17 15 12 10 5 3 3 4 7 9 12 14 17 19 22 25 27 29 31 33 34
12 9 9 10 12 13 14 15 17 20 22 25 27 29 29 31 33 34 37 41 44 48 53 58 56 46 39 32 26 20 15 13 10 8 3 2 2 2 3 5 8 11 13 16 18 20 23 26 28 30 31 32 35 35
11 11 12 13 15 16 18 20 22 24 26 29 31 31 32 35 36 38 41 44 48 53 57 53 43 34 23 18 14 11 10 8 6 4 3 2 3 5 7 9 12 14 17 19 21 24 26 28 31 32 33 34 35 37
15 15 16 17 19 21 22 24 27 28 31 32 32 34 36 38 39 41 43 47 51 54 51 41 33 21 20 19 16 13 9 5 3 3 3 5 6 8 10 13 15 18 20 22 24 27 29 31 33 34 36 35 37 39
19 20 21 22 23 25 27 28 30 32 32 32 35 37 39 39 41 43 46 49 51 51 41 35 27 20 19 18 16 12 8 7 7 7 8 9 11 13 16 18 20 22 23 25 27 29 31 33 35 36 36 38 40 41

GFSWCAN_500_spd_063.txt.gz
Wind_Speed
23 25 29 38 50 51 48 46 46 46 46 46 45 47 49 50 50 53 55 54 54 55 55 53 51 48 45 44 42 41 42 44 45 47 46 43 44 43 43 42 41 41 43 42 46 44 63 59 47 28 37 46 41 41
12 13 14 13 13 22 32 40 44 43 47 49 50 51 49 49 51 51 51 50 50 54 57 56 56 53 50 49 47 48 46 42 43 46 48 47 46 46 45 47 47 49 45 46 46 42 41 51 47 34 38 48 41 38
14 15 16 15 15 16 19 25 29 33 39 44 50 54 56 55 56 55 52 50 49 49 50 52 52 52 52 48 46 47 45 43 42 43 43 44 46 47 50 49 48 49 49 48 46 39 39 41 57 46 21 40 44 35
16 17 17 18 19 17 16 20 26 31 36 40 41 42 42 43 45 46 48 49 51 51 54 52 53 53 48 48 45 46 45 40 41 39 37 38 43 46 48 49 49 46 44 44 46 35 31 33 43 51 38 20 24 42
17 19 18 11 9 15 17 21 23 27 31 36 41 44 43 41 41 41 42 36 38 37 37 40 52 52 53 54 51 45 42 46 46 42 42 42 38 40 39 43 42 41 38 39 41 38 32 31 34 41 40 16 14 26
14 12 12 10 12 10 15 13 15 13 25 34 30 35 37 37 31 33 41 44 38 32 30 32 39 54 45 51 51 55 50 50 47 43 45 37 40 40 37 37 35 36 36 33 33 34 30 33 32 35 40 23 15 21
7 13 7 13 12 13 8 8 3 6 14 28 34 31 34 30 29 30 30 28 33 32 22 22 27 40 53 46 40 42 42 45 45 46 41 37 38 37 31 33 35 34 32 27 23 21 23 28 33 30 35 28 25 21
12 12 11 15 14 20 21 24 17 18 29 34 35 36 34 29 27 34 31 26 33 31 23 16 27 30 35 37 36 34 30 36 33 28 31 30 32 38 30 27 30 30 30 26 19 22 27 31 32 33 33 32 32 31
16 14 14 19 27 31 30 33 35 37 38 37 39 42 35 33 31 35 32 32 33 28 13 28 23 21 22 20 19 22 27 32 38 36 32 33 29 31 22 29 29 29 32 31 29 24 20 26 29 33 37 33 34 30
20 19 19 22 34 38 40 46 49 48 45 45 48 44 43 33 25 30 35 34 25 25 27 24 20 21 22 20 17 17 20 23 35 34 34 43 36 34 31 37 24 27 28 33 29 29 25 25 28 32 34 36 34 34
22 23 24 21 29 32 32 32 36 41 34 36 37 37 39 32 37 37 31 26 26 23 26 26 17 16 18 12 15 18 22 26 22 29 30 39 40 34 33 42 39 30 32 29 31 32 35 34 32 36 38 37 35 35
18 21 23 26 24 23 29 30 29 34 38 32 31 34 31 31 30 29 28 27 22 20 28 24 16 12 15 14 12 12 15 18 24 27 32 38 40 38 37 32 31 28 34 36 25 29 30 30 29 37 40 41 40 39
16 15 16 18 21 23 24 23 23 24 24 24 21 21 20 21 20 19 20 19 19 20 19 14 14 14 15 15 12 11 13 17 21 26 34 35 34 33 33 31 27 29 26 26 34 37 35 34 35 36 41 47 43 40
14 12 11 11 14 16 18 19 19 20 21 18 17 18 19 19 17 14 14 14 14 14 15 17 18 14 17 14 10 10 5 11 17 23 26 30 34 35 35 34 24 28 31 30 25 31 37 39 39 36 41 42 42 36
18 17 17 16 15 14 13 14 14 15 14 13 13 12 13 14 16 18 18 16 15 16 15 16 19 14 10 8 9 10 10 9 11 12 14 19 23 22 17 11 12 19 26 29 27 26 26 26 32 34 35 34 37 41
18 19 20 21 18 17 16 14 13 14 14 11 9 9 12 14 18 17 18 18 27 30 26 21 16 13 10 8 3 9 11 8 6 10 15 17 21 26 16 14 13 20 25 26 28 30 31 32 35 37 39 40 40 37
24 22 20 17 15 14 14 12 11 9 8 8 9 12 9 21 24 24 30 32 27 21 16 11 11 10 11 4 7 9 7 3 11 11 15 20 22 19 19 21 23 25 26 23 21 23 24 24 27 29 27 28 28 31
21 20 18 16 16 16 16 14 11 10 11 13 13 15 20 30 30 29 27 22 19 17 16 12 7 4 2 3 6 6 6 3 3 6 10 16 22 27 29 31 32 25 18 17 16 17 18 19 21 24 26 29 30 32
21 19 17 17 19 17 14 14 18 21 26 20 19 21 24 32 33 28 23 22 23 20 13 9 7 5 1 3 6 7 6 1 3 3 4 7 11 13 15 16 15 16 19 21 23 25 26 28 30 32 34 37 39 41
16 17 12 14 13 13 16 20 15 22 29 32 30 34 38 34 31 25 23 23 15 10 7 6 11 10 10 9 7 7 6 5 2 2 4 7 10 12 16 18 21 23 26 28 30 32 35 38 41 43 45 47 49 50
10 11 16 16 15 21 21 19 20 24 29 33 33 35 33 29 27 24 20 15 12 12 11 9 7 5 4 2 4 6 7 8 10 11 13 16 19 21 24 26 29 32 34 37 39 42 45 47 48 50 52 53 54 55
23 21 18 21 25 21 24 28 28 27 27 28 28 26 24 24 21 21 18 15 9 6 4 1 3 5 7 10 12 13 15 17 19 21 24 26 28 31 33 36 40 42 45 47 48 49 49 50 51 52 53 54 54 54
22 23 23 25 27 26 27 27 26 23 24 25 25 23 23 19 15 14 11 5 0 3 6 9 12 15 17 19 20 21 24 26 29 30 32 35 39 43 47 49 50 50 49 48 48 47 47 47 47 46 44 42 39 36
22 20 22 25 22 22 23 21 18 15 15 16 15 13 13 10 7 5 3 5 8 11 14 16 17 18 19 22 25 29 33 37 41 46 50 53 53 50 46 44 42 40 38 36 33 30 28 27 26 26 26 27 28 27
18 19 21 19 17 18 16 14 12 10 9 9 8 6 4 3 4 6 9 12 14 16 17 18 20 25 29 32 37 44 48 53 58 57 52 46 41 38 36 33 31 28 25 23 23 23 23 24 25 23 19 18 20 23
16 19 21 18 15 13 10 10 8 6 5 5 5 6 9 11 13 15 17 18 20 20 22 26 31 35 38 44 50 55 59 54 47 43 39 36 34 32 29 26 24 22 22 22 23 22 18 13 12 15 17 19 22 24
19 19 17 14 11 8 6 4 3 4 6 7 10 12 15 18 19 21 23 24 24 26 30 35 39 43 48 54 58 54 46 41 38 34 31 29 27 25 23 21 20 20 18 13 8 8 10 12 15 17 20 23 25 26
16 14 11 8 6 3 1 3 6 8 10 13 15 18 21 23 24 26 26 27 29 32 36 40 43 50 56 58 49 39 34 31 27 21 17 16 15 14 13 11 8 5 4 5 8 10 13 15 18 21 23 25 27 29
16 11 7 5 3 3 6 8 11 13 16 18 20 23 26 27 28 28 29 32 34 37 40 43 49 54 57 45 33 26 24 21 17 13 9 7 5 2 2 1 1 3 6 9 11 14 16 18 21 23 26 28 29 31
16 11 8 7 7 9 11 14 16 19 21 23 25 27 29 30 30 31 34 35 38 41 44 47 52 56 45 33 24 22 21 17 13 9 6 4 3 2 1 2 4 7 9 11 13 15 18 21 24 26 29 31 33 34
15 12 11 11 12 14 17 18 21 23 25 27 29 31 32 32 33 36 37 39 41 44 46 49 51 48 36 27 22 20 18 16 11 6 4 4 4 4 5 6 8 10 13 15 18 19 21 24 27 30 33 34 35 36
17 15 15 15 17 19 21 23 25 26 28 31 32 34 33 35 37 39 41 42 44 46 48 50 47 38 31 25 19 19 18 15 11 9 9 8 9 10 10 12 14 17 19 21 23 24 26 28 31 34 36 37 38 39
17 16 18 19 22 24 25 26 27 30 32 33 34 34 35 38 40 42 43 44 46 48 50 47 40 32 28 23 19 18 18 15 13 13 13 13 13 14 16 17 19 21 23 25 26 27 29 31 34 37 38 39 41 43

GFSWCAN_500_spd_066.txt.gz
Wind_Speed
15 14 14 16 18 22 32 46 49 44 40 38 36 35 36 37 39 39 38 45 46 40 39 37 38 38 36 32 29 29 28 29 33 34 36 38 37 35 35 35 35 35 34 33 33 32 26 31 33 35 35 42 46 33
19 16 17 19 21 22 20 20 35 50 48 47 44 43 41 42 43 46 47 46 46 46 45 40 41 40 40 36 35 35 30 28 36 38 39 38 38 39 38 38 39 40 39 40 40 36 34 35 38 38 35 33 49 39
15 19 21 21 22 22 22 21 18 27 36 40 45 48 45 45 47 48 49 49 49 49 47 47 44 44 43 40 40 38 35 31 37 41 42 42 41 41 40 39 39 40 44 45 45 38 41 41 39 41 39 37 34 49
16 18 23 27 27 26 24 23 23 24 27 36 39 39 42 44 42 44 48 48 48 49 51 51 47 46 44 46 45 42 38 36 37 44 47 45 44 44 43 42 43 42 44 45 46 45 48 44 40 43 36 32 36 49
15 16 17 19 17 18 19 20 22 23 24 29 35 40 42 44 46 43 42 43 43 41 41 40 35 33 32 34 35 35 33 32 35 41 45 47 46 43 41 43 45 43 46 47 49 49 50 47 43 42 35 32 29 36
15 15 20 22 23 19 21 23 24 25 26 28 29 33 37 34 34 40 46 47 47 46 46 45 42 40 35 35 33 31 32 26 30 33 43 42 39 36 39 39 41 39 34 40 35 37 37 37 35 37 35 31 28 31
11 15 17 19 19 17 11 12 15 17 24 27 26 26 29 33 34 33 31 30 32 35 37 36 36 38 38 42 43 42 38 39 39 39 40 38 33 40 39 34 31 34 37 34 34 31 34 33 31 36 33 30 29 32
13 15 19 20 14 14 9 3 8 16 25 29 28 24 25 29 29 27 23 29 32 28 27 27 27 31 33 36 41 43 40 40 44 44 42 39 37 42 42 36 32 37 21 30 31 32 32 35 30 33 33 35 34 35
15 20 26 27 23 27 22 24 22 25 32 36 32 31 31 30 29 30 29 28 28 30 27 22 16 23 21 24 37 32 32 30 31 33 34 34 35 38 32 33 34 31 26 23 29 31 34 32 26 23 28 31 33 35
17 20 25 33 38 33 35 34 32 36 37 37 35 32 31 31 33 35 29 31 34 35 15 12 18 19 14 16 28 32 32 28 28 28 33 38 33 30 32 31 31 27 22 20 29 31 37 30 30 30 18 20 25 33
20 17 20 26 26 32 37 32 35 37 39 37 34 36 37 36 34 24 25 33 33 12 15 27 24 21 21 19 15 17 18 16 19 22 26 33 33 32 31 32 28 34 32 30 24 28 32 32 30 31 27 27 29 35
21 19 19 22 23 32 35 34 33 32 28 30 27 29 31 31 32 24 28 23 23 22 24 22 19 17 19 18 14 15 16 18 21 23 26 28 27 28 35 37 36 33 33 30 32 29 32 34 35 36 37 36 36 38
14 16 19 20 21 25 27 28 30 30 28 31 27 28 28 33 29 26 22 20 19 23 22 19 15 17 19 16 12 14 14 16 20 20 24 25 28 25 28 33 36 34 30 28 31 27 25 36 33 33 31 32 30 35
11 11 12 15 18 19 20 21 23 25 26 24 22 24 22 19 17 15 15 14 16 16 20 14 17 15 16 18 18 18 17 20 24 22 17 16 17 20 23 27 29 31 29 28 29 29 30 31 27 27 33 37 41 40
8 9 10 10 10 11 12 15 18 17 18 18 19 19 18 18 18 18 19 18 18 18 17 16 13 11 12 15 18 14 17 15 7 6 6 8 12 16 22 26 32 34 33 30 30 30 31 31 31 32 30 30 32 32
11 11 12 13 11 9 10 11 12 11 10 9 9 10 13 16 16 17 17 17 17 16 15 14 12 13 12 13 15 11 10 11 10 11 12 14 13 18 20 23 21 20 21 21 20 21 25 30 34 35 36 36 38 37
13 11 9 9 8 9 10 10 10 10 10 9 9 12 13 16 18 17 15 15 15 17 16 15 11 8 6 8 7 10 16 18 12 12 12 12 16 19 20 24 24 28 22 21 21 24 28 28 28 28 29 30 29 28
11 8 6 4 5 5 5 6 8 10 12 11 14 13 17 20 19 19 22 26 25 21 15 10 11 8 8 6 5 6 3 4 4 10 12 13 14 18 21 24 24 25 26 23 23 21 23 26 27 26 27 28 30 31
12 12 11 13 13 12 11 9 10 16 19 21 20 24 25 27 31 28 24 19 14 11 11 8 5 3 2 2 1 4 4 1 3 4 6 8 13 16 20 23 22 20 20 21 22 24 27 30 32 33 33 35 36 38
12 10 13 13 15 18 20 15 19 27 30 30 31 32 32 29 25 19 16 19 15 12 8 7 7 8 7 4 3 1 1 1 0 2 5 8 11 14 16 19 22 25 27 30 32 34 36 38 40 41 42 44 47 49
11 11 14 19 20 21 22 27 33 34 35 35 34 29 24 19 19 23 16 13 9 8 7 7 6 4 3 4 5 6 7 8 10 12 14 17 20 23 26 29 31 33 34 36 38 40 42 45 46 48 49 51 52 54
12 14 20 24 26 23 28 29 31 32 31 29 25 23 23 23 21 20 16 14 8 5 4 3 5 7 8 10 12 13 15 17 19 21 23 26 28 31 34 37 40 43 45 48 50 51 52 53 52 52 53 52 53 53
18 23 26 33 28 29 29 29 27 26 29 27 25 23 21 21 20 15 10 6 1 4 6 8 11 12 14 15 18 21 23 26 29 33 36 41 46 49 51 51 51 50 50 50 50 49 49 49 48 46 43 39 36 33
25 26 27 29 25 26 24 22 21 20 20 19 17 13 12 9 6 5 3 5 9 12 15 17 18 20 22 24 27 30 33 38 43 50 53 53 50 46 44 43 42 41 41 39 38 36 33 31 28 26 25 25 25 23
26 26 27 24 22 20 17 16 14 11 11 10 8 7 6 5 7 8 11 14 16 18 19 19 19 22 27 31 36 42 47 53 57 54 49 45 43 41 40 38 36 34 31 28 25 23 22 23 23 22 18 15 16 18
23 22 22 19 16 13 11 11 9 8 6 5 4 5 8 10 13 15 17 19 20 20 21 24 27 31 35 40 45 51 55 55 47 39 37 37 36 34 31 28 26 24 22 20 19 19 18 15 12 12 14 17 19 21
21 19 17 15 12 10 8 6 5 5 6 7 9 12 16 18 21 23 25 26 25 26 27 30 33 36 41 45 50 55 53 42 33 31 31 30 26 22 18 16 14 13 12 12 9 7 7 9 12 14 17 19 22 24
16 14 12 9 7 5 3 2 4 6 9 12 15 18 21 24 26 29 30 30 29 30 32 35 38 41 44 48 53 51 41 30 27 26 25 21 16 13 10 7 5 2 1 2 4 7 10 12 14 16 18 21 24 27
15 12 9 7 5 2 2 5 8 11 14 16 19 21 25 28 30 30 30 30 32 34 36 39 41 44 47 51 50 41 31 25 23 21 17 12 8 5 4 3 2 2 4 6 8 9 11 13 15 18 21 24 27 30
16 13 10 7 5 5 7 10 13 16 18 21 23 25 29 31 31 31 31 33 36 39 41 42 44 46 52 51 44 34 26 21 20 18 14 9 7 6 5 5 6 7 8 10 12 15 17 20 22 24 26 28 31 34
18 16 13 10 10 11 12 15 18 20 23 25 27 29 33 33 33 33 34 37 40 43 44 45 47 52 51 45 36 29 24 21 19 18 14 12 12 11 11 11 12 13 14 16 19 21 22 24 26 27 29 31 34 37
22 20 17 15 15 15 18 19 22 24 27 29 31 35 35 34 33 35 38 41 43 44 46 49 53 50 44 36 29 25 22 20 19 18 16 15 15 15 16 17 18 19 20 21 23 24 25 27 28 29 30 33 37 38
25 22 20 20 20 20 22 24 26 27 29 32 35 35 34 35 35 39 42 43 45 47 50 52 49 43 35 29 25 23 20 19 18 18 17 17 18 19 20 20 22 23 24 25 25 27 28 29 30 30 33 36 37 39

GFSWCAN_500_spd_069.txt.gz
Wind_Speed
21 20 17 15 14 16 17 16 18 24 36 38 34 30 28 26 23 18 15 20 29 29 28 33 27 20 19 21 20 21 21 23 27 27 27 28 28 29 29 28 28 27 27 25 23 20 16 21 25 27 24 21 27 30
18 18 16 17 19 21 22 23 23 22 23 37 41 36 33 30 29 27 18 17 21 29 32 30 26 23 22 23 25 24 20 22 28 27 26 28 29 29 31 31 30 30 29 29 27 24 24 25 30 34 31 26 30 31
12 12 16 21 23 26 29 28 25 24 22 22 44 43 39 37 33 34 29 24 30 30 31 27 21 20 22 25 27 26 24 22 28 28 26 28 31 32 34 34 33 33 33 33 31 30 31 32 37 38 36 35 34 34
14 18 21 23 21 22 19 22 27 27 24 19 31 37 41 42 40 39 37 34 34 31 31 27 26 24 26 29 29 29 27 25 27 30 29 28 30 31 33 33 33 34 36 36 36 36 36 37 42 42 42 41 40 40
19 23 26 24 25 23 23 22 19 18 21 23 28 28 34 38 41 40 42 43 41 41 40 36 35 33 32 32 32 30 30 30 29 27 31 32 29 31 32 33 33 34 35 37 40 41 42 42 45 46 47 47 47 45
21 21 21 24 25 24 23 23 24 22 22 21 26 26 27 30 35 39 41 45 45 43 42 42 38 36 36 34 34 30 26 24 23 26 30 33 31 32 34 35 35 36 36 39 42 43 43 44 47 47 48 47 45 40
13 20 26 22 17 17 19 17 17 25 24 24 24 27 26 26 29 31 33 34 36 36 36 33 31 29 27 30 28 23 18 16 14 14 17 22 27 30 38 37 32 31 35 37 41 40 42 43 41 39 39 38 37 37
18 28 20 18 17 16 5 7 13 21 27 22 23 26 29 25 24 23 26 28 29 32 32 31 29 28 26 26 27 24 22 26 26 27 27 21 26 25 31 36 35 35 35 35 34 36 35 32 34 33 33 35 35 36
18 25 24 24 27 24 14 15 18 25 32 25 26 27 31 30 21 24 23 23 23 25 25 24 18 15 18 18 19 21 23 25 28 31 35 37 38 41 38 37 37 38 39 38 38 38 35 30 33 33 34 34 35 33
12 18 26 36 27 26 28 29 29 33 40 26 31 28 35 38 35 26 21 23 21 20 19 18 17 10 10 11 11 17 22 20 18 22 23 26 29 30 30 31 27 28 33 33 32 28 32 34 33 31 33 32 26 31
10 18 22 27 28 30 33 31 31 32 27 26 26 26 30 32 33 29 26 25 24 24 22 18 17 16 16 12 11 16 25 25 22 23 27 29 28 27 30 34 31 27 29 27 28 31 30 22 25 26 28 34 32 29
14 22 23 23 27 32 35 34 34 32 31 30 30 33 33 29 24 19 23 27 30 21 27 22 20 22 16 18 10 14 23 23 24 21 20 19 16 16 20 25 28 30 29 30 25 25 28 25 26 27 29 31 32 32
13 17 21 24 23 21 26 28 32 37 34 35 39 31 24 16 21 26 30 24 16 24 26 22 18 19 18 19 14 14 16 21 20 20 21 22 21 21 21 25 28 30 32 32 29 28 29 29 25 25 23 29 28 28
14 14 14 14 14 19 24 30 25 21 24 25 25 26 25 27 26 22 20 18 23 22 20 17 16 17 18 17 17 17 18 16 20 22 23 22 22 21 21 22 23 20 21 24 28 32 33 30 27 28 26 27 31 28
10 12 13 12 12 14 20 21 21 22 17 18 21 20 17 18 19 17 18 18 19 18 18 12 13 15 15 18 18 18 20 22 19 18 17 15 16 17 19 21 21 20 23 27 31 32 35 35 35 34 31 33 35 36
8 10 11 12 11 11 14 17 17 15 14 14 12 13 16 17 16 16 19 19 18 17 14 13 13 11 10 10 11 13 20 20 20 16 13 13 14 15 16 17 18 21 25 26 27 27 28 29 33 36 35 35 36 38
6 7 8 9 11 12 12 12 12 12 12 11 12 13 14 13 14 15 14 14 14 13 12 10 7 6 6 8 13 14 17 18 19 17 16 17 16 18 20 19 19 21 23 23 23 26 30 32 29 31 30 30 30 31
3 4 7 7 8 10 11 12 12 10 10 10 11 14 14 14 14 13 12 12 10 11 11 9 6 4 8 14 14 14 15 14 12 8 12 16 16 16 16 17 19 21 20 21 26 30 31 32 31 31 31 32 32 32
9 8 10 10 9 10 12 16 18 16 16 16 15 15 17 16 14 12 13 15 14 12 7 5 5 6 9 9 8 4 3 4 4 4 7 13 17 19 20 21 22 24 26 27 28 29 31 32 33 34 34 35 36 38
13 12 13 11 9 14 16 17 19 20 19 17 21 20 19 21 21 18 14 11 11 8 5 4 4 6 6 6 6 6 7 8 8 8 8 9 11 13 16 19 22 25 28 30 32 34 36 38 39 40 41 42 43 44
14 16 17 18 21 25 28 27 27 29 29 28 32 26 24 19 14 15 14 9 5 4 3 2 3 5 6 8 11 13 14 15 15 15 17 18 21 23 26 29 32 34 37 40 42 44 45 47 48 49 50 52 52 53
16 18 28 30 30 32 35 36 37 35 31 29 23 19 17 18 20 15 11 8 4 1 2 6 9 11 14 15 16 17 18 19 20 23 25 28 32 35 38 42 45 46 48 49 50 50 51 52 52 51 51 50 50 49
21 29 31 26 26 30 30 30 27 25 23 18 17 19 20 16 12 8 6 2 3 6 9 11 14 15 16 17 19 22 26 29 32 36 39 43 46 46 45 45 45 45 46 47 47 48 47 46 44 42 40 37 33 30
26 33 26 25 26 28 26 25 22 21 21 19 16 13 11 8 4 5 7 9 11 14 16 18 20 21 23 25 27 30 34 38 42 46 49 49 46 43 41 39 38 38 38 37 37 36 34 31 28 26 24 22 23 23
25 27 27 24 22 21 20 19 17 15 14 13 10 8 7 8 11 12 14 15 17 19 20 20 21 24 27 30 33 37 40 44 49 50 47 41 36 34 34 33 31 29 27 26 24 22 21 19 18 18 18 16 14 15
22 24 23 20 18 15 14 14 12 11 10 9 8 8 9 10 12 15 17 20 22 24 25 26 27 29 32 35 38 42 44 49 48 44 38 33 30 30 28 25 21 18 16 14 13 13 13 13 11 9 9 11 14 16
22 21 19 17 13 11 9 8 7 6 5 6 8 10 13 16 19 22 26 27 27 28 29 29 32 35 37 39 41 44 49 48 44 37 31 27 25 25 21 17 13 10 9 7 6 4 3 5 7 9 12 14 16 18
19 17 15 12 9 7 6 4 3 5 7 9 11 14 17 20 23 28 30 30 31 31 31 33 36 38 40 43 46 50 49 45 37 30 25 23 21 16 12 8 5 4 3 3 3 5 7 9 11 13 15 17 19 22
16 13 10 9 7 5 2 2 5 7 10 12 16 19 21 24 27 32 33 32 32 33 34 38 40 42 46 49 51 49 45 37 29 24 21 20 20 16 12 8 7 6 6 7 8 9 11 13 16 19 21 23 26 28
14 12 10 7 5 4 5 7 9 13 16 17 20 24 26 28 32 35 35 35 35 36 39 41 44 48 51 51 49 44 37 30 24 21 19 19 18 16 15 13 12 12 12 13 14 16 18 20 22 23 25 27 29 30
15 14 13 11 9 9 10 13 14 17 20 22 25 28 30 33 36 36 36 36 37 40 43 45 50 52 50 48 42 36 30 25 22 19 18 18 18 17 17 17 17 17 18 19 20 22 23 25 26 27 29 30 32 33
18 18 18 16 16 15 15 16 18 22 25 27 29 31 35 37 36 37 38 38 40 43 46 50 52 50 46 39 32 29 27 24 22 20 19 19 19 18 18 19 20 21 22 23 24 25 26 27 29 30 32 33 33 33
23 24 24 22 19 19 18 21 25 27 29 30 32 36 38 37 37 38 39 41 44 46 51 52 50 45 37 31 28 27 26 24 22 21 20 19 19 19 20 21 22 23 25 26 27 28 29 30 31 32 33 33 33 34

GFSWCAN_500_spd_072.txt.gz
Wind_Speed
19 19 16 15 15 12 12 12 12 12 12 18 29 33 32 28 26 22 11 16 23 24 26 27 30 31 32 35 32 25 19 15 20 24 24 25 24 26 24 24 22 22 23 24 22 20 20 18 18 17 18 17 18 18
18 16 15 15 16 17 17 18 18 20 19 18 19 29 35 31 28 25 16 13 16 24 24 27 29 35 36 32 20 19 17 15 19 23 24 25 26 26 26 26 25 23 23 21 22 22 23 22 21 20 20 21 23 23
14 12 13 16 18 21 23 24 25 26 26 25 22 21 35 35 31 26 18 17 14 17 24 30 34 40 32 21 14 14 14 14 20 26 28 28 29 26 26 25 26 26 25 24 24 24 25 27 27 26 27 26 27 28
12 15 19 22 24 25 26 24 21 18 28 30 27 23 31 39 35 29 21 17 13 20 28 35 37 27 21 18 15 13 13 14 18 25 27 26 25 24 25 26 26 28 27 26 27 28 29 30 31 31 32 33 34 35
16 20 24 25 25 26 27 27 25 22 17 26 26 23 25 39 39 34 27 24 20 23 28 30 25 21 18 15 15 15 17 16 19 24 27 26 24 21 22 25 26 26 27 28 29 30 31 32 33 34 36 39 40 39
17 18 26 24 21 21 27 28 27 27 23 19 23 22 26 33 39 39 35 32 30 28 26 27 24 22 18 17 18 17 17 20 20 21 23 25 24 25 23 21 26 26 28 29 30 31 33 35 37 38 40 41 43 47
13 21 20 18 19 20 17 20 27 28 27 24 21 24 20 26 33 39 39 31 31 32 30 27 25 24 23 22 22 24 24 23 22 24 26 28 28 26 26 26 25 26 27 29 31 33 36 37 38 38 41 42 44 45
16 20 22 22 23 15 9 15 22 21 26 27 26 27 23 21 26 31 32 33 32 33 33 31 29 24 22 21 22 24 23 20 19 19 21 22 21 23 28 27 26 26 28 31 32 36 38 38 37 37 40 40 39 37
18 20 23 23 17 9 10 19 22 25 26 27 29 31 25 23 23 23 22 25 26 28 30 30 24 22 22 20 19 21 21 19 19 20 19 19 22 26 25 23 26 28 27 29 33 36 37 36 38 38 37 36 36 38
16 19 21 27 25 18 22 29 35 27 25 27 29 30 29 27 23 24 23 24 24 22 21 21 21 17 17 18 18 18 21 21 22 26 26 30 29 31 34 35 37 39 40 37 36 38 38 41 42 37 38 38 37 37
13 18 22 26 29 27 33 34 31 25 25 33 35 32 30 25 27 23 25 26 25 23 21 20 21 18 16 15 15 16 21 22 26 27 30 27 23 20 23 26 30 33 35 36 35 34 36 36 28 31 26 27 27 32
14 15 20 23 27 27 27 27 26 25 27 32 38 35 28 25 25 21 19 22 23 24 22 23 22 20 17 17 17 14 23 21 22 19 19 19 18 22 21 23 27 30 35 39 38 32 31 31 29 25 29 27 28 29
14 15 21 21 25 27 25 27 25 24 23 25 28 27 21 22 21 19 19 23 24 23 22 22 23 22 21 13 10 10 15 20 18 21 22 19 18 20 22 22 26 26 27 26 29 32 30 30 30 26 27 28 27 28
13 9 14 16 18 25 27 27 29 29 29 32 35 20 14 15 16 19 21 24 20 23 21 19 21 19 20 18 18 13 13 17 20 19 17 20 20 20 22 24 25 26 24 23 25 28 32 34 31 32 32 30 31 29
13 11 11 15 16 20 24 26 27 25 20 19 17 19 20 20 23 22 21 23 26 25 18 15 16 17 16 17 16 14 15 16 18 19 20 20 20 22 24 26 26 25 27 28 29 30 30 32 32 31 32 35 37 38
13 12 11 14 17 17 19 19 20 19 19 21 20 20 21 22 21 24 25 22 21 19 16 12 13 14 12 14 14 15 16 16 19 22 22 23 22 20 19 19 21 24 24 24 24 26 28 29 31 34 33 32 34 35
11 13 14 14 15 17 14 13 15 16 13 13 15 17 18 18 17 18 18 17 16 13 11 12 12 11 9 9 8 12 17 20 21 22 25 26 22 21 19 20 21 21 22 22 24 26 28 29 31 32 33 33 33 33
9 10 11 11 15 18 18 15 13 13 14 15 16 15 15 15 15 16 16 15 14 12 9 8 8 6 5 8 14 16 17 15 13 12 12 13 17 18 18 19 21 22 24 27 28 28 28 28 30 32 32 33 34 35
13 13 14 13 14 15 16 15 16 16 15 14 14 15 16 17 15 14 12 11 11 11 8 5 3 6 9 12 8 8 11 12 13 12 11 10 11 15 18 21 23 24 25 26 27 28 30 32 33 34 35 36 37 39
14 16 16 17 19 21 21 20 21 19 18 16 16 16 15 14 15 16 14 11 6 2 1 2 5 6 6 8 10 13 15 17 18 19 19 19 20 20 21 23 25 27 29 31 33 35 37 39 40 42 43 44 45 46
10 14 18 21 20 21 24 24 22 20 20 21 20 22 21 18 14 10 9 7 3 3 3 5 6 8 10 13 16 18 19 20 20 20 20 21 23 25 27 30 33 37 40 42 44 46 47 49 49 50 51 51 51 51
21 24 27 29 27 27 29 29 30 29 27 26 23 20 16 13 15 9 4 2 4 4 5 7 10 12 15 16 17 19 20 21 24 26 28 31 33 36 38 40 41 43 45 48 50 52 52 53 52 52 52 51 50 48
33 35 36 36 35 37 38 39 34 28 23 18 14 12 13 13 8 3 2 2 4 6 7 9 11 14 16 18 20 23 25 28 31 34 37 40 44 44 44 43 42 40 39 39 41 42 43 44 44 43 40 37 33 30
37 33 32 33 33 33 31 28 22 16 13 15 15 14 11 8 4 2 4 7 9 11 13 14 15 16 19 21 24 26 30 33 36 41 44 47 46 43 41 38 36 35 35 35 35 35 34 32 30 28 26 24 23 21
35 31 30 26 25 24 24 22 20 17 17 16 13 10 7 5 6 9 11 12 13 14 15 17 18 20 22 26 29 32 35 41 44 45 47 46 42 37 33 31 31 29 26 24 22 21 19 18 17 17 16 16 16 14
30 28 25 23 21 19 18 18 17 15 12 10 8 6 6 8 10 12 15 18 20 21 22 23 24 26 30 33 36 39 44 47 48 47 45 40 35 29 26 25 24 21 18 16 14 12 11 11 11 10 9 9 11 14
25 25 22 20 17 16 14 13 11 8 7 7 7 7 9 12 14 18 22 25 25 27 28 29 29 32 35 39 43 48 49 48 47 44 39 32 27 22 20 19 17 13 11 8 7 5 4 4 6 8 10 12 14 16
20 19 18 16 14 12 10 6 4 4 5 6 8 10 14 17 19 22 26 29 29 30 32 32 35 38 42 45 51 51 49 47 42 37 31 25 21 19 18 17 16 13 10 8 8 8 8 9 10 11 13 16 18 21
18 15 14 13 10 8 4 1 2 4 7 9 13 16 18 21 24 27 31 32 33 34 35 37 39 43 47 52 51 49 45 39 34 30 26 23 20 18 17 16 14 14 13 13 13 13 14 14 16 17 20 22 23 25
16 13 12 9 8 5 3 4 6 9 12 15 18 21 24 26 28 32 35 36 37 37 38 40 44 47 54 52 49 44 37 31 28 26 24 22 19 19 18 19 18 17 17 18 18 19 20 21 22 24 25 26 28 29
17 14 13 11 10 8 8 9 11 13 15 18 23 26 29 30 33 36 38 38 38 39 41 45 48 54 52 50 45 38 31 29 27 26 24 22 20 19 18 18 19 20 21 22 23 24 25 26 27 28 29 31 32 33
19 17 16 14 14 14 14 15 17 18 20 23 26 30 33 34 37 40 40 40 41 42 46 48 54 53 50 46 39 34 32 30 28 27 25 24 22 21 21 20 20 20 21 23 24 26 27 28 29 30 32 33 34 35
22 22 21 21 19 18 19 20 21 22 25 27 30 34 36 37 40 41 41 41 43 46 48 54 52 50 46 39 35 33 30 28 26 25 24 24 22 22 21 21 21 21 21 22 24 25 27 28 29 31 32 32 33 33

GFSWCAN_500_spd_075.txt.gz
Wind_Speed
25 25 21 19 17 16 13 11 10 10 11 15 22 26 26 26 24 21 18 16 13 9 17 23 25 26 29 33 26 28 32 29 21 22 23 22 24 23 24 20 22 21 23 24 26 27 28 20 20 20 22 18 20 20
25 21 19 18 17 17 18 17 15 14 14 13 11 13 25 29 27 24 20 15 13 13 19 24 26 29 32 34 28 26 33 23 18 22 21 22 21 24 22 23 24 21 21 21 22 24 23 22 26 22 18 20 21 21
21 18 16 15 16 17 18 20 21 21 20 20 19 16 14 20 31 27 21 17 16 10 21 25 26 29 34 35 32 23 26 17 17 20 20 21 21 21 21 25 24 23 15 24 19 24 15 24 26 25 24 23 24 25
16 15 16 18 20 22 24 25 26 27 26 26 25 23 20 17 26 29 22 17 19 11 19 23 30 31 35 39 26 23 18 21 19 22 22 20 21 21 18 22 25 26 28 28 31 30 31 32 30 26 25 27 27 28
13 16 19 18 21 25 28 29 29 28 27 24 20 27 28 24 21 30 24 19 20 17 19 28 29 30 32 31 26 20 15 18 22 21 25 23 18 15 18 19 19 26 29 31 29 28 27 29 28 28 29 30 30 30
15 14 17 23 26 24 25 31 32 29 30 27 23 25 28 28 23 34 29 24 20 22 23 25 28 33 38 30 22 20 17 19 22 20 18 15 15 16 15 16 18 26 27 26 28 26 29 30 29 30 32 33 33 34
11 18 22 25 26 26 25 22 26 31 31 29 22 24 25 25 25 36 33 23 22 25 26 28 29 34 30 20 16 18 17 14 15 15 17 18 17 21 21 17 17 21 27 30 30 32 33 32 32 33 34 35 36 37
15 21 24 24 23 20 18 23 27 26 31 30 23 22 22 21 27 33 34 31 28 28 29 27 26 22 19 15 15 16 18 18 17 17 17 19 24 24 26 25 26 25 27 27 30 32 32 33 34 34 35 37 38 39
16 20 19 22 12 4 3 16 21 28 28 28 25 23 20 22 29 32 34 31 29 28 30 27 26 21 19 17 16 18 19 19 19 18 19 23 25 29 28 23 22 23 26 28 30 33 34 36 38 38 39 39 39 40
12 15 19 14 13 16 19 23 24 30 28 33 31 25 20 24 28 26 31 31 31 28 26 22 15 16 17 18 18 16 16 18 19 20 20 21 20 20 21 23 25 26 27 29 32 35 35 38 40 41 41 42 42 42
10 15 18 23 25 31 28 25 25 27 32 35 30 26 22 24 21 24 28 32 32 29 27 21 21 18 17 18 19 18 18 20 21 22 24 26 24 27 28 30 31 33 36 39 41 45 47 48 49 48 44 41 38 34
8 15 19 27 25 25 21 20 24 27 27 30 27 27 29 22 19 28 30 31 28 25 25 22 21 19 18 17 18 19 21 22 24 25 28 30 30 30 27 26 28 32 35 38 39 40 42 45 43 41 36 33 34 33
13 12 14 14 22 23 24 26 27 27 30 33 32 29 26 23 22 23 26 26 25 23 22 21 21 21 20 20 21 21 22 24 24 26 27 25 20 20 22 22 24 27 28 31 33 35 34 33 33 35 36 38 34 34
10 11 13 19 19 19 23 23 23 32 34 33 26 21 23 23 19 17 17 19 21 23 24 25 26 22 19 16 16 14 11 11 15 14 10 12 16 18 23 26 26 27 27 30 33 35 35 38 36 36 36 37 37 39
11 12 13 19 22 22 21 26 30 29 26 19 13 17 18 19 19 19 21 24 25 26 19 20 21 21 22 15 14 13 13 12 12 14 17 20 23 25 24 21 22 25 28 28 29 33 34 34 35 35 37 40 41 40
13 15 14 16 18 20 24 26 29 21 20 18 20 18 18 20 23 23 23 20 21 22 19 18 20 16 17 17 13 14 15 15 18 20 22 24 26 27 27 29 29 27 27 27 26 27 28 29 30 32 35 37 38 38
14 15 17 16 18 19 18 19 20 20 20 19 18 18 19 20 24 23 23 25 21 19 18 16 16 16 14 12 13 15 15 18 22 24 27 29 30 31 31 31 29 26 26 27 28 29 30 30 32 33 34 34 35 35
18 17 18 18 16 16 16 16 16 17 18 18 18 17 17 19 21 20 18 17 16 13 11 9 11 10 10 9 10 14 14 9 11 13 14 13 13 13 18 22 25 27 29 30 30 31 32 33 34 33 33 33 33 34
18 17 17 19 19 17 16 16 16 17 18 19 18 18 17 17 17 16 14 13 12 11 8 7 5 5 7 8 6 6 10 13 16 19 21 23 22 19 18 19 20 22 24 26 28 29 30 31 32 33 34 36 37 38
20 19 18 20 21 19 17 15 15 15 16 17 17 17 18 17 15 13 12 11 10 7 4 2 1 1 2 6 9 13 17 20 23 25 25 24 24 25 27 29 31 32 34 35 36 38 39 40 41 43 44 45 46 48
19 20 21 21 22 21 20 19 19 18 18 19 19 18 16 16 17 15 11 9 7 7 5 4 4 6 9 12 15 18 19 19 20 21 23 25 27 29 32 34 36 39 42 43 44 46 48 50 51 52 53 53 53 53
20 20 22 24 24 23 22 20 19 18 20 20 21 20 17 16 14 11 8 7 5 3 2 4 7 9 11 13 15 18 20 23 25 28 30 33 37 41 43 44 46 47 46 45 45 45 46 47 48 48 48 48 48 47
26 26 26 29 30 29 28 26 25 24 23 21 17 14 15 12 7 6 4 1 2 2 3 5 7 10 12 15 18 21 23 26 30 33 38 43 44 45 47 49 49 47 45 42 39 38 39 39 40 41 41 41 39 36
34 31 32 34 37 34 31 27 24 20 16 13 14 15 11 8 5 2 0 2 5 6 7 9 11 14 16 19 22 25 29 32 37 43 46 47 48 49 49 47 44 40 36 34 34 34 33 32 31 29 27 25 23 22
39 36 37 35 34 30 25 20 17 16 16 16 15 11 8 6 3 2 5 7 8 9 12 15 17 19 21 25 28 33 36 40 47 48 49 48 48 46 42 37 33 29 28 29 28 25 23 22 20 18 16 15 15 15
34 31 29 25 22 19 19 22 21 17 14 12 10 7 4 2 3 7 10 14 17 18 19 21 22 24 27 30 35 39 43 49 50 49 48 45 40 36 31 27 23 22 22 21 19 17 15 14 13 12 11 10 9 10
31 29 26 24 21 19 17 16 14 11 9 8 6 4 5 8 11 14 17 22 24 25 26 27 28 30 32 37 41 46 51 51 50 47 42 36 31 27 24 21 20 20 19 16 13 10 9 8 8 9 9 11 12 14
26 24 22 20 19 17 13 9 7 6 5 4 4 7 9 13 16 20 23 26 30 31 31 32 33 35 39 43 47 53 52 50 46 40 33 29 27 24 22 19 19 19 18 17 15 14 14 14 14 15 15 16 17 19
21 19 17 16 14 11 8 6 3 2 2 5 8 11 15 18 22 25 26 30 34 35 35 36 37 40 44 49 54 53 51 47 40 35 31 29 27 25 22 20 19 19 19 19 19 19 19 19 19 20 21 22 24 25
18 16 13 12 10 8 5 3 3 5 8 11 13 16 19 22 25 29 31 33 37 38 38 39 41 45 49 55 54 52 47 41 37 33 30 28 27 25 23 22 20 20 20 20 21 22 23 23 24 25 26 27 29 30
16 15 14 12 10 9 8 7 9 11 13 15 18 20 23 25 29 32 34 37 39 40 40 42 46 49 55 54 52 47 41 37 32 30 28 27 25 24 24 22 21 20 20 20 21 21 23 24 26 27 29 30 32 33
18 16 15 14 13 13 13 14 15 16 19 21 22 24 26 29 33 36 38 39 41 41 42 45 49 54 55 52 47 41 36 32 29 28 27 26 25 24 23 22 21 20 19 19 20 21 22 23 25 26 28 30 31 32
21 21 20 20 18 17 18 19 20 22 24 25 26 27 30 35 35 38 40 41 41 42 45 48 54 54 51 47 41 36 31 29 28 27 26 25 24 23 22 21 20 19 19 19 20 20 21 22 23 25 26 27 29 31

GFSWCAN_500_spd_078.txt.gz
Wind_Speed
41 43 39 31 28 23 19 17 13 11 11 13 16 20 20 20 20 18 18 19 12 10 18 20 28 30 30 28 26 20 30 27 25 18 17 19 19 22 18 15 13 16 18 23 27 28 30 25 18 20 18 21 29 33
39 44 33 28 23 21 18 16 15 13 11 9 9 11 19 23 22 21 20 18 15 16 19 22 25 26 32 32 34 30 22 28 25 25 21 20 19 20 23 23 21 13 17 18 20 18 18 24 31 34 28 30 30 23
42 35 27 24 21 17 16 15 15 17 17 15 13 10 9 12 25 23 23 22 18 15 18 18 21 23 28 34 33 30 24 18 32 28 23 24 21 19 19 21 21 19 13 17 17 17 21 16 27 33 31 30 29 25
35 28 23 21 19 18 19 19 19 19 20 20 18 17 14 12 10 20 25 22 19 16 15 17 22 25 27 31 38 21 24 23 29 20 23 25 24 16 19 18 23 21 24 20 20 18 27 31 29 30 28 30 29 28
26 20 19 20 22 21 22 22 23 24 25 25 24 22 20 18 15 11 23 21 18 16 9 19 24 28 32 32 42 22 22 26 26 23 22 24 22 20 20 20 19 24 28 16 29 24 23 30 29 28 30 31 33 31
18 18 20 21 22 26 29 29 30 29 29 29 28 25 23 23 22 18 19 22 20 18 11 8 16 24 31 33 33 26 22 19 19 26 28 27 20 18 19 18 21 21 25 32 32 34 38 36 36 38 36 34 35 34
18 16 18 22 25 27 29 30 31 33 30 32 30 28 23 22 24 22 16 18 20 24 18 15 15 20 28 36 37 26 22 22 29 28 23 18 18 17 17 19 17 16 21 25 32 40 37 38 38 38 39 38 37 37
11 15 20 24 29 31 26 25 32 31 24 31 30 28 24 25 24 23 22 24 24 26 20 21 13 20 30 32 31 23 23 23 23 22 20 18 20 20 24 21 23 23 22 22 27 33 36 39 40 39 39 39 38 39
10 16 21 24 19 13 13 14 23 30 23 28 29 26 24 25 24 23 25 26 26 26 22 23 15 17 34 34 24 20 22 21 20 19 17 19 21 26 25 26 25 26 30 31 33 32 34 36 36 38 39 40 40 41
10 12 12 10 6 2 7 14 23 25 25 28 26 24 24 23 22 26 28 28 29 29 28 25 17 22 23 21 18 18 18 20 21 19 19 23 25 26 26 22 21 24 26 29 32 32 34 35 36 39 41 42 43 43
8 3 8 13 13 24 23 24 29 30 31 30 26 22 20 22 25 27 29 30 31 32 31 25 21 18 19 18 20 18 16 17 17 17 21 23 20 19 20 21 23 24 26 29 33 37 39 40 41 42 44 46 49 50
6 9 10 14 16 19 21 22 28 34 32 27 21 22 25 22 22 26 30 32 30 28 27 23 21 19 18 18 18 17 17 17 18 19 20 21 24 23 24 29 32 33 34 37 38 36 38 41 42 44 44 42 41 42
4 4 7 13 19 19 24 26 25 28 25 26 26 31 27 22 24 23 28 29 30 26 24 22 20 19 19 17 16 17 19 20 19 22 25 25 25 27 29 29 27 27 30 31 30 32 35 36 37 39 38 36 37 34
10 11 13 11 16 23 19 24 25 24 25 29 28 23 19 20 22 17 19 20 21 21 22 22 21 21 18 17 17 18 18 19 20 18 11 10 16 16 18 22 25 27 28 31 32 34 36 38 40 40 40 41 42 42
10 12 13 14 16 20 25 27 27 28 26 21 20 21 20 18 18 20 22 22 23 23 23 22 22 20 18 17 17 15 14 13 11 11 14 16 19 22 24 26 28 30 30 29 31 32 33 33 33 33 34 35 39 40
13 13 14 18 23 23 27 34 31 20 16 11 14 18 15 14 14 14 18 22 24 23 23 22 22 19 17 17 14 12 14 13 16 17 19 23 26 29 30 31 32 33 34 37 38 37 36 35 34 33 34 35 35 35
14 14 15 21 25 28 26 24 25 15 14 13 14 18 19 18 16 16 18 19 19 18 15 16 16 17 16 17 15 16 16 16 17 22 22 17 17 18 22 27 32 35 35 35 36 35 35 35 36 36 37 37 37 37
18 17 14 17 23 25 21 17 19 22 20 16 19 20 23 22 19 17 19 20 20 17 15 13 12 10 11 11 14 14 16 21 17 14 17 19 19 20 21 20 20 20 23 26 28 31 33 34 35 36 36 36 36 35
17 17 17 16 17 18 17 17 17 16 16 15 15 17 20 21 20 20 18 16 15 13 11 10 9 9 9 10 13 14 12 13 15 17 22 25 27 28 29 29 30 30 32 33 33 34 35 37 38 39 40 40 40 41
19 20 18 18 17 17 17 16 16 16 16 16 17 16 16 16 16 15 14 13 12 11 11 8 8 8 8 8 9 10 14 18 22 24 25 26 26 28 29 31 32 34 37 39 42 43 44 46 47 47 47 47 48 49
21 22 22 20 17 14 12 12 14 14 15 15 15 17 17 16 16 17 16 13 10 8 8 7 6 5 6 10 13 16 17 19 21 23 26 29 31 33 38 42 44 44 45 46 47 48 49 49 48 47 48 49 50 50
22 21 21 21 20 18 17 17 17 17 18 18 19 20 21 19 17 14 13 11 8 5 3 3 6 8 9 11 14 17 20 23 25 29 32 34 39 45 47 48 49 50 51 52 51 50 48 46 44 42 42 42 42 43
24 24 24 24 23 21 19 19 20 21 22 23 22 21 18 15 13 11 7 3 1 1 3 3 5 8 11 14 17 20 23 26 30 34 37 44 47 48 49 50 51 52 51 49 46 42 39 36 35 36 36 36 36 35
28 28 27 25 24 22 22 22 24 23 21 18 20 17 13 10 7 4 2 0 1 3 5 7 9 12 15 17 21 24 28 33 36 41 46 48 48 49 50 50 48 45 41 37 33 30 29 31 30 28 26 25 23 22
29 29 28 27 26 26 25 23 21 18 17 18 15 11 8 5 3 2 2 4 7 10 12 14 16 18 21 24 26 30 36 38 44 48 49 49 49 48 45 40 37 34 30 26 24 24 25 24 22 20 18 17 16 15
30 32 30 29 27 24 21 18 19 19 17 13 10 8 5 4 2 3 7 10 14 18 22 23 24 26 27 29 32 37 40 45 48 48 48 48 45 39 34 32 30 28 24 22 22 22 20 17 15 14 13 12 10 10
31 31 29 24 18 17 19 18 17 16 14 11 9 7 5 3 6 10 14 18 22 25 27 29 30 31 32 33 38 41 47 49 49 49 48 42 37 34 31 29 28 26 24 22 22 21 20 18 16 14 14 14 14 15
28 25 23 22 21 19 16 14 13 13 11 9 5 3 4 8 11 17 20 23 26 29 31 33 34 35 36 38 42 48 50 50 50 47 42 37 33 31 29 28 26 25 24 22 22 21 20 20 20 19 19 19 20 21
26 24 23 21 19 17 15 12 10 7 5 3 3 6 9 14 17 20 24 26 30 32 35 37 37 38 39 43 48 50 50 50 46 41 36 32 30 29 28 26 25 24 23 22 21 21 21 22 23 23 24 24 25 27
20 18 17 16 14 11 9 6 4 1 3 6 10 13 16 19 22 25 27 30 33 35 38 39 39 40 43 48 50 50 50 47 41 36 32 30 29 28 27 26 24 23 21 21 21 21 21 21 22 23 24 26 27 29
18 16 15 13 10 8 6 5 5 8 10 12 15 18 21 23 26 28 31 35 36 38 40 41 41 43 47 50 51 51 47 42 36 32 30 29 28 27 26 25 24 22 21 20 19 18 19 20 20 22 23 25 26 28
17 15 14 11 10 10 11 11 12 14 16 18 20 23 25 28 29 32 36 37 38 41 42 42 43 46 50 50 50 48 42 36 32 30 28 28 27 26 25 24 23 22 20 20 19 19 18 19 20 21 23 24 25 27
19 18 17 17 15 15 15 17 18 20 22 24 26 28 30 32 34 37 38 38 40 42 42 42 45 49 49 49 48 42 37 33 30 28 28 27 26 26 25 24 23 22 22 22 22 21 22 22 23 25 27 28 30 32

GFSWCAN_500_spd_081.txt.gz
Wind_Speed
39 39 38 38 36 40 32 27 21 17 14 11 13 14 14 13 14 15 19 16 14 15 18 14 17 21 29 31 31 25 19 22 23 30 18 11 13 18 22 15 13 12 16 23 28 32 34 30 30 33 38 37 27 29
38 37 37 36 36 37 28 23 19 16 12 7 7 9 11 14 16 17 19 18 20 17 17 14 13 17 22 27 26 25 15 21 21 29 20 12 20 22 21 15 7 18 10 9 13 15 19 22 23 26 23 24 23 24
36 35 35 34 37 28 24 21 17 15 15 13 9 8 8 7 15 19 19 21 20 17 18 11 12 19 23 24 28 30 13 18 18 22 18 20 19 14 15 14 20 10 14 12 13 15 17 18 17 18 23 24 30 19
33 32 31 36 27 22 20 19 16 15 14 15 14 13 11 8 6 12 23 20 19 17 16 15 16 18 24 25 32 38 22 14 18 24 25 25 20 17 12 15 18 21 9 18 20 15 16 20 25 32 34 37 35 36
30 29 33 25 20 18 19 19 19 19 18 17 17 17 15 13 11 8 11 20 20 22 18 17 13 19 23 24 32 33 30 17 18 23 30 27 14 20 21 6 21 23 24 8 15 17 25 25 21 41 22 22 30 37
26 28 20 16 17 20 20 20 21 21 21 19 20 20 19 17 16 13 9 15 23 25 17 16 12 17 21 24 32 29 25 21 21 22 29 22 18 15 18 14 18 20 23 23 22 16 21 27 25 35 42 33 33 34
22 16 16 15 17 22 26 29 31 32 31 30 26 24 23 22 20 16 9 15 22 26 20 13 11 10 18 22 27 36 22 20 20 26 26 21 19 21 18 17 17 20 22 25 28 35 31 29 27 33 34 40 36 35
13 11 12 19 24 28 32 34 35 32 32 32 30 28 27 25 22 17 13 19 24 24 19 10 12 4 15 21 26 29 21 22 24 27 24 22 22 25 26 22 20 23 23 23 25 27 32 33 35 39 41 41 42 40
8 9 16 19 25 24 21 21 27 31 33 32 29 27 29 26 20 16 16 21 22 22 17 14 12 9 13 25 29 30 24 22 22 23 22 26 25 28 27 28 24 24 27 28 29 27 29 30 33 36 40 44 45 45
6 11 10 11 20 12 9 9 15 23 29 29 28 30 29 24 18 17 22 23 23 23 18 20 17 9 13 20 27 30 21 19 22 22 23 26 25 23 24 26 25 25 27 28 30 32 35 37 38 39 39 39 40 43
4 3 3 6 11 8 9 16 22 28 28 28 29 30 28 24 23 25 25 28 28 23 23 21 17 11 13 23 25 22 22 22 22 20 21 23 22 21 20 21 21 22 24 27 29 31 32 34 35 37 40 41 41 43
4 4 1 7 11 12 20 24 26 28 29 33 26 27 26 25 25 26 29 31 28 28 26 23 18 15 19 22 22 24 19 18 16 16 18 22 18 17 18 18 21 24 27 30 32 34 37 38 38 37 36 35 36 38
3 5 5 13 16 17 23 26 22 26 30 28 24 24 25 30 30 27 29 32 29 29 25 22 17 16 19 17 16 18 19 16 17 18 22 17 19 22 24 26 28 29 31 33 32 31 31 33 34 34 36 36 38 40
7 10 11 14 18 18 24 25 23 22 25 31 30 30 25 24 22 20 23 24 22 24 26 24 24 22 19 19 20 17 16 17 22 20 9 12 16 19 21 23 24 26 28 31 33 33 33 35 38 38 38 39 40 41
15 14 14 16 20 19 19 18 18 23 20 28 25 18 15 17 19 16 21 25 25 24 24 23 21 19 20 19 19 17 14 11 9 11 14 16 17 20 23 26 29 32 33 35 36 37 38 39 39 39 41 41 42 39
12 12 17 18 20 24 22 19 20 24 22 18 14 13 15 17 16 20 22 24 24 22 21 21 21 22 22 21 15 10 7 8 12 14 18 19 21 23 21 22 24 28 33 36 39 40 41 42 44 46 46 43 40 40
14 21 22 22 26 26 26 24 18 17 15 16 15 13 12 13 12 17 22 22 22 21 19 20 20 18 14 10 10 11 13 14 15 16 20 21 17 21 25 25 23 22 22 22 23 24 27 30 32 34 36 38 39 40
17 21 26 28 32 28 16 20 14 14 9 13 17 15 11 13 12 14 15 17 18 17 15 12 13 11 11 11 12 13 16 16 19 18 17 20 23 24 24 26 27 28 29 30 31 31 32 33 35 36 38 38 39 39
18 23 24 24 24 20 15 19 17 16 14 14 17 20 18 13 14 14 14 13 13 12 11 11 11 10 10 11 12 13 17 16 16 20 21 22 25 28 30 32 33 34 35 36 39 42 44 45 47 48 48 48 47 46
19 20 23 21 20 18 17 16 14 12 17 21 22 23 21 18 18 20 19 18 16 14 11 10 9 8 9 12 13 13 16 18 19 21 24 26 29 32 34 36 37 41 44 46 46 45 46 47 48 48 49 50 51 51
19 18 19 19 18 16 16 15 15 17 19 19 21 21 21 21 20 18 17 15 12 10 8 7 8 9 10 12 13 15 17 20 22 24 27 31 34 38 39 42 46 48 48 48 50 50 50 50 49 49 49 48 47 46
21 21 21 19 17 16 16 15 16 17 17 16 18 19 18 17 15 14 13 11 10 8 7 7 8 8 10 12 15 17 19 21 24 27 31 36 38 42 46 48 49 50 51 51 51 49 47 45 42 40 38 37 37 37
22 22 20 19 18 17 17 17 17 17 17 18 18 19 18 17 15 14 11 8 5 3 3 5 7 9 11 14 16 19 22 25 29 34 37 41 45 47 48 49 51 51 49 47 42 39 37 34 30 28 28 30 31 30
24 22 21 20 21 21 21 21 21 23 23 22 21 19 18 16 12 9 8 5 2 1 3 6 8 10 13 16 19 22 25 29 35 38 43 46 48 48 50 50 48 44 39 35 33 31 27 24 24 26 26 25 22 22
25 24 24 23 22 22 23 25 25 23 23 21 17 15 13 10 9 7 5 4 5 7 9 11 13 16 20 22 25 27 30 35 40 44 46 47 48 49 48 45 40 36 33 31 29 27 24 23 23 22 20 18 17 17
26 25 24 24 25 25 25 24 22 22 21 17 14 12 9 7 5 4 4 6 8 12 16 19 22 25 26 29 31 32 36 41 44 46 47 49 48 46 41 34 32 33 31 29 27 25 24 23 22 21 19 16 14 13
25 25 25 25 23 21 19 18 19 18 16 14 10 8 7 5 3 4 9 13 16 21 23 25 28 31 32 34 34 37 41 44 45 47 48 48 44 39 35 32 31 30 29 28 26 24 23 22 22 21 19 19 19 19
27 26 25 21 19 20 19 18 16 14 13 11 9 7 4 3 8 12 16 19 21 25 28 30 33 35 37 37 39 42 45 46 47 48 46 43 38 33 31 30 29 28 27 26 25 23 22 21 21 21 21 22 22 23
28 24 21 22 21 20 18 15 13 12 10 8 4 2 6 10 13 17 19 22 24 29 32 34 36 39 39 40 43 45 46 47 48 46 41 36 33 31 29 29 28 27 26 24 23 22 21 20 20 20 21 21 23 24
21 20 19 19 18 16 15 13 11 7 4 0 3 7 11 14 17 20 24 26 29 32 36 37 38 40 40 42 45 46 47 48 47 43 38 34 30 29 28 27 27 26 24 23 22 21 20 19 19 19 20 21 22 23
19 19 18 16 14 12 10 8 5 3 3 6 9 12 15 19 21 25 27 30 32 36 38 38 40 42 42 45 47 47 48 47 44 40 35 31 29 29 28 27 26 24 24 23 22 21 20 20 19 20 20 21 22 24
19 17 15 12 10 9 8 7 7 8 10 13 15 18 21 25 27 30 32 33 36 40 40 40 43 42 44 46 46 47 48 45 41 36 32 30 29 28 27 26 26 26 26 25 25 24 24 23 23 23 24 25 26 27
17 16 15 13 11 10 10 11 12 14 16 19 21 24 27 30 31 33 35 37 40 41 40 42 42 43 46 46 47 47 46 43 38 34 30 29 29 28 28 28 28 28 28 27 25 24 23 23 23 24 25 28 30 33

GFSWCAN_500_spd_084.txt.gz
Wind_Speed
41 40 39 39 38 36 34 32 32 32 22 17 14 13 12 11 14 15 17 16 15 20 22 18 19 20 26 31 32 30 25 24 21 20 25 21 20 18 16 15 19 18 15 13 17 29 37 27 29 36 39 35 32 33
38 38 37 38 36 35 32 30 32 23 20 15 10 9 10 10 10 12 15 13 17 17 14 13 13 15 16 21 27 32 26 21 20 17 24 25 11 14 17 16 17 14 17 15 17 16 19 21 26 30 29 33 33 33
37 36 36 35 34 31 29 30 23 19 18 15 12 8 7 9 12 12 15 17 18 19 17 12 12 16 11 13 22 28 26 19 16 19 22 28 20 16 16 16 13 9 11 13 10 9 12 16 18 23 24 30 29 27
34 34 35 33 31 28 29 24 19 17 15 15 15 12 10 8 8 10 16 20 18 19 21 18 16 8 14 14 21 35 24 26 20 16 15 26 20 18 19 14 12 6 15 12 14 15 13 14 22 20 20 21 28 30
32 33 32 29 27 27 23 20 17 16 16 16 15 15 14 13 10 7 7 22 20 22 21 19 8 13 15 17 22 34 27 18 21 20 19 28 18 17 16 16 5 10 20 12 16 13 17 14 17 20 25 24 35 33
32 31 27 26 25 21 19 18 18 19 19 20 18 17 16 16 13 9 6 3 22 23 23 15 12 11 15 19 20 33 36 19 16 16 17 27 24 18 11 11 10 12 13 16 18 9 14 17 26 27 29 27 27 34
29 24 24 24 20 19 20 21 22 22 22 20 19 17 19 18 14 11 10 9 15 23 21 17 10 6 11 17 20 29 34 31 19 14 13 15 22 18 15 11 17 18 15 17 20 23 23 23 27 24 25 24 23 23
21 21 20 18 19 19 21 24 27 28 29 29 27 25 23 22 20 15 14 12 15 20 22 12 11 7 8 12 18 24 25 24 21 17 14 16 19 20 20 13 13 17 18 19 21 27 28 28 28 29 30 31 30 31
18 18 17 16 18 19 20 25 29 33 33 30 30 27 27 26 21 16 17 17 20 21 22 14 13 7 2 8 18 22 29 24 20 15 16 20 21 20 20 20 23 23 24 25 28 28 28 29 30 30 30 30 32 31
16 15 12 12 14 16 21 24 29 30 30 33 36 30 29 27 22 21 19 21 22 21 21 18 15 15 5 9 19 27 24 19 15 15 19 23 23 22 22 23 26 30 31 32 30 33 33 34 35 36 37 37 37 37
12 9 8 9 12 11 9 14 21 25 28 33 35 29 26 26 26 23 23 25 23 21 21 23 16 11 9 14 21 21 21 17 14 15 21 23 24 24 26 25 24 26 30 32 32 33 34 36 39 41 42 42 44 45
6 8 3 2 3 5 5 14 23 27 34 34 27 26 29 30 26 24 26 27 22 25 27 25 17 16 10 6 14 20 21 21 18 17 21 20 20 23 24 24 23 23 23 24 27 29 31 34 36 37 39 41 42 44
10 8 8 11 11 13 14 23 28 29 28 29 29 33 29 32 33 25 29 25 21 21 28 23 17 17 19 17 16 19 20 21 19 18 17 14 13 18 22 24 24 25 27 28 30 32 34 35 36 36 37 37 38 39
13 14 15 20 20 23 27 29 26 26 30 28 32 34 33 32 27 25 18 18 20 26 27 23 17 15 13 15 19 20 19 18 19 21 15 17 19 18 19 21 22 23 25 27 29 31 33 34 36 37 38 40 42 43
16 16 20 23 25 23 20 19 19 23 25 28 28 28 28 25 22 22 17 23 24 28 23 22 19 17 17 19 19 19 19 13 7 10 11 13 15 19 21 23 26 28 30 32 34 38 40 42 44 44 45 45 45 46
19 19 21 22 24 23 19 21 21 19 24 27 23 18 13 16 18 19 22 25 26 26 23 21 21 21 21 23 20 15 8 9 9 10 13 16 19 21 24 24 22 26 30 31 31 29 28 28 30 33 37 40 43 44
21 20 19 22 22 21 18 18 18 19 25 18 12 17 16 19 20 23 24 24 23 22 20 20 21 21 19 15 9 8 12 12 14 16 17 19 22 21 21 24 28 30 29 29 31 32 33 33 34 35 36 38 40 42
23 25 24 25 26 24 23 20 16 16 18 17 17 17 18 19 19 23 25 24 22 21 21 19 17 11 8 9 11 12 13 14 17 19 20 19 21 25 27 27 30 33 36 37 39 40 42 43 44 47 49 50 51 51
24 26 28 27 27 23 19 13 12 16 17 17 15 14 17 21 24 23 22 23 21 17 12 8 7 8 10 11 11 14 15 18 19 19 22 25 25 27 30 34 37 39 42 44 44 46 48 51 51 51 50 51 51 52
28 30 30 22 19 20 20 16 13 14 16 17 17 16 16 20 21 19 18 15 12 10 10 11 11 10 10 11 13 15 16 18 21 22 23 26 30 33 36 39 42 43 46 48 50 50 51 52 52 52 52 52 51 50
24 25 23 22 20 18 16 14 14 17 20 20 19 17 16 15 16 17 16 15 14 12 11 10 9 9 10 11 13 17 18 19 22 25 28 31 33 37 40 42 46 49 50 51 53 54 54 54 52 50 48 46 44 43
23 21 19 17 16 15 14 15 17 19 21 23 23 21 20 20 18 17 17 14 12 10 7 5 5 7 10 12 14 18 21 23 26 29 32 34 38 41 45 48 50 51 53 54 53 51 47 43 39 38 36 35 33 32
23 23 22 20 18 16 16 16 18 18 19 20 21 21 20 19 17 14 12 9 6 4 2 2 5 8 10 12 14 18 21 24 27 30 34 38 43 46 48 50 52 53 52 48 45 41 37 34 33 31 29 28 27 29
24 22 20 18 17 17 17 17 18 19 20 19 18 18 17 16 15 13 11 9 6 3 1 3 5 6 10 13 17 20 24 27 31 36 40 43 46 49 50 51 51 47 42 39 37 35 33 32 30 28 27 26 26 26
23 21 21 21 21 21 20 19 20 20 21 21 20 19 17 15 14 12 9 6 4 2 2 6 9 12 16 20 24 27 29 32 36 39 43 45 48 50 50 49 45 39 36 34 33 32 31 29 28 27 25 24 23 23
23 22 23 22 22 21 22 22 23 23 22 21 19 17 16 14 10 8 6 3 2 5 9 12 17 22 24 26 29 31 33 37 41 43 45 47 48 48 45 41 38 35 32 31 30 30 29 27 25 24 24 23 22 22
23 23 22 21 22 23 23 22 21 20 18 19 15 14 12 9 6 3 3 6 8 13 18 21 24 26 29 31 34 36 37 40 43 44 47 48 47 45 40 36 33 32 31 30 28 28 27 26 24 22 22 22 22 22
23 24 23 22 22 22 20 20 21 19 17 13 11 9 7 4 1 5 9 12 15 19 22 25 29 31 32 34 38 38 40 43 44 46 48 47 45 41 36 33 31 30 30 28 27 25 24 23 23 22 20 20 21 21
25 24 22 20 20 21 23 21 18 14 12 11 9 7 3 1 5 9 12 16 19 23 25 28 33 35 35 37 39 40 43 44 45 48 48 46 43 38 34 31 31 30 28 26 25 24 23 22 22 21 20 20 19 20
24 20 18 20 21 20 18 16 15 13 11 8 5 2 4 7 11 14 18 21 24 27 29 32 36 37 37 40 40 43 45 45 47 47 45 43 39 35 32 31 30 28 27 27 26 26 25 24 23 23 22 22 22 22
19 19 20 19 16 14 14 15 14 10 6 4 4 6 10 13 16 20 23 26 29 32 33 36 37 38 40 40 42 44 45 46 47 47 45 41 36 32 31 30 29 29 28 28 28 27 26 25 24 24 23 23 24 25
20 19 17 14 14 13 13 11 9 7 6 7 10 13 16 19 22 25 28 31 33 35 37 38 38 39 41 42 45 45 47 48 47 46 43 38 34 31 30 29 30 30 29 28 27 25 24 23 24 24 24 25 26 28
19 19 18 17 15 13 12 9 8 9 10 13 16 18 22 25 28 30 32 34 36 38 39 38 39 40 41 44 45 46 47 48 47 44 40 36 33 31 30 31 31 30 29 27 25 24 25 26 27 27 28 29 29 30

GFSWCAN_500_spd_087.txt.gz
Wind_Speed
50 46 43 40 38 34 32 33 34 34 31 30 25 19 17 15 14 13 16 15 16 19 18 17 18 19 20 22 23 24 24 24 22 21 22 22 22 24 22 19 19 21 24 17 16 20 25 21 32 42 38 30 26 23
50 45 42 39 35 32 31 32 32 31 29 29 19 17 14 14 11 11 14 15 19 18 17 19 19 20 22 24 27 29 27 25 23 22 20 22 23 24 22 19 19 18 18 15 21 19 15 15 31 38 38 40 35 30
48 44 39 37 33 30 30 31 31 28 27 23 17 16 11 10 9 8 14 15 15 17 16 17 18 15 16 21 26 29 30 28 23 22 23 18 21 21 17 17 18 20 21 18 16 14 8 13 21 27 28 31 37 38
42 40 38 34 32 29 29 30 28 26 24 19 16 16 11 9 8 8 11 14 15 17 17 16 13 7 12 10 15 23 27 25 21 21 20 19 27 21 17 14 16 21 15 6 11 12 13 9 15 17 19 25 30 28
39 38 36 33 30 28 28 28 26 23 21 19 17 17 16 12 9 8 10 17 17 20 18 20 10 8 9 8 14 24 33 30 27 20 21 18 22 28 21 15 13 15 15 10 16 18 15 19 12 12 17 18 23 23
37 36 35 32 28 28 27 26 24 21 22 21 18 18 19 17 12 9 6 8 17 20 20 18 15 11 8 12 16 32 29 25 28 18 16 15 22 21 17 13 11 8 12 7 8 9 9 6 14 19 23 19 15 19
35 35 33 29 28 26 26 24 22 22 24 22 20 19 18 17 16 15 13 10 9 20 20 19 16 10 12 14 21 35 28 24 26 21 13 14 18 27 20 21 6 17 13 12 11 13 14 16 19 17 22 17 26 29
35 33 30 28 26 26 24 24 23 24 24 23 22 21 20 20 19 16 15 12 10 11 15 15 11 9 5 10 18 26 36 30 21 15 9 14 13 21 25 22 21 15 17 16 15 15 17 19 20 19 20 20 22 25
32 29 26 26 25 24 25 25 25 26 26 25 25 25 24 20 17 17 16 15 13 10 14 14 9 8 3 6 14 18 29 37 30 21 15 15 13 16 19 18 18 20 21 21 22 22 23 23 25 27 26 27 26 25
27 24 24 23 23 24 24 26 28 28 28 29 30 31 28 21 21 20 20 18 16 13 15 14 12 8 8 1 10 17 22 26 25 19 17 13 11 14 18 17 19 20 22 25 25 25 26 28 31 34 34 34 34 35
23 22 21 22 21 19 24 25 26 29 32 33 34 32 26 23 22 25 24 20 16 13 18 19 17 11 7 2 11 14 18 21 17 16 15 13 12 16 18 21 20 22 25 27 29 31 33 34 35 37 39 39 40 41
20 18 16 16 17 19 22 21 23 29 31 36 35 32 29 27 29 30 27 24 17 18 22 21 15 15 10 2 8 16 17 17 16 14 15 13 14 16 18 19 22 27 29 31 32 32 32 34 35 36 38 41 42 44
18 16 12 10 10 13 10 21 23 27 31 34 36 34 31 33 32 30 26 22 14 20 24 23 19 19 17 10 7 10 16 17 15 18 17 13 15 17 19 22 24 24 25 26 27 28 30 31 33 34 36 37 39 40
19 18 15 16 17 15 19 26 34 33 33 33 36 35 36 33 31 29 20 15 19 24 30 28 22 23 23 19 17 12 11 13 15 16 17 19 19 19 20 20 20 21 24 26 27 30 33 35 37 39 41 42 44 44
22 24 25 25 23 23 25 30 34 28 33 31 31 32 36 32 26 18 14 19 24 27 31 29 21 19 19 16 13 12 12 12 13 14 10 11 13 16 19 21 24 26 29 31 33 31 34 36 37 37 37 38 39 42
25 27 29 27 22 23 25 28 27 31 32 27 26 28 26 22 20 17 17 19 24 27 30 26 21 18 16 12 10 12 13 13 11 11 13 15 18 21 23 25 27 29 29 30 33 36 37 37 36 36 37 39 40 41
28 28 28 27 24 22 20 21 24 24 25 23 22 23 21 21 19 21 20 23 23 26 24 20 17 16 14 14 14 13 11 13 14 17 17 20 20 23 25 25 27 31 34 34 35 37 40 42 44 46 47 48 49 50
27 26 25 22 18 18 19 17 18 21 23 21 18 16 19 21 24 23 24 24 24 23 20 19 18 17 15 12 11 11 12 13 14 18 20 23 23 24 27 30 31 33 36 39 42 45 48 49 51 52 53 55 56 57
28 26 22 21 21 22 21 20 20 22 16 19 22 22 21 23 24 26 27 25 22 21 20 16 10 7 8 10 11 10 12 16 19 22 22 24 28 29 31 33 36 40 43 46 49 50 52 54 54 55 55 56 56 56
29 30 29 25 22 18 15 14 18 20 20 18 19 20 23 25 27 27 25 23 20 15 10 9 9 8 7 8 10 13 17 18 20 23 26 28 30 33 36 38 42 46 48 50 52 53 54 55 56 56 54 53 51 49
29 28 26 23 18 15 11 13 15 18 19 19 18 20 24 23 22 22 19 17 15 12 10 8 7 7 9 11 12 14 17 19 22 25 28 31 35 37 39 42 46 49 52 53 54 55 56 55 53 49 46 42 39 38
29 23 19 18 18 12 14 12 15 18 22 20 20 21 21 21 20 19 17 14 11 9 7 7 6 5 7 9 12 15 19 22 25 28 31 32 35 38 43 46 48 51 52 53 55 53 48 44 41 39 37 36 35 34
22 20 18 18 15 15 16 16 18 22 22 21 19 19 21 20 18 15 13 11 9 8 6 4 2 5 8 11 15 18 20 22 25 27 30 34 38 43 46 48 51 52 53 52 47 42 38 36 35 35 34 33 32 30
20 18 18 18 17 17 19 20 20 21 20 19 20 19 17 16 16 14 13 11 9 7 3 1 4 7 10 13 15 17 20 25 29 31 35 39 43 46 47 50 50 50 48 43 38 36 35 34 33 32 31 29 28 28
21 20 19 18 17 17 18 19 20 20 19 19 19 19 19 19 18 16 13 9 5 2 2 4 6 9 12 17 22 25 28 31 34 36 40 44 46 47 49 49 49 45 40 36 35 34 33 31 30 29 27 25 25 25
20 18 18 17 18 18 19 20 21 22 23 23 22 20 19 18 14 10 7 4 3 3 4 7 9 16 21 25 27 30 32 35 37 40 43 45 47 49 49 49 46 40 35 34 33 32 31 29 27 26 25 23 22 21
20 19 19 19 19 20 21 23 22 22 22 20 19 18 16 14 11 7 4 2 2 5 11 16 19 23 27 30 32 33 35 37 40 43 45 46 48 48 48 45 41 36 33 32 31 30 28 27 26 25 24 23 21 20
21 20 20 20 20 22 23 23 22 22 19 16 17 16 13 9 6 4 1 5 9 13 16 20 24 27 30 34 35 36 38 40 43 45 46 48 49 48 46 42 37 33 31 30 29 28 27 27 27 26 25 23 23 22
22 20 20 19 19 19 20 22 19 18 16 15 14 11 9 6 3 4 8 11 14 18 21 24 28 31 34 36 36 39 40 42 45 46 48 49 49 47 44 38 34 32 30 29 29 29 28 29 28 27 25 24 24 23
21 20 20 20 19 19 22 21 19 17 14 11 10 9 6 5 6 10 13 16 20 23 25 28 31 35 37 37 38 41 42 44 46 48 50 50 49 46 40 35 32 31 30 31 30 29 29 27 25 24 24 24 24 24
21 19 18 20 21 21 19 16 15 15 13 11 9 7 8 9 12 15 19 22 25 28 30 33 35 39 39 39 41 42 44 46 47 49 50 50 47 42 37 33 32 31 31 31 30 29 28 25 25 25 26 26 26 27
18 17 18 18 17 15 15 14 13 13 11 10 10 10 12 15 18 21 24 27 30 32 34 36 39 40 39 41 43 44 46 47 49 50 51 49 44 38 34 32 32 33 33 32 31 29 27 26 26 27 27 28 29 30
17 18 19 18 18 18 17 15 15 13 12 12 13 15 17 21 24 27 30 32 34 36 38 39 40 40 41 42 44 46 47 49 50 52 51 47 40 35 33 33 33 33 33 33 31 30 29 28 28 29 30 31 32 32

GFSWCAN_500_spd_090.txt.gz
Wind_Speed
52 50 47 45 42 39 36 34 33 31 29 29 31 30 30 25 20 16 16 15 17 18 16 16 17 18 21 23 22 19 20 22 21 22 24 22 21 21 21 23 21 21 21 23 25 27 24 22 28 30 34 37 34 30
52 51 50 47 44 40 36 34 32 30 28 28 29 27 27 20 18 13 13 18 16 18 17 16 16 17 18 19 20 20 21 21 20 20 21 21 21 20 21 20 21 19 21 19 21 17 14 14 18 24 32 34 33 30
46 43 42 44 44 40 36 34 31 29 27 26 25 25 20 17 14 12 13 16 13 17 16 15 18 16 15 18 21 23 24 23 25 24 22 21 20 21 22 21 18 18 18 17 11 16 14 18 19 23 23 21 24 29
40 38 36 36 39 38 37 34 32 29 26 24 23 22 17 15 10 10 10 10 12 15 14 16 14 13 9 11 20 25 27 28 29 28 25 22 20 20 20 17 16 15 16 17 17 9 12 12 11 11 11 16 23 25
40 38 38 37 35 37 38 35 32 29 25 23 21 18 18 15 10 10 8 7 8 10 9 12 10 8 8 10 13 15 18 21 28 28 23 19 20 23 22 17 9 9 9 11 8 13 10 9 13 18 14 13 16 17
40 39 38 35 34 36 36 33 30 26 23 21 19 18 19 17 12 10 8 7 11 14 15 15 13 11 11 9 13 13 14 24 28 24 21 18 18 20 25 20 13 8 11 12 9 6 7 4 8 12 20 17 16 17
39 37 35 33 35 36 34 32 28 23 22 20 19 19 18 18 16 13 11 11 8 10 16 19 13 11 12 11 12 13 17 27 21 20 19 17 13 14 22 21 19 12 3 12 10 9 11 10 12 14 14 15 14 14
36 34 34 34 35 34 33 30 25 22 20 20 20 20 20 20 19 17 15 14 9 7 9 18 13 11 11 12 14 16 31 26 23 20 15 11 8 11 21 20 22 22 15 12 17 13 14 14 15 16 15 16 18 17
34 34 36 35 34 34 31 27 24 22 22 22 22 22 22 20 19 17 17 15 11 9 5 12 12 10 5 6 12 20 33 25 24 19 17 12 10 9 12 19 22 22 20 16 15 16 20 22 21 20 20 20 21 23
37 37 35 33 34 30 28 26 25 25 24 24 25 24 22 19 18 18 18 16 13 8 6 11 9 9 3 4 6 15 25 32 25 21 19 8 7 8 9 13 18 20 19 21 17 19 21 22 23 24 26 28 29 29
36 34 33 31 29 29 27 27 27 28 29 30 28 26 23 20 18 18 18 16 13 8 9 13 11 5 3 1 1 12 15 21 29 26 22 12 7 10 12 15 17 19 22 22 20 20 22 26 27 28 29 30 32 33
31 29 28 28 27 27 27 28 29 30 29 26 27 26 24 23 23 23 21 17 13 10 12 14 14 6 8 4 6 6 9 11 17 18 16 12 14 13 11 12 14 17 20 21 22 25 28 30 29 30 31 33 35 37
25 24 23 24 26 26 28 28 31 30 29 28 28 29 28 26 28 26 22 14 8 9 17 18 13 15 12 6 1 5 9 11 14 14 13 14 15 11 12 13 16 18 20 22 24 27 28 31 31 29 30 33 35 37
23 20 20 20 22 24 26 27 30 31 29 32 36 41 35 32 28 22 19 13 14 17 22 22 19 18 16 11 11 9 6 11 11 10 10 10 11 13 16 19 20 21 22 23 25 27 28 29 32 35 36 36 38 41
22 20 18 18 18 20 25 29 28 30 32 38 43 41 34 24 24 22 15 17 19 22 25 25 21 22 21 18 15 9 8 7 8 11 13 11 11 13 16 18 21 23 24 27 29 32 34 35 36 38 40 42 42 42
27 27 24 19 20 25 26 28 31 31 35 47 34 30 31 29 20 18 18 17 19 23 24 25 24 21 21 19 14 9 7 10 13 12 11 14 15 18 22 24 25 27 30 31 32 34 37 40 40 41 42 43 45 47
34 32 28 25 24 30 33 31 31 29 32 33 30 25 24 26 20 17 17 15 20 20 22 25 24 20 15 11 9 11 14 15 13 13 15 18 20 23 25 28 28 29 33 35 38 39 41 42 44 47 50 52 54 56
28 30 29 29 29 28 27 24 25 25 20 23 24 19 19 18 17 18 19 19 21 19 19 23 22 18 11 9 11 13 11 12 14 15 17 21 24 26 28 30 32 35 37 39 41 43 46 49 52 55 56 57 58 58
27 25 22 23 25 24 24 24 24 23 19 17 14 16 19 21 21 22 22 23 22 22 22 19 13 8 9 9 9 10 12 13 15 19 23 24 27 29 32 34 36 39 41 43 47 50 53 55 56 56 57 58 59 58
25 23 21 21 22 21 20 18 20 20 23 20 19 17 24 25 24 23 23 23 22 20 16 9 8 8 7 8 7 10 14 17 19 22 24 27 29 32 36 39 41 43 47 50 52 53 54 55 56 56 55 54 52 50
24 24 26 22 20 19 18 19 20 17 19 24 21 21 23 23 23 24 24 20 15 11 9 9 8 7 5 7 11 13 15 17 20 24 28 32 35 38 40 41 44 47 50 51 52 53 54 54 54 51 47 44 41 39
27 26 23 20 16 15 16 16 18 18 18 22 21 22 23 25 25 22 19 16 13 12 9 8 6 5 7 9 10 13 17 21 24 28 30 32 35 37 40 44 48 49 50 52 52 53 52 50 45 41 38 37 36 35
26 21 19 17 12 13 15 16 19 19 18 21 24 25 24 23 21 20 18 15 13 11 7 6 6 6 5 8 13 17 20 23 25 28 32 36 37 40 44 46 47 50 51 51 52 50 46 41 38 36 35 34 32 32
18 18 17 14 13 13 12 18 21 21 21 21 23 23 23 22 20 17 16 13 10 9 8 6 3 5 8 12 16 19 22 25 28 31 35 37 40 44 47 47 49 50 51 51 49 45 39 36 35 34 32 30 30 29
17 17 17 16 17 17 20 23 22 21 21 21 22 20 19 18 17 15 13 11 10 8 4 3 7 10 13 15 18 23 26 30 31 35 38 41 44 47 47 49 50 51 52 49 45 39 35 33 32 30 28 27 27 26
16 17 17 17 18 19 20 21 21 21 21 21 19 19 18 17 15 13 12 10 5 2 4 7 10 13 16 21 25 29 33 35 37 39 42 45 47 47 49 50 51 52 49 44 38 35 32 31 30 29 28 28 27 26
18 18 18 18 19 20 20 20 20 19 19 19 20 18 18 17 15 12 8 4 4 7 9 11 14 18 22 26 30 34 37 38 40 42 44 47 47 49 51 52 53 51 45 39 35 32 31 31 30 29 29 29 27 26
17 17 18 20 20 21 22 23 23 22 21 19 18 18 16 13 10 7 5 4 6 9 12 16 20 24 28 31 35 38 40 40 42 44 47 47 49 52 53 54 52 46 40 35 32 31 32 32 31 30 29 27 26 25
18 19 19 19 22 22 22 23 22 20 18 18 18 16 13 9 6 5 4 8 11 15 18 22 26 29 32 35 39 41 42 43 45 47 48 49 52 53 55 54 48 41 36 33 32 32 33 32 31 30 29 27 26 26
19 19 19 20 20 20 20 20 19 17 17 16 14 11 8 8 7 8 10 13 17 20 24 27 31 33 37 39 42 43 43 45 47 48 49 52 54 56 56 50 42 38 35 33 33 33 33 32 31 29 28 28 28 28
18 18 19 19 19 19 20 19 17 16 14 13 11 10 10 10 10 13 16 19 22 25 28 31 34 37 40 42 42 43 45 47 48 49 52 55 56 57 52 44 38 36 35 35 35 35 35 33 31 30 30 30 30 30
18 18 18 18 18 19 19 17 16 15 14 12 12 12 12 13 15 18 22 25 28 30 32 35 38 40 42 42 43 45 46 48 49 52 54 56 58 54 46 40 38 37 37 37 37 37 35 33 32 31 31 31 31 32
15 14 16 18 18 18 18 17 16 15 14 14 14 15 15 17 21 24 27 29 32 34 36 39 41 42 42 42 44 46 47 49 52 54 55 57 56 49 42 40 40 39 38 38 37 36 35 34 33 32 32 32 32 33

GFSWCAN_500_spd_093.txt.gz
Wind_Speed
49 47 44 43 41 39 36 34 32 29 28 26 25 24 26 28 27 26 21 20 17 17 15 14 15 16 17 17 18 16 14 16 18 17 16 17 18 20 21 24 23 20 19 18 17 16 15 16 17 20 23 27 28 26
50 47 44 42 40 38 36 34 32 29 28 26 25 24 25 26 25 21 19 19 14 14 16 12 15 14 14 15 16 17 17 16 17 17 16 16 17 19 20 19 18 18 17 16 15 15 11 13 16 20 21 26 28 30
50 48 45 45 42 40 38 37 34 30 28 27 25 25 25 23 21 17 18 17 10 13 13 11 14 13 14 13 13 14 15 16 17 18 16 17 16 16 18 18 17 17 15 14 14 11 10 12 13 17 19 21 21 21
50 47 45 43 41 39 38 37 35 32 29 27 26 25 23 20 16 15 14 10 8 11 10 11 11 9 9 9 11 15 18 19 20 21 20 19 18 17 17 17 17 16 14 11 9 11 9 11 12 11 7 7 10 15
46 43 41 38 35 33 32 33 34 33 31 30 27 25 21 16 13 14 10 7 4 5 6 10 9 9 8 8 8 9 10 13 19 24 25 23 21 18 17 14 15 11 8 6 7 8 11 9 12 12 12 11 11 10
44 41 39 36 35 35 34 34 34 34 33 31 26 22 18 15 14 13 8 5 6 6 5 6 9 8 9 10 9 10 10 12 14 20 23 23 20 18 18 19 15 9 9 9 10 6 6 6 8 7 5 5 10 16
40 41 41 40 38 35 34 32 32 32 30 28 23 20 17 15 15 14 10 9 4 5 9 11 9 9 9 10 11 13 13 14 12 17 17 15 17 16 16 21 20 15 10 12 14 18 15 12 10 10 10 12 14 14
36 37 36 37 35 33 32 32 30 29 27 25 21 19 17 16 17 17 13 11 7 5 4 7 11 14 12 12 11 13 13 10 13 14 13 12 9 7 9 16 20 21 20 10 11 13 12 12 12 14 15 16 16 17
34 34 35 34 34 34 33 31 29 28 25 22 20 22 20 18 17 17 14 13 9 7 6 6 10 12 10 8 10 10 11 13 16 15 12 8 5 4 9 13 19 21 24 23 21 14 15 16 19 20 22 21 21 20
33 34 35 35 36 36 33 30 29 27 24 25 26 24 21 19 20 19 17 14 11 7 5 3 6 9 6 5 6 7 9 18 19 15 10 10 1 4 7 11 16 21 20 20 19 19 20 22 22 21 22 21 21 22
34 34 35 38 37 35 32 31 29 27 28 31 26 22 19 18 19 20 17 13 11 6 5 6 8 7 2 3 6 3 6 13 21 17 15 15 2 9 8 11 13 15 17 19 21 22 23 25 24 22 22 23 26 28
35 37 39 38 36 34 33 31 29 31 34 32 29 22 18 16 19 19 16 12 6 5 7 8 11 6 5 3 4 3 6 8 10 16 16 10 11 12 12 11 11 14 17 19 22 23 24 24 23 24 26 27 29 31
39 39 36 34 34 33 32 30 34 36 34 34 30 27 26 27 23 19 13 6 5 8 7 11 12 9 9 10 8 4 4 5 11 10 8 10 15 17 14 11 11 12 14 17 20 22 24 25 27 28 30 31 31 33
34 33 33 33 32 31 29 32 34 35 36 34 31 28 27 25 21 13 10 11 11 11 9 15 13 14 10 7 1 1 2 3 6 8 11 12 12 13 12 12 13 16 18 20 22 24 26 28 30 32 34 34 35 36
27 27 27 27 29 31 33 35 36 37 33 31 28 24 22 17 16 14 11 13 15 13 12 17 16 16 15 12 11 4 2 2 4 8 10 12 12 11 11 13 15 18 20 22 25 27 29 31 33 35 37 39 40 41
25 23 25 28 29 31 35 37 35 32 33 34 35 31 20 19 16 19 16 16 16 14 14 18 19 17 18 15 9 6 6 7 9 13 12 11 13 15 17 20 22 24 26 26 29 32 35 37 39 40 42 44 46 47
25 21 21 23 28 31 33 35 36 35 30 23 27 29 27 23 22 17 21 21 17 17 15 18 19 17 14 13 10 10 11 13 14 11 11 13 15 18 21 24 26 28 30 33 35 37 39 40 42 44 47 50 52 53
27 25 28 29 27 35 36 31 29 41 26 25 24 21 20 21 21 18 24 19 18 17 17 17 19 19 13 8 10 14 16 13 10 13 14 17 20 23 25 28 30 32 35 37 39 42 45 47 50 52 52 53 54 55
29 29 33 35 35 34 35 31 27 27 27 23 21 21 18 19 23 23 23 20 18 18 18 18 17 12 10 12 14 13 10 10 12 15 18 21 23 25 28 32 35 38 40 42 45 47 50 50 50 52 53 53 54 54
31 31 30 30 30 29 27 25 25 20 21 21 19 20 21 22 23 22 21 20 20 18 17 15 12 11 12 11 9 7 9 12 15 18 20 23 27 31 34 37 40 42 43 46 49 50 49 51 51 51 51 52 52 51
25 25 27 26 26 20 19 24 23 20 23 22 13 17 24 26 23 22 21 20 19 18 16 14 11 10 8 6 6 9 12 15 17 20 24 28 32 34 37 40 41 44 47 50 48 50 50 51 50 51 50 48 44 41
25 25 23 22 20 19 18 19 20 22 21 20 16 15 21 22 22 20 22 21 20 18 13 10 9 7 5 6 9 12 13 17 21 25 28 30 33 36 39 41 45 48 49 48 50 50 50 51 50 48 44 39 37 36
25 24 21 17 13 16 18 21 20 20 20 18 16 17 20 21 22 24 22 20 17 14 12 9 6 5 6 8 10 13 18 22 24 26 30 33 35 39 41 45 48 48 49 50 51 51 51 49 45 40 37 35 34 32
21 18 16 14 14 15 18 18 18 18 18 16 17 20 23 24 24 22 21 18 14 12 8 6 5 6 7 9 13 18 21 25 28 32 35 37 39 42 45 48 49 50 51 52 53 53 49 43 38 35 33 32 31 30
17 16 13 12 13 15 19 20 19 20 21 23 25 26 26 23 22 19 16 14 12 9 7 6 4 6 10 14 18 21 25 29 33 37 39 40 42 45 48 49 50 51 53 54 54 49 42 37 34 32 32 31 30 29
14 14 14 13 15 21 23 20 21 22 25 26 26 24 23 20 18 16 13 11 9 9 6 1 6 11 15 18 22 26 30 34 37 40 42 43 45 48 49 50 53 54 56 55 49 42 37 33 32 31 31 31 31 30
17 17 17 17 21 24 23 21 21 23 24 23 22 21 19 17 16 15 13 11 7 2 3 8 11 15 19 23 27 30 34 37 41 43 44 46 48 49 51 53 55 57 57 50 43 38 34 33 32 32 32 31 30 29
18 18 18 20 21 21 22 22 22 21 20 18 16 17 16 15 14 11 8 4 0 5 9 12 16 20 24 28 31 35 39 41 43 44 46 48 49 50 53 55 57 58 52 44 39 37 35 34 34 33 32 32 31 30
19 19 20 20 20 20 20 20 20 19 19 17 16 16 15 14 10 7 3 4 6 10 14 18 22 26 30 34 36 40 43 44 45 46 48 49 50 52 55 58 59 55 47 41 39 39 38 37 36 35 33 32 31 31
20 21 20 21 21 20 20 20 19 18 16 16 15 15 13 9 7 6 7 9 12 16 20 24 28 31 34 38 40 43 45 44 46 48 49 50 52 55 58 60 58 51 44 42 41 39 38 37 36 34 33 32 32 32
22 21 22 21 21 20 20 19 16 15 14 14 14 12 10 8 7 9 11 14 17 21 25 29 32 35 38 41 44 46 45 45 47 49 50 52 55 58 61 60 55 48 43 42 40 38 36 35 34 33 32 32 32 32
20 20 20 19 19 18 17 17 16 15 15 15 13 11 10 10 11 13 16 19 23 26 30 33 36 39 40 43 46 45 44 46 48 49 52 55 58 60 62 58 51 46 43 42 40 38 37 36 35 34 34 33 33 33
17 16 16 16 16 17 17 17 16 14 14 14 13 12 12 13 14 18 21 25 29 32 35 38 40 41 42 45 45 44 45 48 49 51 54 57 60 63 61 54 49 45 43 41 40 39 38 36 36 36 35 34 34 36

GFSWCAN_500_spd_096.txt.gz
Wind_Speed
42 41 41 38 37 36 35 33 31 30 28 26 24 23 22 21 21 21 24 23 20 18 18 12 16 16 16 16 15 11 10 7 9 8 8 9 11 12 14 15 16 16 16 15 13 13 15 17 18 18 18 19 19 18
45 44 43 42 41 39 37 35 33 30 28 26 24 23 23 21 20 21 22 22 16 14 16 10 13 14 14 14 13 14 13 11 12 12 11 10 11 13 13 12 14 15 16 14 13 12 14 16 18 18 19 19 21 22
46 45 43 42 40 38 36 34 31 29 27 26 25 24 23 22 20 20 21 17 12 14 13 9 10 11 13 12 12 12 12 13 12 10 10 11 11 12 13 13 14 14 14 14 12 11 13 15 16 18 19 19 20 20
46 44 42 40 39 38 37 35 33 31 30 29 27 25 24 22 20 19 18 11 10 12 10 8 9 10 10 12 12 12 12 12 13 13 12 12 14 14 13 13 14 14 14 15 13 10 15 13 17 17 16 16 18 17
49 47 44 41 38 37 36 35 35 34 33 32 30 27 25 23 19 18 13 9 9 8 7 8 9 10 11 11 6 4 6 8 13 18 19 18 17 16 16 15 15 15 13 12 11 9 14 13 12 12 13 11 12 13
44 43 42 42 40 38 35 34 33 33 33 32 32 29 26 23 18 15 9 9 6 4 4 6 9 12 11 8 5 3 2 5 9 12 16 20 22 20 18 16 15 15 13 10 10 10 10 13 14 14 16 16 15 10
43 44 42 40 39 38 35 32 31 33 34 33 31 28 24 20 16 14 12 9 6 6 5 6 8 11 11 9 8 7 8 11 12 12 14 15 17 19 19 19 20 17 13 17 18 16 14 13 12 13 11 13 12 12
39 41 44 45 45 41 38 38 37 36 35 30 27 25 22 20 20 18 15 11 8 5 4 5 9 14 13 10 9 10 11 11 9 6 7 8 12 14 15 18 21 23 21 16 20 16 18 20 18 17 16 17 18 19
34 35 37 40 44 44 43 41 38 34 30 26 25 24 22 20 19 19 18 15 11 8 5 5 6 9 11 9 8 9 10 6 5 11 10 14 12 9 8 10 14 21 24 22 22 19 17 17 19 20 21 23 25 26
34 33 35 39 40 38 37 36 36 32 30 28 27 24 23 20 20 18 19 16 11 8 4 6 4 6 6 4 7 7 5 5 13 14 13 13 10 7 7 9 13 18 23 26 27 24 21 20 20 23 26 28 28 28
36 33 34 37 38 37 37 38 35 35 33 30 29 28 22 21 19 19 16 14 11 8 6 3 5 6 4 1 2 1 2 8 15 14 9 8 7 3 7 8 11 15 18 23 23 21 22 22 25 26 28 30 32 32
37 36 36 37 38 39 41 39 38 36 33 33 29 26 26 26 22 19 16 13 10 9 6 6 8 7 5 3 3 4 6 6 11 11 9 9 13 11 12 12 12 14 17 20 21 22 25 27 28 30 31 33 35 36
38 38 38 39 39 42 41 40 39 36 38 40 31 28 26 24 21 16 13 9 10 11 8 9 12 9 8 8 7 5 7 6 7 7 9 13 13 13 15 17 14 13 15 16 18 21 25 28 29 31 33 34 35 36
39 38 39 41 43 43 42 41 39 39 44 40 38 33 28 19 16 14 12 12 11 9 8 12 14 12 10 9 6 7 8 6 6 7 8 10 13 16 14 12 12 13 15 17 19 21 24 27 29 32 34 37 39 40
38 39 42 43 42 43 42 40 41 43 43 41 40 35 25 18 13 13 14 14 13 9 8 14 15 16 14 10 10 6 5 4 5 7 9 11 14 16 14 14 15 16 18 21 23 25 27 29 31 34 36 39 41 42
41 41 41 41 42 41 39 42 44 45 45 42 33 24 19 18 17 17 15 14 14 11 10 13 14 15 14 12 8 5 4 7 7 9 13 13 11 12 14 16 17 20 22 24 26 29 32 34 36 39 41 42 44 45
37 37 37 38 37 36 40 44 43 41 37 36 28 22 21 21 21 19 16 16 14 14 12 13 16 16 13 12 10 10 12 11 12 14 12 10 11 14 17 19 21 24 26 29 32 35 37 39 41 43 46 47 48 48
31 31 31 33 36 40 41 39 35 33 32 28 25 22 22 23 21 21 20 21 18 16 14 14 17 17 14 11 11 10 12 15 14 11 11 13 15 17 20 22 25 29 32 35 38 40 42 46 49 51 50 50 51 52
28 30 35 36 37 37 39 39 37 31 24 25 26 25 29 24 20 22 22 23 22 21 17 16 18 17 15 13 11 12 13 12 11 13 14 15 18 21 24 28 30 33 37 39 42 45 48 51 50 50 52 52 51 52
31 32 36 38 33 34 38 35 34 31 29 24 24 22 20 20 21 24 25 25 25 22 18 17 16 16 13 11 10 10 11 12 13 13 15 18 22 25 29 32 34 37 39 42 46 49 49 50 51 51 51 52 53 52
35 37 37 37 35 30 24 23 26 35 25 17 20 21 21 21 24 26 28 27 23 19 18 18 18 15 12 10 10 11 12 11 13 15 19 23 27 30 33 34 36 39 42 46 47 48 49 50 50 52 54 52 49 44
29 29 30 29 27 28 24 22 23 24 25 20 17 23 23 25 27 27 25 22 21 20 21 20 15 12 10 10 10 9 10 12 16 20 24 27 30 33 34 36 38 41 45 46 48 49 50 52 54 52 47 42 38 35
29 27 24 22 22 20 22 24 24 26 26 24 18 18 22 24 24 23 23 22 23 23 19 15 12 11 10 8 7 9 12 17 22 25 28 31 34 36 37 39 42 45 46 48 50 51 54 54 50 43 39 35 33 32
27 23 16 15 14 19 22 23 25 26 22 17 16 19 21 22 23 23 25 25 21 18 14 13 11 8 6 7 9 13 17 22 25 29 32 35 38 39 40 43 45 47 49 51 53 55 55 50 42 37 34 33 32 33
19 17 14 13 15 18 21 21 19 19 18 18 19 20 21 24 25 26 24 21 17 16 13 9 6 5 6 8 13 18 22 25 28 33 36 38 39 40 43 46 48 50 52 53 55 57 51 43 38 35 34 33 34 34
15 13 13 14 16 18 19 19 20 22 22 23 24 25 26 26 24 21 19 18 15 12 9 7 5 5 9 13 17 21 26 29 32 37 40 41 41 43 46 48 50 53 54 56 57 54 46 40 38 36 35 35 35 35
13 12 11 15 21 20 19 20 22 24 26 27 27 25 23 21 20 19 17 14 12 9 8 4 5 9 14 18 22 26 30 34 37 41 43 43 44 46 49 51 53 55 57 59 57 50 43 39 39 37 36 36 35 34
14 14 16 21 21 20 20 22 23 24 24 23 21 21 20 19 18 16 14 12 10 7 3 6 10 14 19 23 27 31 35 37 41 44 44 44 46 48 50 53 55 57 60 60 53 47 42 40 38 37 35 34 33 32
16 18 20 21 21 20 21 22 22 20 20 20 20 20 19 17 15 14 12 9 5 4 7 11 15 19 23 27 32 35 38 41 44 46 45 46 48 49 52 55 58 61 62 57 50 45 42 40 38 36 35 34 34 33
19 20 21 21 21 21 21 21 20 20 20 20 20 19 17 16 14 12 9 5 6 10 13 16 20 24 28 33 36 39 41 44 46 46 45 47 49 51 54 58 61 63 61 55 47 43 41 39 38 38 37 35 35 35
21 21 21 21 21 21 20 21 20 19 18 17 17 17 15 12 10 8 7 9 12 15 18 21 25 30 34 37 41 41 43 46 45 45 46 48 50 53 57 60 63 63 58 50 43 41 40 39 38 37 36 36 37 36
23 23 23 22 22 22 21 19 18 16 16 17 17 16 14 13 12 11 11 14 17 19 22 26 30 34 38 43 44 44 47 46 44 45 47 49 52 55 59 62 63 59 52 45 41 40 40 39 38 38 37 37 37 38
22 22 21 20 19 18 18 17 16 15 16 16 16 16 15 14 13 14 16 19 21 24 27 31 35 36 42 45 46 47 46 44 44 46 47 50 54 57 61 62 59 53 47 43 42 42 41 39 39 39 40 41 42 42

GFSWCAN_500_spd_099.txt.gz
Wind_Speed
30 29 30 29 27 26 26 26 25 25 24 23 23 22 22 23 22 22 21 20 20 21 21 18 16 16 18 18 17 15 15 15 14 14 11 8 8 6 7 8 7 6 6 8 9 13 16 17 16 16 18 23 22 21
34 32 31 29 29 30 29 27 27 26 26 25 24 23 24 23 22 22 21 20 20 21 21 15 13 15 15 16 15 14 17 16 16 16 15 11 10 9 7 5 10 11 10 8 12 13 15 16 17 17 18 19 20 20
40 37 36 35 34 33 31 30 30 29 28 27 26 26 25 23 23 22 21 19 19 19 18 12 10 12 12 14 12 13 15 16 15 15 14 13 12 9 10 13 13 14 13 12 13 15 16 16 16 17 19 20 21 20
43 42 41 39 38 38 36 35 33 32 31 30 28 27 25 25 23 22 21 18 18 17 12 8 11 12 12 12 11 12 13 13 13 14 14 14 14 14 14 14 15 15 13 13 14 15 15 17 17 17 18 18 19 20
43 42 41 40 38 37 36 35 33 32 31 31 29 29 27 26 24 22 20 17 16 13 8 9 11 11 11 11 9 9 11 13 14 14 15 15 16 16 15 14 14 14 16 13 13 15 15 18 17 14 16 17 17 16
45 43 41 39 37 35 33 32 31 32 31 31 31 31 29 27 25 22 18 17 13 7 6 6 10 10 10 9 8 6 4 5 7 8 10 14 17 16 16 16 16 16 15 14 13 15 17 15 19 17 18 19 21 21
46 45 43 42 40 38 36 32 30 31 31 31 32 32 30 28 23 19 18 14 10 8 7 6 7 9 10 10 9 10 8 7 8 9 11 13 17 20 22 22 21 19 17 16 15 15 14 14 16 18 19 20 22 23
44 44 43 42 41 40 39 36 34 33 32 32 32 31 29 26 24 21 18 15 13 11 9 8 8 11 13 14 13 10 10 11 11 12 14 14 13 10 13 21 21 21 20 20 23 21 19 20 20 20 18 19 20 21
40 42 45 45 44 45 42 38 37 36 35 33 32 31 28 25 21 20 19 17 15 12 10 7 5 6 11 13 10 9 11 13 12 9 10 10 10 11 12 11 15 19 23 23 23 22 22 20 18 22 28 27 27 27
36 35 39 42 45 47 47 46 44 40 38 34 31 29 24 22 22 21 22 20 16 12 9 7 5 4 4 5 6 9 8 5 7 10 15 15 10 11 9 9 10 12 17 22 26 28 26 26 25 23 23 27 30 31
40 36 34 37 39 41 43 42 41 38 36 33 29 27 25 24 24 25 22 20 15 12 11 6 5 6 6 1 4 3 2 6 12 14 10 13 10 9 6 6 7 9 13 16 19 23 27 31 30 29 27 30 33 34
42 36 32 33 36 38 38 38 33 32 33 31 31 28 27 26 25 23 22 20 15 14 10 7 8 9 6 4 2 2 6 9 15 14 11 8 10 7 4 7 11 12 13 16 20 21 23 26 28 31 33 35 37 39
43 36 32 33 35 38 37 36 36 38 36 33 31 30 28 29 28 21 15 13 13 15 11 7 9 8 7 5 6 7 8 8 11 12 11 14 12 11 14 13 16 16 15 16 18 20 23 26 28 32 35 37 39 41
41 36 32 33 36 39 40 41 42 42 41 37 33 33 33 28 21 13 18 19 17 13 10 8 11 10 10 10 9 8 9 10 9 7 9 12 13 14 14 14 13 11 12 14 17 19 22 25 28 31 34 37 40 42
39 36 35 36 38 40 45 46 45 44 48 36 30 35 30 24 20 17 17 16 14 11 10 12 15 15 12 9 9 8 6 4 3 5 8 10 13 16 16 15 14 15 17 19 21 23 26 28 30 33 36 38 41 44
38 37 37 39 42 47 49 48 47 51 47 40 40 31 31 24 20 14 14 15 13 12 11 13 17 16 14 11 9 8 5 3 6 7 9 13 11 10 11 13 14 17 18 19 21 24 27 32 36 39 42 44 47 50
38 38 39 42 48 49 49 49 51 52 48 47 37 29 25 21 19 18 17 15 13 14 12 14 17 17 16 14 11 9 8 9 8 11 12 10 11 12 14 15 16 18 21 24 28 32 35 38 41 45 49 52 54 54
40 41 45 47 47 47 48 48 50 53 47 38 34 28 22 22 22 21 20 17 14 13 13 12 17 18 16 14 11 10 9 10 13 12 10 11 13 14 16 18 21 25 28 30 33 36 39 42 46 48 51 52 53 55
42 44 45 45 44 44 43 44 44 40 37 31 27 26 23 24 25 24 22 20 18 14 13 13 14 16 16 15 12 10 12 13 13 11 13 14 15 18 21 24 27 30 32 34 36 39 43 46 48 50 52 53 53 55
33 35 37 37 38 39 40 37 33 32 31 28 27 26 25 24 24 25 25 24 22 20 14 13 13 15 16 14 13 13 13 11 11 13 13 15 19 23 26 29 32 32 34 36 38 42 44 46 49 51 52 53 56 57
30 30 32 32 34 34 33 32 31 29 29 26 24 23 25 26 28 27 28 28 24 22 17 16 16 16 15 14 13 12 11 12 12 13 15 19 24 27 31 33 33 33 36 39 42 44 46 49 51 52 54 55 53 47
32 30 30 32 32 31 30 30 27 28 28 23 20 23 19 21 27 28 28 29 27 22 20 20 19 17 15 13 12 11 12 12 13 16 20 24 28 32 34 36 36 37 40 43 45 47 50 52 53 55 55 51 44 39
30 28 28 28 24 23 19 25 27 32 30 23 22 22 22 26 25 27 26 24 24 23 22 21 19 15 13 12 11 12 11 13 16 20 25 29 32 36 38 39 39 40 43 46 49 51 53 55 57 55 50 44 40 38
30 28 25 22 25 24 21 21 23 28 29 25 21 18 20 20 22 21 22 21 22 24 23 20 15 13 12 11 10 11 13 16 20 25 29 31 35 39 41 41 41 44 47 49 51 54 57 59 57 52 46 41 39 38
25 19 22 19 17 19 20 23 22 23 24 19 17 18 20 21 21 21 23 24 24 23 19 15 14 12 10 9 9 12 16 21 25 29 32 35 38 42 43 43 44 47 49 52 55 58 61 61 56 49 43 40 39 38
17 16 14 15 17 20 20 20 22 23 21 19 19 20 20 21 22 23 24 24 21 18 15 14 12 9 8 9 11 16 20 24 28 32 36 38 42 46 45 45 47 48 52 55 58 61 63 60 52 46 42 39 39 38
14 13 12 12 15 19 20 21 21 22 22 21 21 21 22 24 24 24 21 19 18 16 15 12 10 8 8 11 16 20 25 29 32 36 39 41 45 47 46 47 48 51 54 58 61 64 62 56 48 42 39 38 38 37
12 12 11 16 17 18 18 20 21 22 22 23 24 25 24 22 21 20 19 18 16 14 12 9 8 9 12 16 21 25 29 33 35 39 42 45 48 46 46 48 50 54 57 60 63 63 58 50 43 40 39 39 39 38
12 12 14 17 16 17 18 19 20 20 22 22 21 21 21 21 20 19 18 15 13 12 9 8 9 13 17 21 24 29 32 37 40 43 46 49 48 47 48 49 52 56 59 63 64 60 53 46 43 42 41 40 39 39
13 15 17 17 16 17 18 20 21 21 21 22 22 22 21 20 19 16 15 13 11 10 10 11 14 18 21 25 29 33 36 40 44 47 49 49 47 48 49 51 55 58 61 64 62 56 49 46 45 43 41 41 41 40
16 18 19 18 19 20 20 20 20 20 20 20 20 19 19 17 16 15 15 15 14 13 14 15 19 22 26 29 33 36 40 44 47 49 50 48 47 49 50 53 57 60 63 63 58 51 47 45 43 44 45 45 45 43
19 20 21 20 20 20 19 20 20 20 20 19 19 17 17 17 17 16 16 16 16 17 18 21 24 27 30 34 37 40 45 47 49 50 48 47 48 50 52 55 58 61 62 59 53 49 47 46 47 47 44 42 41 41
22 23 22 21 20 20 20 20 19 17 16 17 17 18 19 19 19 18 19 19 20 21 22 25 29 32 35 38 41 45 47 49 49 47 46 48 49 51 54 56 59 61 60 54 50 48 47 48 46 44 42 41 42 43

GFSWCAN_500_spd_102.txt.gz
Wind_Speed
35 37 35 34 33 33 33 33 31 31 30 27 23 22 22 20 19 20 21 23 22 22 22 23 23 22 22 19 17 14 19 18 18 20 15 12 9 7 8 9 9 8 8 6 7 5 6 9 13 14 16 17 19 21
31 32 33 33 33 32 31 29 26 25 23 22 21 20 20 20 21 22 22 22 22 22 23 23 22 23 20 16 14 15 17 19 19 21 19 14 13 11 9 3 9 11 9 7 7 8 9 11 13 15 17 17 18 19
31 31 31 30 30 29 29 27 25 25 23 22 22 21 22 22 22 22 22 23 22 22 22 22 20 21 16 13 11 13 14 17 20 18 20 19 18 15 15 16 13 12 11 12 13 15 15 13 15 14 16 18 19 20
34 33 30 28 27 27 26 26 25 24 24 24 22 22 23 23 23 23 24 23 21 21 21 20 19 16 12 10 9 12 12 13 18 18 18 18 18 18 18 14 15 14 11 13 15 16 16 16 16 17 17 18 19 20
37 36 34 34 32 31 30 29 28 27 27 26 24 24 24 24 25 25 24 22 21 17 19 16 14 11 9 8 8 9 9 10 14 17 18 18 19 20 17 15 14 14 14 15 15 16 17 18 17 18 18 17 19 19
41 40 38 38 36 35 34 33 32 31 31 29 28 27 27 27 26 25 23 22 19 18 16 12 13 8 8 8 7 7 7 7 10 14 17 17 18 18 16 12 17 16 16 17 16 18 18 17 17 19 20 19 19 21
43 42 40 39 38 37 36 35 33 32 31 30 30 28 27 27 26 26 24 20 16 17 13 8 6 7 7 7 7 6 7 7 7 7 10 14 18 18 15 12 19 18 16 16 15 17 17 17 17 17 18 21 22 23
43 42 41 40 38 37 36 34 33 32 31 30 29 28 28 27 26 24 23 18 16 16 13 9 8 5 6 8 9 9 10 11 12 10 9 10 13 7 9 16 19 19 18 16 17 19 18 17 18 18 18 18 20 23
45 44 43 41 40 39 38 36 35 33 33 32 30 29 27 26 22 23 20 17 16 15 12 11 8 6 11 13 14 13 13 13 13 12 11 9 7 11 14 14 14 17 18 18 20 21 24 24 22 22 21 22 25 28
46 45 45 43 42 41 40 40 39 38 35 32 30 27 27 19 22 20 20 19 17 15 11 11 9 5 5 5 5 7 8 8 3 5 6 7 9 9 8 6 7 9 11 14 18 23 25 26 28 28 28 29 29 27
40 41 43 44 44 45 45 44 42 40 38 36 32 29 23 24 21 21 21 19 15 14 13 11 8 6 4 1 2 5 3 2 4 4 11 7 9 7 4 2 2 4 6 9 13 17 20 24 30 33 35 36 37 36
38 36 35 37 39 42 45 45 45 43 40 36 29 25 25 25 25 24 21 19 17 16 12 11 9 9 9 6 5 5 6 6 9 10 12 10 8 6 4 4 7 9 12 13 15 17 18 20 22 24 27 30 33 37
42 40 37 34 34 35 36 36 34 33 33 31 29 28 28 27 28 25 20 15 14 15 14 11 10 12 9 8 6 5 5 8 10 11 11 8 7 7 8 11 11 13 12 11 12 15 18 20 23 26 28 31 34 37
47 41 36 31 31 33 34 33 31 29 31 33 32 29 29 29 25 18 15 18 19 18 16 12 12 11 9 9 8 6 5 7 8 10 10 8 10 12 14 15 15 15 14 13 14 16 18 21 24 27 29 31 34 36
50 43 35 32 31 33 37 39 38 38 38 36 33 32 31 26 22 18 15 16 17 16 14 11 14 13 13 10 10 8 7 6 4 5 7 9 12 14 16 15 13 13 14 16 18 20 21 22 24 27 31 34 38 42
49 41 35 32 33 36 41 43 44 44 41 40 24 29 29 27 21 16 15 16 16 15 13 11 17 15 13 9 8 9 6 5 4 5 7 10 14 12 11 11 13 15 16 17 19 21 24 27 30 33 37 40 43 46
42 37 33 34 37 40 43 46 47 48 42 38 38 31 27 24 19 19 17 18 15 13 11 10 16 17 14 13 10 8 8 7 6 8 10 8 7 9 12 13 14 15 18 22 25 27 30 32 34 38 42 45 47 50
37 34 34 37 38 41 46 48 52 51 42 34 33 28 27 26 20 17 16 15 13 12 11 10 15 17 16 12 10 12 10 10 9 11 9 8 10 11 13 15 18 21 24 28 30 31 33 36 38 42 45 47 50 54
36 36 37 38 42 45 48 50 53 47 45 40 33 26 26 21 18 18 18 16 14 12 11 11 11 13 14 15 13 12 11 11 12 11 10 11 12 14 17 20 24 28 31 33 35 35 36 40 44 47 50 52 55 57
39 39 40 44 46 48 50 50 52 46 42 40 35 28 22 18 20 22 20 19 16 13 10 8 9 10 13 14 14 14 13 13 12 12 12 13 15 18 22 26 29 33 35 37 38 39 41 44 47 51 53 56 57 60
39 41 43 45 46 46 46 45 48 45 41 34 30 26 25 23 24 24 23 21 18 15 13 12 11 11 12 13 14 14 13 13 13 13 13 16 20 23 27 31 34 37 40 40 40 41 44 48 51 53 56 58 61 61
35 36 37 37 37 37 36 34 34 36 32 29 26 25 24 23 23 24 24 23 20 17 14 14 15 14 13 14 14 13 14 13 13 14 16 20 24 27 31 33 37 41 42 42 43 45 48 51 54 57 59 62 62 59
28 27 29 28 28 26 27 29 29 27 27 26 22 20 21 20 21 26 27 26 23 24 21 18 18 16 15 15 14 15 14 14 14 16 20 24 28 31 35 38 41 45 47 44 46 48 51 54 57 60 63 63 60 55
25 25 25 25 24 24 26 25 25 26 27 25 20 20 19 17 20 22 18 16 19 22 21 20 19 17 16 15 14 14 13 14 16 20 23 27 32 35 38 41 45 49 49 47 49 51 54 57 60 63 64 62 56 49
26 25 23 24 24 22 21 24 27 28 30 27 26 25 24 24 25 27 24 21 23 22 22 21 19 17 16 15 13 13 14 15 19 22 27 32 35 38 41 45 49 50 49 49 51 53 57 60 63 65 64 58 51 46
25 21 17 18 20 17 17 19 17 17 23 29 24 21 21 21 22 21 20 22 24 23 22 20 18 16 14 14 13 13 15 18 22 26 30 34 38 42 46 49 52 50 50 51 53 56 59 62 65 65 61 54 49 46
15 11 11 12 14 12 15 17 20 20 22 24 20 19 21 20 18 17 20 22 21 21 19 17 16 15 14 13 13 14 17 21 26 29 34 39 43 47 51 53 53 51 51 53 56 59 61 64 66 63 56 51 48 45
12 11 10 10 13 17 18 18 19 20 20 19 20 21 19 15 14 19 20 21 20 19 18 17 16 14 12 12 14 18 21 26 30 34 38 42 46 50 53 55 52 52 53 55 58 61 63 66 65 59 53 50 47 47
10 10 9 10 12 14 15 16 16 17 18 19 18 15 13 16 20 20 20 20 19 18 16 14 13 13 13 15 18 22 26 30 34 38 42 46 50 52 55 53 52 53 54 57 60 62 65 66 60 55 50 50 50 47
11 10 10 12 13 13 15 16 17 18 17 18 20 21 22 22 21 20 19 17 16 14 14 15 15 15 17 20 24 27 31 34 38 41 45 49 52 54 54 52 53 54 57 59 61 64 66 62 56 52 51 49 47 45
13 12 13 13 13 14 15 16 16 17 18 19 20 19 19 19 19 19 18 18 19 18 16 16 17 19 22 25 28 32 35 38 42 44 48 52 54 53 52 52 54 56 59 60 63 65 63 57 53 51 49 47 44 43
13 14 14 14 14 15 17 17 18 17 17 18 18 18 19 18 18 18 18 17 17 18 18 19 21 24 26 29 33 36 39 43 45 48 51 53 52 51 52 53 55 58 60 62 64 63 57 53 52 49 46 44 43 44
15 16 16 16 16 17 17 18 18 18 18 18 18 18 18 19 20 19 19 19 19 21 22 24 25 28 31 34 37 40 43 45 48 51 52 51 49 51 53 55 57 59 61 63 63 58 53 51 49 45 43 42 44 46

GFSWCAN_500_spd_105.txt.gz
Wind_Speed
33 34 33 33 34 33 33 35 35 37 34 31 29 28 26 25 22 20 21 19 18 21 19 21 22 23 26 26 23 19 19 17 16 23 20 18 11 6 9 11 11 9 6 4 4 3 3 2 7 11 12 14 15 16
32 32 31 32 32 33 34 35 36 35 33 31 30 27 25 22 20 21 19 17 19 20 20 22 22 23 26 23 17 15 16 16 17 23 21 21 18 13 10 11 13 13 10 8 6 5 3 5 7 9 13 16 17 16
32 33 32 30 32 32 31 33 33 33 30 29 27 24 23 22 22 19 18 19 19 20 20 21 21 24 23 17 13 14 14 15 16 20 25 22 21 18 18 17 15 16 15 14 11 11 10 11 11 11 14 17 18 19
30 31 31 32 31 32 32 31 30 29 27 25 24 23 22 21 20 19 19 19 20 20 20 18 19 22 17 13 11 10 10 11 14 16 19 22 21 19 19 20 19 17 15 16 14 13 12 14 14 14 16 17 18 19
30 28 29 30 33 34 34 33 31 29 27 26 24 25 22 20 20 20 19 21 19 18 18 17 19 19 14 10 7 6 8 10 11 13 16 17 19 21 23 23 19 18 18 16 15 14 14 16 16 16 16 17 17 17
37 35 33 32 30 30 29 30 30 28 26 26 25 22 20 21 22 20 21 20 19 17 15 16 17 11 7 5 5 6 7 7 8 10 13 16 18 21 23 20 21 20 17 18 17 16 17 16 16 17 18 18 19 18
38 38 37 36 34 32 31 30 29 29 27 25 25 24 22 22 21 20 21 20 18 16 13 14 13 7 6 5 6 6 5 5 4 2 5 12 16 18 18 20 22 21 19 18 18 17 16 16 16 16 17 17 17 18
40 39 38 37 36 34 34 32 30 29 29 27 26 25 24 23 22 22 21 20 18 14 12 10 10 7 7 4 6 6 6 5 5 6 6 6 9 14 14 16 17 17 18 19 18 17 17 15 16 15 16 17 18 19
43 42 41 39 37 36 35 33 33 32 30 28 27 26 25 24 24 23 22 19 15 11 9 8 9 8 8 8 10 11 11 9 8 8 8 8 10 13 15 12 12 14 16 18 17 17 18 18 21 21 20 22 23 25
45 43 42 40 38 38 37 35 34 33 31 30 29 28 28 27 23 22 20 17 14 12 10 11 10 9 9 8 4 3 4 4 4 3 3 6 11 12 10 9 8 6 6 8 11 14 17 19 21 23 25 28 30 31
45 44 43 41 39 38 37 36 36 35 32 30 30 29 26 24 22 21 19 15 13 11 13 12 11 9 6 2 2 3 2 1 2 0 4 8 6 4 4 4 2 2 3 5 8 10 13 15 17 20 22 24 26 30
44 44 43 42 41 40 39 38 37 35 33 33 30 28 25 23 21 21 17 15 14 15 15 13 9 7 7 5 2 4 6 5 7 4 6 6 4 3 3 1 3 5 7 10 12 12 11 12 14 15 18 21 24 27
38 39 39 39 40 40 40 39 40 40 38 36 32 27 25 24 23 20 14 11 10 13 15 12 10 12 12 10 11 9 4 7 9 8 10 6 2 2 3 6 8 10 11 10 8 9 11 14 16 19 21 23 25 28
35 34 34 33 34 36 37 38 39 39 38 35 30 28 25 24 20 15 10 14 16 16 13 12 11 12 14 11 8 6 7 8 8 9 7 4 4 6 10 11 13 13 11 10 11 13 14 16 19 21 23 25 28 32
37 35 34 32 31 31 32 32 31 31 30 31 30 29 27 22 19 13 13 14 14 12 13 14 10 12 12 12 11 8 9 10 9 7 6 7 10 11 12 11 8 8 9 12 14 16 17 20 22 25 28 31 34 38
42 38 34 29 28 28 29 30 31 31 30 30 30 25 23 22 18 17 13 13 13 14 15 13 12 14 14 12 12 13 12 7 4 4 6 9 11 11 8 8 10 12 13 14 16 19 23 26 29 32 34 37 39 42
43 39 34 30 28 29 32 37 40 39 38 35 37 27 22 23 20 16 13 12 13 14 13 11 14 17 15 13 12 12 10 8 6 6 7 8 7 6 8 9 10 12 15 19 22 26 29 31 34 36 39 42 44 47
43 39 33 30 28 30 36 41 43 43 39 39 25 17 22 23 20 16 15 14 13 13 13 11 13 17 16 13 12 10 9 9 8 7 9 8 8 8 9 11 14 17 20 24 28 32 34 37 39 40 41 43 46 48
40 37 32 29 29 33 38 41 43 42 42 38 30 21 20 23 21 19 16 15 14 12 12 8 6 10 14 15 13 12 9 9 8 10 10 9 10 9 12 15 19 23 26 29 32 35 39 41 41 42 44 47 51 55
37 34 31 32 34 37 39 42 46 37 31 23 25 24 19 22 21 18 16 16 15 13 10 8 7 7 10 12 12 12 11 10 10 11 11 11 10 13 17 21 24 27 30 34 38 41 43 43 42 44 46 50 55 57
34 33 34 36 38 40 42 46 51 38 27 27 26 23 22 22 18 17 16 17 15 12 9 9 6 6 7 9 10 11 11 11 11 12 12 12 14 17 21 24 28 31 35 38 41 44 45 45 47 48 50 54 58 60
32 34 36 38 40 42 45 48 51 42 32 29 28 24 20 20 18 18 18 17 15 14 11 9 9 8 8 8 10 9 10 11 13 13 13 15 18 21 25 29 33 36 39 42 46 48 49 49 50 52 54 58 60 63
31 33 35 37 37 37 39 39 43 37 31 27 26 24 21 20 21 20 19 16 15 16 13 14 13 12 11 11 10 10 11 13 14 14 15 17 20 24 28 32 36 40 44 48 51 52 51 51 52 55 58 61 63 65
27 25 26 26 26 28 28 29 32 35 34 27 26 21 19 20 20 19 17 16 19 20 19 19 17 17 14 12 12 11 13 14 14 15 17 20 23 26 31 36 42 47 50 53 55 55 53 54 55 58 61 62 65 65
24 23 22 21 20 21 23 23 23 25 27 26 23 21 18 20 18 15 13 14 18 20 21 20 19 18 15 13 14 12 14 15 15 17 20 23 26 31 37 41 45 50 53 56 58 56 55 56 58 61 63 65 66 65
18 19 18 18 18 18 20 23 24 25 26 27 24 21 19 21 22 19 15 17 23 22 20 20 20 16 13 16 14 15 15 16 18 20 23 27 32 36 41 44 48 53 56 59 58 57 58 59 62 63 65 67 66 60
17 14 13 15 17 15 14 17 20 22 26 30 28 25 23 24 22 18 17 21 23 23 22 20 16 13 14 17 16 14 15 18 21 23 27 32 36 41 45 48 52 56 59 60 58 58 60 62 63 65 67 68 63 56
8 6 9 15 17 18 17 18 20 21 19 18 22 25 24 21 16 14 19 23 22 20 18 15 15 17 19 15 13 16 18 21 24 28 32 36 40 45 49 52 55 59 61 59 59 60 62 63 65 66 68 64 57 54
5 5 7 6 8 12 17 18 18 18 18 18 20 20 18 15 14 18 21 20 18 17 17 17 17 15 14 15 17 19 22 25 29 32 36 40 44 49 52 55 58 61 60 59 61 62 64 65 67 68 66 58 54 52
9 8 7 7 7 9 12 16 18 18 18 18 18 19 18 19 19 18 17 18 18 17 16 15 16 17 17 18 20 23 26 29 33 36 40 44 48 51 55 58 60 59 59 61 62 64 65 67 68 66 59 54 51 47
10 9 8 9 9 10 11 12 13 13 14 15 16 17 17 17 17 17 16 16 16 16 17 17 17 18 19 21 24 26 29 33 37 41 44 48 50 54 58 59 58 58 60 61 64 64 67 68 66 58 53 50 46 44
11 11 10 10 10 11 12 13 14 15 15 15 15 14 14 14 14 15 16 16 17 17 17 18 20 21 22 24 27 30 34 38 41 44 48 50 54 58 58 57 57 59 61 63 64 66 68 66 57 52 49 45 42 44
11 11 12 10 10 10 12 12 13 14 14 14 14 14 14 15 16 17 17 18 18 19 20 20 20 22 25 28 31 35 38 41 44 48 50 53 56 57 55 55 57 60 62 63 65 67 64 56 50 47 44 41 42 44

GFSWCAN_500_spd_108.txt.gz
Wind_Speed
23 22 21 19 19 21 30 38 43 44 42 40 37 36 35 33 29 26 25 23 21 18 18 20 21 22 22 24 26 28 23 19 17 15 16 21 16 13 13 10 16 18 18 16 15 13 8 4 3 5 6 7 8 11
22 25 26 27 29 32 34 38 37 35 35 36 37 38 33 30 28 26 24 23 20 17 20 20 21 22 22 25 26 25 20 16 13 13 21 25 18 19 14 13 14 14 14 13 11 9 8 6 2 2 4 8 10 13
24 26 28 30 31 30 31 34 35 36 37 38 38 36 33 29 27 26 24 21 17 18 20 20 21 21 22 24 24 20 14 12 12 14 21 27 21 21 16 15 15 14 14 15 13 12 9 7 6 6 6 9 11 14
28 27 28 29 30 31 32 33 34 35 37 38 36 33 30 27 26 24 21 19 17 18 19 20 19 18 21 22 18 13 11 9 9 12 17 22 25 19 22 18 17 15 15 17 17 15 13 11 9 8 10 11 14 16
30 29 27 29 32 30 29 29 31 31 34 35 33 30 27 25 23 22 20 18 18 18 17 17 17 17 19 16 11 8 6 5 8 10 14 17 18 21 21 22 19 18 20 19 19 18 15 13 10 10 11 13 16 17
31 30 30 29 29 29 30 30 30 32 33 33 31 28 26 25 23 21 19 19 19 17 16 13 14 15 14 9 6 6 5 4 7 10 12 16 16 17 21 22 22 22 21 19 21 21 19 18 15 15 16 16 16 18
33 31 29 29 29 30 31 34 36 35 35 31 29 27 27 24 21 21 20 18 17 16 12 13 12 12 9 6 6 6 3 3 3 3 7 13 15 15 18 20 23 22 21 20 20 20 20 19 19 18 16 18 18 16
31 29 29 27 27 31 34 38 36 34 31 31 31 28 25 22 21 20 18 17 17 12 11 11 11 9 7 5 5 5 4 5 4 4 4 5 11 16 17 16 17 20 22 21 19 18 17 19 19 18 17 18 19 20
36 34 34 34 33 33 33 33 33 32 31 28 26 25 24 22 22 19 19 19 14 11 12 11 12 9 6 5 7 9 11 11 10 8 6 7 9 12 15 14 14 14 15 15 16 18 19 20 20 21 22 23 23 24
37 38 38 37 35 34 33 33 32 31 29 27 25 25 25 23 20 19 20 17 13 12 14 14 11 8 6 6 7 6 5 4 5 4 5 8 9 10 10 8 8 8 7 7 8 10 13 17 19 21 23 23 24 24
37 35 34 33 33 31 30 30 30 30 27 26 25 24 23 23 23 23 20 17 12 13 15 14 11 8 6 5 4 2 1 1 1 1 1 5 7 7 7 7 6 3 1 1 3 6 9 12 15 16 17 18 19 19
38 37 36 35 34 33 32 33 31 28 28 28 27 26 26 24 23 22 19 15 13 17 17 13 10 9 8 8 4 4 2 3 7 4 7 9 9 9 8 6 2 2 5 7 10 12 13 14 14 15 17 18 20 22
41 40 39 38 37 36 36 35 34 33 31 31 30 28 26 25 24 22 15 11 14 16 17 13 12 10 12 11 9 7 8 5 9 8 6 7 5 3 3 4 6 7 9 11 11 10 10 12 14 17 19 21 24 26
41 39 39 38 37 37 36 34 34 33 32 31 30 28 26 24 22 14 14 17 19 20 18 14 12 10 13 10 9 8 5 11 9 8 7 5 4 3 5 7 8 8 6 6 7 9 12 15 17 20 23 26 29 32
37 38 38 37 36 36 36 35 35 35 34 32 31 29 26 24 20 16 17 18 20 16 15 14 12 9 12 12 9 8 9 10 10 10 8 5 6 8 8 9 6 6 7 9 11 13 16 19 22 26 29 32 35 38
35 35 34 33 33 33 32 32 32 32 31 29 28 26 25 23 19 20 17 16 15 14 14 13 12 9 11 12 13 12 13 10 7 6 5 6 8 9 6 5 6 7 9 11 13 16 19 23 27 31 33 36 39 42
32 31 31 31 29 29 29 29 29 30 30 29 24 25 21 21 24 24 20 15 13 12 13 13 11 13 12 15 16 17 14 11 7 4 5 7 7 5 5 5 6 9 11 14 18 22 25 29 32 36 38 40 42 43
34 31 29 27 26 25 26 28 29 28 26 28 29 25 24 26 25 23 17 14 12 12 14 13 10 14 15 13 15 16 11 10 8 7 6 8 6 6 5 6 9 12 16 19 23 27 30 34 36 38 41 42 43 45
34 31 28 26 26 26 27 30 31 33 36 38 32 26 26 27 24 19 16 14 14 14 13 11 9 14 18 16 14 13 11 11 10 8 8 8 7 7 8 10 13 16 20 24 28 32 35 37 40 42 44 45 46 49
35 34 30 29 27 27 29 33 36 37 41 35 27 20 26 25 22 18 16 14 15 14 14 11 10 12 15 16 15 14 13 12 10 10 9 9 9 10 11 14 18 21 24 28 32 36 39 42 45 47 48 49 50 53
36 34 31 27 26 28 31 33 32 38 42 34 23 29 18 24 22 19 16 16 16 13 11 13 10 9 8 10 12 13 13 12 10 10 11 11 11 12 15 18 21 24 27 31 37 42 46 49 51 53 53 52 54 55
33 30 28 28 29 31 31 32 37 35 32 28 27 18 19 22 21 19 17 16 16 14 13 11 9 9 8 9 9 11 12 12 11 11 12 12 13 15 18 21 23 27 32 37 41 46 51 54 56 57 56 57 58 60
29 27 26 28 30 31 35 41 43 39 34 29 25 22 24 23 19 18 17 15 14 14 14 13 12 11 11 9 10 11 13 12 12 12 13 13 15 18 21 24 28 33 38 42 45 50 55 59 61 60 59 60 62 64
26 26 27 27 28 33 44 46 45 35 25 26 28 27 21 18 17 18 16 14 15 16 16 16 17 16 15 14 12 15 15 13 12 14 14 15 18 21 24 29 33 38 43 48 50 55 59 62 64 61 62 63 65 66
22 21 21 22 25 30 39 45 37 32 28 25 24 22 19 18 19 18 15 15 16 16 17 18 20 19 19 17 16 16 15 14 14 15 16 18 22 25 29 34 38 43 48 51 55 60 62 65 63 63 64 66 67 68
21 21 21 22 23 25 27 30 36 38 34 30 27 23 22 22 21 18 16 15 15 16 19 20 21 19 20 19 19 19 16 15 16 16 18 22 25 29 34 38 43 47 52 55 59 62 65 64 64 65 67 68 69 70
21 20 19 18 18 18 19 20 22 24 25 24 23 24 27 24 20 17 16 16 18 20 20 22 21 20 21 22 20 16 17 16 16 19 23 26 30 34 37 42 46 51 55 58 62 66 65 65 65 68 69 70 71 70
20 16 13 14 16 16 17 18 19 19 20 21 24 26 25 20 13 13 16 18 22 25 24 19 18 21 22 19 16 15 17 18 21 23 26 30 34 38 41 45 50 54 58 62 66 66 64 65 67 69 70 72 71 62
9 6 3 7 17 17 16 17 18 20 21 22 23 25 25 24 23 23 22 23 25 24 19 18 19 20 18 15 15 18 20 21 22 26 30 34 38 42 46 49 53 58 61 65 66 64 65 67 69 70 72 71 62 55
1 1 3 6 5 8 14 18 22 22 21 22 21 19 19 20 21 21 22 23 22 18 18 18 19 17 17 18 19 20 21 23 27 31 34 38 42 46 49 53 57 60 64 65 63 63 66 69 70 72 71 61 55 51
4 4 5 7 9 8 10 13 17 19 19 19 19 19 20 19 19 20 19 19 19 18 17 17 17 18 19 20 20 21 23 27 30 34 38 41 45 49 52 55 59 62 64 62 62 65 67 69 72 70 60 53 49 45
9 9 10 9 11 11 10 13 16 17 18 18 18 17 17 17 18 18 17 17 16 17 18 19 18 18 19 20 21 24 27 30 34 38 41 45 49 51 54 57 61 62 60 60 64 66 68 71 68 57 51 47 43 43
9 11 12 11 10 10 9 10 12 13 13 13 14 14 15 16 15 15 15 15 17 16 16 17 18 19 20 22 25 28 32 35 38 41 45 48 49 53 56 60 59 58 59 62 64 67 70 65 55 50 46 42 41 43

GFSWCAN_500_spd_111.txt.gz
Wind_Speed
31 32 34 34 33 32 32 31 32 30 29 32 40 52 54 47 42 37 33 30 26 24 24 22 22 19 17 21 24 25 26 27 24 21 21 19 20 18 18 18 13 22 24 26 23 23 15 9 8 9 6 5 8 9
31 32 32 32 29 28 28 27 27 28 32 39 45 52 48 43 39 35 32 28 25 23 22 22 21 17 20 22 24 26 25 26 23 21 20 19 23 22 20 16 14 22 25 24 21 17 15 12 8 6 6 7 9 10
26 27 30 29 24 23 23 24 25 25 33 37 46 44 41 40 37 33 30 26 24 23 22 20 18 18 20 22 24 23 25 23 19 19 18 20 23 26 21 22 16 15 17 18 15 15 14 13 9 8 7 5 7 9
23 25 25 24 24 22 20 19 25 29 36 40 37 38 37 37 33 31 28 25 22 21 20 19 18 17 18 21 21 22 19 15 13 13 16 19 18 27 21 22 17 15 15 14 14 14 14 13 12 11 11 10 10 11
23 24 25 24 25 27 27 29 31 30 32 35 37 37 36 34 31 29 25 22 22 21 19 18 16 15 16 16 17 14 9 5 7 9 10 13 15 16 24 20 19 15 15 13 13 14 16 16 15 14 12 10 9 11
24 26 26 27 27 27 28 29 32 33 34 34 35 34 32 30 29 25 23 24 22 21 20 17 15 13 13 13 10 8 6 8 9 9 11 12 14 14 14 18 18 17 15 14 13 16 18 18 17 17 16 16 17 17
25 26 26 26 28 28 29 29 29 29 29 30 32 31 31 30 27 24 24 23 22 20 17 14 12 12 11 10 6 6 7 5 5 5 7 10 13 16 13 14 18 18 18 17 16 15 16 18 19 21 21 21 21 21
26 25 25 26 27 26 27 29 27 28 29 30 32 33 31 28 28 25 22 21 19 16 15 13 10 9 9 9 7 8 7 6 7 6 6 6 11 16 15 13 15 16 17 18 18 18 19 20 19 19 21 22 24 24
26 25 25 26 25 26 27 28 29 31 33 34 34 32 30 29 26 23 22 20 18 15 15 12 9 9 10 10 8 7 10 13 13 12 9 8 8 11 16 16 16 15 15 16 17 19 19 20 20 20 21 23 24 25
26 24 26 28 27 25 26 32 34 35 35 35 34 32 31 27 24 21 19 17 16 15 14 11 9 11 11 11 10 8 9 7 7 7 9 11 10 9 10 10 11 11 10 11 11 13 14 16 17 19 21 23 24 24
26 25 26 27 28 29 30 30 35 34 34 33 30 28 26 24 22 20 17 15 16 15 13 10 10 12 11 9 8 6 5 6 6 5 5 7 10 10 8 6 5 5 4 2 2 4 7 9 12 13 15 16 17 18
28 27 27 28 31 32 33 32 32 32 32 29 27 27 25 24 22 19 16 16 17 15 10 11 12 12 10 9 9 6 4 6 5 2 5 8 10 11 11 8 5 3 3 5 7 8 10 11 12 13 14 16 18 20
35 34 33 33 33 33 34 33 33 32 30 28 26 25 24 22 21 17 15 16 16 13 11 13 13 12 11 12 11 8 6 6 4 7 11 11 9 8 7 5 4 6 7 8 9 9 9 10 11 13 16 18 21 24
34 33 32 31 30 30 28 28 27 26 26 26 25 24 23 23 20 18 20 18 15 13 13 16 15 12 11 13 12 9 6 6 8 10 10 7 4 3 4 6 7 8 6 4 4 5 7 9 13 16 20 23 27 30
35 33 32 31 30 29 29 28 28 27 26 26 24 24 23 20 19 18 16 14 12 14 16 15 14 13 11 14 12 7 8 10 10 10 9 5 5 6 6 6 4 3 2 3 5 8 11 14 18 22 25 29 32 35
36 35 33 32 31 30 29 29 28 28 27 25 25 24 22 20 18 16 15 14 16 16 16 16 15 13 12 13 12 9 9 12 11 9 7 7 6 7 4 2 2 2 3 6 9 13 17 20 24 27 31 34 36 38
33 32 30 30 31 30 29 29 29 28 28 27 26 24 21 20 17 16 16 19 19 17 17 16 16 15 11 12 12 12 13 12 9 7 4 5 6 4 3 3 3 5 8 11 14 18 21 24 29 32 35 37 39 41
30 29 27 26 26 26 26 27 27 28 26 25 25 23 22 21 20 20 22 21 19 16 15 15 14 13 12 13 15 16 15 11 9 8 7 6 6 5 5 5 7 9 12 15 18 21 24 28 32 35 39 41 45 46
30 30 29 29 28 28 27 27 26 26 27 26 25 25 24 23 23 25 24 21 16 15 15 15 13 14 17 16 15 16 16 12 11 11 11 9 8 7 8 9 11 13 16 19 21 24 28 32 37 42 47 51 52 54
31 29 29 28 28 27 27 26 27 26 29 30 29 28 27 29 26 28 25 19 17 15 15 14 14 15 19 17 16 14 14 14 13 13 12 11 10 10 10 12 14 17 19 21 24 29 34 38 42 47 51 55 58 58
32 29 28 27 27 26 25 26 30 32 34 36 31 31 28 31 28 25 21 19 17 15 16 16 12 12 16 18 18 17 16 15 15 14 13 12 12 12 13 14 17 20 22 25 30 35 39 43 47 51 56 60 62 61
29 26 25 25 25 23 23 24 26 26 37 34 30 27 26 26 26 23 20 18 17 16 15 13 12 12 13 14 15 16 16 16 15 15 14 14 14 14 15 17 20 22 25 31 36 41 44 49 52 56 61 65 65 64
28 28 27 25 23 22 23 25 25 34 38 31 30 29 25 26 24 22 19 15 15 18 16 15 14 12 11 11 12 14 15 16 16 16 15 15 16 17 17 19 23 26 31 37 41 45 49 53 57 60 66 68 68 67
30 26 23 21 21 22 25 27 32 42 37 27 26 27 24 22 23 18 14 14 15 16 17 17 15 13 13 14 15 15 15 16 17 17 17 18 18 19 20 23 26 31 36 40 44 49 53 57 61 65 70 70 68 69
23 21 19 19 20 26 29 30 38 34 29 28 27 25 27 23 20 18 16 15 15 16 16 18 18 18 19 19 19 20 19 18 18 20 20 20 20 21 24 27 31 35 40 43 48 53 57 62 65 69 71 69 69 71
18 19 21 21 24 26 33 39 40 36 33 31 31 28 24 24 23 19 15 16 16 16 17 18 19 20 20 23 24 23 21 20 20 22 22 22 23 24 27 31 36 40 43 48 52 57 61 64 68 72 70 69 71 73
21 22 21 20 22 33 37 39 37 35 36 34 29 26 24 23 21 17 16 19 19 19 19 20 21 22 23 24 25 24 22 22 23 24 24 24 24 27 31 36 40 43 48 53 57 60 63 66 71 70 70 72 73 76
22 21 21 21 21 26 34 40 39 34 32 30 26 23 24 21 17 18 19 22 24 24 24 24 22 21 22 24 24 23 23 24 23 24 24 24 27 31 35 39 43 47 52 56 59 63 65 70 70 69 71 73 76 75
18 15 14 13 12 17 21 24 26 25 25 25 24 25 24 22 24 23 21 22 24 25 25 27 22 20 21 22 23 24 23 23 23 24 24 27 31 35 39 42 46 51 56 58 61 64 68 68 68 71 72 75 73 63
10 9 7 8 11 14 16 17 17 17 20 21 21 21 21 23 25 26 25 25 26 26 26 25 19 18 20 22 22 21 22 23 23 25 27 31 35 38 42 46 50 54 58 60 63 67 67 67 69 71 74 73 63 54
6 5 6 8 9 9 9 13 17 20 22 21 21 21 22 22 21 21 21 22 24 26 24 20 19 20 20 20 19 20 21 23 25 27 31 34 38 42 46 50 53 56 58 61 65 64 65 68 70 73 70 60 53 48
6 6 8 9 9 11 11 9 12 15 17 19 19 20 21 21 21 20 21 22 23 23 21 18 16 16 17 17 18 21 23 25 28 31 35 38 42 46 48 51 54 55 59 62 61 62 66 69 71 68 58 50 45 42
10 10 12 13 11 10 11 12 11 13 17 19 20 20 19 20 19 19 20 19 19 17 15 15 15 15 17 19 21 23 26 29 32 35 38 41 44 46 49 51 53 57 58 58 60 64 66 69 65 56 49 43 40 40

GFSWCAN_500_spd_114.txt.gz
Wind_Speed
30 31 33 34 35 36 36 36 38 39 39 37 33 31 29 35 38 43 49 46 40 36 33 29 24 23 22 21 19 19 23 24 26 25 25 22 20 21 23 25 23 19 18 16 16 21 21 18 16 10 10 9 8 7
31 33 34 33 35 37 37 37 36 36 31 29 29 29 31 37 41 48 49 42 37 33 30 27 23 22 21 19 18 21 25 27 26 26 25 21 20 21 20 17 22 21 19 22 21 20 23 19 12 10 11 13 12 10
33 35 35 35 35 35 37 37 35 33 32 30 29 29 35 41 46 51 45 38 34 31 26 23 21 20 19 18 19 22 26 25 24 25 21 19 19 20 24 18 18 18 14 17 19 18 18 16 13 12 10 10 9 8
30 33 34 34 34 34 33 33 34 32 30 28 29 32 38 45 48 46 39 33 30 26 23 20 18 18 18 17 18 22 22 20 19 13 12 14 17 18 21 27 20 17 12 9 13 12 10 11 12 11 10 9 9 9
32 37 38 37 36 33 32 32 30 28 28 28 31 34 40 44 46 41 34 30 27 25 18 18 17 16 15 16 17 18 16 13 10 11 12 11 12 13 15 21 24 16 15 10 8 8 7 8 10 11 11 11 11 8
29 30 30 32 34 32 30 30 28 27 26 27 29 32 39 43 40 37 32 29 25 21 18 15 14 13 14 15 14 12 10 7 8 10 11 11 11 12 12 11 18 13 10 8 6 5 5 8 10 10 11 12 13 14
25 28 30 28 27 28 27 25 24 24 24 26 32 38 39 37 36 32 28 24 22 20 17 16 14 13 14 12 11 8 6 6 7 8 9 9 10 12 13 12 11 11 10 9 8 7 7 9 9 11 13 16 18 19
26 26 28 28 28 27 27 28 28 30 31 31 34 36 35 33 31 30 27 24 22 19 17 15 13 13 13 11 9 8 8 7 7 11 11 11 10 10 12 14 12 10 9 8 10 11 10 11 11 14 17 19 21 24
24 25 26 26 26 27 27 28 28 28 27 29 30 31 33 33 31 27 25 21 19 17 15 13 12 12 12 10 10 10 9 8 11 14 15 13 11 9 10 13 13 11 9 9 10 12 12 13 15 18 20 23 25 27
21 21 24 26 26 27 28 28 29 30 31 30 31 33 34 32 30 26 23 20 19 16 14 12 12 11 11 10 11 11 11 11 11 10 10 11 13 11 8 10 11 9 9 10 10 10 11 13 15 16 18 20 22 24
19 19 20 23 24 24 25 28 28 28 29 30 32 33 31 29 26 22 20 18 17 14 13 11 11 10 9 11 10 11 11 9 9 8 8 9 10 9 8 8 7 6 6 5 4 5 6 8 10 12 13 14 16 17
16 18 21 23 26 24 23 26 29 32 33 32 31 31 29 26 22 19 18 17 16 13 11 10 9 9 10 9 9 9 8 8 7 7 5 5 7 6 7 9 9 6 4 3 4 5 5 6 6 7 9 11 14 17
22 20 22 24 25 25 23 23 28 33 34 35 33 31 27 24 22 19 17 16 15 13 12 11 10 10 9 9 8 8 8 8 7 4 4 7 7 7 8 6 4 4 5 6 7 7 6 6 6 8 11 15 19 23
20 21 23 25 26 26 25 25 28 29 30 29 27 25 24 21 19 18 18 16 14 13 11 9 10 10 10 9 9 10 10 10 7 10 10 8 6 4 5 5 6 7 7 5 4 4 4 5 9 12 16 21 25 29
26 27 26 26 26 27 28 27 27 26 26 25 24 22 18 16 16 15 14 14 13 13 10 10 9 10 10 9 10 11 10 7 11 12 11 8 3 3 6 8 8 6 5 5 4 3 6 10 15 18 21 25 29 32
30 29 29 29 29 28 28 27 26 25 23 21 20 17 16 16 15 15 13 13 13 11 11 11 11 10 10 11 11 12 8 10 11 11 10 7 6 6 6 5 6 6 5 3 4 8 12 15 18 21 25 27 31 35
26 25 25 25 24 23 23 22 22 22 21 20 19 18 16 16 15 15 14 13 12 13 14 13 12 12 11 11 11 11 11 12 12 11 7 5 5 5 4 5 6 6 5 6 10 13 16 19 21 24 28 32 36 40
25 25 24 23 23 23 23 22 22 22 22 20 21 20 18 18 17 17 14 13 13 14 14 13 12 13 13 13 14 15 14 14 12 10 8 6 6 6 7 7 7 7 8 11 14 17 19 22 25 28 33 38 42 45
26 26 25 24 24 24 24 23 23 22 22 21 21 20 20 19 19 17 16 15 15 15 15 13 13 15 15 15 16 17 16 14 11 11 9 9 9 9 9 9 10 11 13 16 18 21 23 26 30 35 40 44 48 51
28 26 25 23 22 22 22 22 22 21 22 22 21 22 22 22 21 20 20 18 17 13 13 15 17 15 14 16 18 17 18 16 14 13 12 12 11 11 11 12 13 15 17 19 22 25 27 32 37 41 45 49 53 57
27 25 23 23 23 23 23 22 22 24 24 25 25 25 25 24 25 25 25 21 16 15 16 16 14 14 14 18 18 17 16 16 16 14 14 14 13 13 13 15 17 18 19 22 25 29 32 37 42 45 50 54 58 61
27 26 26 25 25 24 24 24 25 27 27 27 29 28 28 28 28 25 24 21 18 18 17 16 14 12 12 15 19 20 18 18 16 15 15 15 15 16 17 19 20 21 22 25 29 32 37 42 46 50 55 58 62 65
24 22 23 23 23 23 24 24 26 27 30 31 31 31 30 32 29 25 23 21 20 20 17 15 15 15 14 13 14 15 16 17 17 17 17 18 19 20 21 22 22 23 25 29 33 36 41 46 49 55 59 63 66 70
24 24 23 23 22 22 20 21 22 25 25 30 29 29 28 27 26 24 20 18 19 18 18 16 16 15 13 13 14 14 13 14 15 16 18 19 21 22 24 25 26 27 29 32 36 40 45 49 53 59 63 66 69 74
26 26 24 21 19 16 16 18 21 22 31 33 29 29 27 27 26 22 19 17 15 14 15 17 18 18 17 17 17 17 17 17 19 20 21 22 23 25 26 27 28 29 32 35 39 44 48 52 58 63 66 69 73 74
23 21 20 18 16 17 18 21 25 34 30 28 30 29 25 23 23 20 15 13 14 15 15 16 18 19 20 21 22 22 23 23 23 24 25 26 26 27 28 29 30 32 35 39 43 47 52 57 61 66 68 72 73 74
14 15 16 17 17 19 22 25 30 36 32 24 25 22 22 22 20 17 15 15 17 18 17 18 19 20 20 22 23 25 26 27 27 27 28 28 27 28 30 31 32 35 38 42 46 51 56 61 65 67 70 72 73 75
17 17 16 17 19 21 26 32 32 31 26 22 23 24 24 24 21 21 23 20 22 22 21 21 21 21 21 22 24 26 27 29 29 29 27 27 28 30 31 33 35 38 42 46 50 55 59 63 65 69 70 71 74 77
18 16 15 15 17 21 28 32 31 31 27 26 26 28 26 24 24 25 25 23 24 24 23 24 24 25 24 24 25 26 28 29 27 24 25 26 29 31 33 35 38 41 45 49 54 57 61 63 66 68 69 73 75 75
16 13 11 10 11 17 26 29 32 32 32 31 31 33 32 30 29 28 25 24 25 23 22 23 25 25 26 26 25 25 24 22 21 22 25 27 30 32 35 37 40 44 49 53 55 58 60 64 65 66 70 74 73 64
11 11 12 10 9 11 12 14 17 18 19 21 23 23 22 21 21 22 24 25 26 28 28 26 27 26 24 22 20 19 18 18 20 23 26 29 32 34 37 40 44 48 51 55 55 57 61 62 64 69 72 72 63 53
8 8 9 10 11 12 12 13 11 12 16 18 20 21 22 24 24 24 23 23 23 21 22 22 22 20 18 17 16 16 18 21 24 26 29 31 34 37 40 43 47 50 52 52 56 58 59 61 66 69 69 60 51 46
9 9 10 12 13 13 12 13 14 12 13 14 15 17 20 20 19 19 23 23 23 22 21 19 17 16 15 15 17 19 22 24 26 29 32 34 37 40 43 46 48 48 50 54 55 56 59 64 67 67 58 50 45 41

GFSWCAN_500_spd_117.txt.gz
Wind_Speed
24 29 30 29 28 28 31 35 38 36 33 36 28 32 39 43 35 32 31 30 33 35 41 45 38 32 30 28 24 20 18 19 20 22 23 26 27 25 22 23 24 24 21 21 20 25 25 19 18 15 13 10 9 11
28 33 33 34 35 35 34 36 38 39 38 41 43 40 35 33 31 30 31 32 36 42 43 40 34 30 28 24 20 18 18 19 21 22 25 27 25 22 22 22 22 21 21 21 17 22 26 26 21 19 18 14 12 11
27 35 38 40 39 38 39 39 40 40 40 40 36 34 31 29 28 29 32 37 40 43 41 36 31 27 24 20 18 16 18 19 20 23 23 20 16 17 18 19 17 14 16 15 12 21 22 27 25 21 15 15 14 13
28 34 37 41 42 39 37 38 40 36 35 34 32 30 30 31 32 34 37 39 40 38 35 31 27 23 20 16 15 16 18 18 19 19 15 13 13 12 13 16 22 17 12 10 11 16 20 22 22 20 14 12 12 11
28 29 33 36 39 42 39 35 36 36 33 33 33 30 30 31 33 36 38 41 39 35 31 28 25 20 16 14 14 15 15 16 14 11 11 12 12 12 11 11 14 23 15 10 9 9 16 18 18 15 12 12 10 11
31 32 35 35 35 33 32 32 31 33 35 33 31 30 28 29 31 39 41 42 37 32 29 24 22 17 14 12 12 12 13 10 7 6 7 9 10 10 10 8 9 13 19 7 6 7 10 14 14 12 11 11 11 14
34 37 37 35 36 37 36 36 37 36 35 33 31 30 33 33 35 35 36 34 33 30 26 23 19 15 12 10 9 9 8 6 7 8 8 8 8 9 8 8 9 12 10 9 8 6 6 7 9 11 11 11 12 12
31 35 36 36 36 36 37 37 36 35 34 32 28 28 31 33 31 35 36 32 29 26 23 19 14 11 9 7 7 7 8 8 9 8 9 11 10 9 8 8 10 14 14 11 8 6 5 5 5 6 7 8 10 12
29 30 33 33 36 37 35 33 33 33 30 27 28 34 33 33 32 34 33 29 27 23 18 15 11 9 8 7 8 7 10 11 11 10 11 11 12 10 9 9 9 10 11 10 8 6 6 6 7 8 9 10 13 17
28 28 28 30 30 31 30 31 32 33 32 32 32 32 32 33 34 33 31 27 24 21 17 13 10 7 6 7 7 7 10 13 12 11 11 11 10 10 9 7 11 9 10 10 9 8 8 8 8 8 9 11 14 17
26 26 26 27 27 29 30 29 29 29 29 29 30 29 31 32 33 31 29 26 22 18 14 11 8 5 5 6 7 8 9 12 11 12 11 11 10 7 8 8 8 8 7 7 7 6 6 6 6 7 9 10 12 12
26 27 28 28 28 28 30 30 30 29 27 26 31 33 34 33 31 29 26 22 18 15 11 9 7 5 5 5 7 8 8 8 10 10 10 8 5 4 7 9 8 7 6 6 5 4 4 4 5 5 5 6 8 11
19 22 26 27 29 28 30 32 33 34 35 34 36 35 33 33 31 28 23 18 14 12 10 7 6 5 4 6 7 7 7 8 7 7 3 1 5 8 10 11 8 5 4 4 5 5 5 5 4 4 6 9 12 17
17 21 23 26 27 25 26 27 28 30 31 33 34 34 33 30 24 20 17 14 12 10 7 6 5 4 5 7 6 6 8 7 6 5 8 9 8 6 5 4 4 5 5 5 6 6 5 5 4 6 9 12 16 19
19 23 25 27 27 24 23 26 28 31 33 32 32 30 26 23 19 16 13 12 10 8 7 7 6 6 6 7 6 6 7 6 5 11 12 10 5 3 3 6 7 7 6 6 5 5 5 5 7 9 12 15 19 23
22 24 25 26 27 27 27 27 28 29 29 28 27 25 22 19 16 14 12 10 8 7 7 7 8 7 7 6 6 6 6 6 10 13 13 9 4 4 6 7 6 6 6 7 6 5 5 8 10 13 16 20 24 28
21 22 22 24 24 24 24 24 26 28 27 26 24 20 18 16 14 12 11 10 9 9 8 8 8 9 8 8 8 8 10 11 13 14 12 8 6 5 5 5 6 8 8 8 7 7 9 12 15 18 22 25 30 35
21 23 23 24 25 25 25 25 24 24 23 22 20 19 17 15 14 13 11 10 9 8 8 8 10 10 9 9 9 9 9 11 15 14 11 7 6 7 6 7 8 9 10 10 10 11 14 17 20 23 27 32 36 40
22 22 22 23 24 24 24 22 21 20 19 18 18 17 16 15 15 14 12 11 10 10 9 11 12 9 9 10 10 9 12 14 15 14 12 8 8 8 8 9 10 11 12 14 15 16 18 22 25 28 32 37 41 45
21 20 19 19 19 19 18 18 18 18 18 17 16 16 16 16 15 15 14 12 12 12 13 12 12 10 10 11 12 11 16 17 15 13 12 10 10 11 11 12 13 14 15 17 19 20 23 26 29 33 37 41 46 50
18 17 16 16 16 16 17 17 18 18 18 19 18 18 17 17 17 17 16 16 16 16 15 13 12 11 12 11 13 14 17 19 18 16 14 14 14 14 14 14 15 16 18 20 22 24 27 30 33 37 41 45 49 54
20 18 17 17 17 17 17 18 19 19 19 19 21 21 20 21 20 20 20 21 18 18 15 13 13 12 13 12 12 16 17 17 17 17 17 17 16 15 16 17 19 20 22 24 26 28 30 33 37 41 45 49 53 59
24 23 23 21 20 19 20 20 21 22 22 23 22 23 24 24 25 25 25 23 22 20 16 14 14 14 13 10 10 13 16 17 17 17 17 17 17 17 19 20 22 24 25 27 29 31 33 36 40 44 48 52 57 62
23 23 23 22 22 21 21 20 22 22 23 24 25 26 27 27 27 26 22 23 22 19 17 16 14 13 13 12 11 11 12 12 13 14 15 16 18 20 22 23 24 26 28 30 32 34 36 39 43 47 51 56 60 65
21 20 20 19 19 18 18 17 17 19 20 21 24 26 26 25 26 23 21 21 22 19 17 17 16 15 14 14 13 12 12 13 15 16 18 20 22 24 25 26 27 29 30 32 34 36 38 42 46 50 54 59 64 67
19 19 18 18 17 16 15 16 15 17 18 18 22 22 20 19 21 26 22 20 19 17 16 15 16 17 16 16 16 16 17 18 19 21 23 25 26 27 29 29 30 31 32 34 36 38 41 45 49 53 57 62 65 68
18 16 16 16 16 18 18 17 18 19 19 24 26 25 24 22 24 25 21 18 17 16 15 15 16 16 16 17 17 17 19 21 23 26 27 28 28 30 30 30 31 32 33 36 38 41 44 48 53 56 61 62 65 67
14 17 17 17 18 18 17 18 20 20 25 28 25 23 24 23 21 23 22 19 15 13 14 16 17 18 18 19 19 19 20 23 27 29 30 30 30 30 29 29 30 32 35 38 41 43 47 52 55 59 60 63 64 67
12 11 10 11 12 14 14 16 19 26 27 23 18 24 22 18 19 21 20 18 18 19 20 21 19 20 20 21 22 22 23 26 28 29 29 28 28 27 27 28 31 34 37 40 43 46 50 54 56 57 60 62 65 69
13 12 10 8 7 7 10 18 23 28 27 23 20 19 19 19 21 21 21 20 21 24 25 24 23 21 21 22 24 24 26 25 25 25 25 25 24 25 28 31 34 37 39 42 46 50 52 53 55 57 59 63 67 70
9 7 7 6 6 6 7 12 17 21 27 27 26 25 25 24 23 24 24 27 28 25 23 23 23 23 26 27 27 27 25 23 23 22 22 23 25 27 31 33 36 39 42 45 48 50 50 53 54 56 60 65 68 65
8 7 7 6 5 3 4 5 6 9 12 14 17 18 21 24 24 25 24 23 22 22 22 23 26 25 23 21 21 22 22 21 20 21 22 24 28 30 33 36 38 41 44 46 47 48 51 52 54 58 62 65 64 55
9 8 7 8 10 11 10 9 10 11 10 9 12 15 17 19 20 20 23 25 25 23 23 23 23 23 22 22 21 20 19 20 21 23 25 28 30 33 35 38 41 43 44 45 48 49 50 52 56 60 63 62 53 47

GFSWCAN_500_spd_120.txt.gz
Wind_Speed
22 24 26 25 25 23 30 37 32 31 34 34 37 39 43 36 41 39 38 38 36 37 41 36 33 34 36 39 32 25 25 23 21 19 19 19 21 24 27 28 27 27 27 28 28 28 30 31 25 26 24 23 19 16
27 29 29 26 29 33 33 32 35 37 38 34 32 30 29 35 35 35 33 33 36 37 36 34 35 41 42 34 29 27 22 21 18 17 18 20 23 25 27 26 26 26 26 27 26 27 25 26 28 27 27 24 19 15
27 32 32 29 28 33 40 39 36 37 40 41 39 31 32 34 32 34 37 37 35 32 32 33 37 38 35 31 27 23 21 17 15 16 17 20 22 24 21 19 20 21 19 16 19 19 19 21 28 30 27 25 21 17
33 36 35 34 33 36 38 41 40 40 40 41 38 35 35 35 35 37 36 34 33 31 34 37 39 35 32 27 24 21 17 15 15 15 17 19 21 19 15 14 12 16 14 12 12 15 17 23 26 30 31 22 16 16
34 39 40 40 39 40 41 40 42 40 38 38 38 37 35 36 36 35 35 31 32 32 34 36 36 32 28 25 21 18 15 13 13 13 15 14 11 10 10 12 10 13 19 17 10 10 16 19 18 19 20 19 16 15
33 39 44 45 41 40 40 41 41 39 39 39 37 36 35 36 36 36 34 34 35 35 36 35 32 27 25 22 17 14 12 10 10 11 11 9 9 8 8 10 10 10 15 23 9 11 13 17 18 19 19 16 15 15
32 37 41 46 44 40 42 42 41 38 38 36 36 35 33 30 28 28 27 30 35 35 34 30 27 25 21 17 15 12 9 7 8 8 8 7 5 7 8 7 7 8 12 16 12 11 11 15 17 18 18 17 16 14
30 33 36 38 42 41 38 36 37 36 37 36 34 31 30 28 29 31 34 36 36 33 32 30 26 22 18 15 12 9 6 6 8 9 9 8 8 9 9 8 6 9 17 16 15 13 12 11 12 14 15 14 13 12
32 32 34 35 36 36 35 37 36 35 35 35 34 32 29 27 26 30 33 34 35 29 30 26 22 18 15 12 9 5 4 6 9 12 11 12 10 10 11 9 7 9 19 20 16 16 16 14 12 12 10 10 10 11
31 34 36 36 35 34 36 38 39 37 34 32 31 30 28 25 30 34 36 36 35 31 27 23 20 17 13 10 6 4 5 8 13 14 15 12 12 11 10 11 9 11 13 17 17 16 14 12 11 11 11 11 10 8
33 34 37 39 38 38 38 37 36 35 34 31 27 25 25 28 28 32 33 33 33 28 24 22 19 16 11 7 3 3 5 8 12 15 14 12 13 12 11 12 11 14 14 13 16 15 14 13 13 12 10 9 7 7
30 31 33 35 36 36 36 37 36 33 31 29 28 29 28 30 31 34 34 32 30 26 23 20 16 13 9 4 1 4 5 7 10 10 11 13 13 10 8 11 12 12 12 12 11 11 10 9 8 8 7 7 7 7
30 30 29 29 30 32 33 36 36 36 36 33 33 31 33 36 37 35 32 29 25 22 19 16 13 10 6 1 3 4 6 7 7 8 10 9 7 6 9 10 11 11 11 11 11 10 10 10 9 9 8 7 6 7
29 29 29 29 29 30 30 31 30 28 29 31 31 33 36 33 30 28 27 24 23 19 16 14 11 8 4 0 3 4 5 5 7 7 6 6 7 9 11 10 8 6 6 7 9 10 9 8 7 6 6 6 7 10
27 27 28 28 28 29 30 31 31 31 30 32 32 33 30 28 28 27 26 22 20 18 16 13 10 6 3 3 4 5 5 7 7 7 9 10 8 7 6 6 7 7 8 8 8 8 8 7 7 7 8 9 12 16
22 24 27 29 28 27 28 30 30 30 29 31 29 29 30 29 27 24 21 20 17 15 13 10 8 7 6 5 5 6 7 7 7 9 13 12 8 5 6 7 8 7 7 8 8 8 8 8 8 9 11 14 18 21
23 24 26 29 27 25 25 27 28 30 30 31 30 30 28 26 24 22 21 19 17 15 12 9 7 6 6 6 7 8 8 7 8 11 14 13 9 7 6 6 5 6 6 7 8 9 10 10 11 14 16 20 23 27
23 26 26 28 29 30 27 26 27 29 28 27 25 26 26 24 22 21 19 17 15 13 11 10 8 8 7 8 9 8 8 9 12 14 14 13 9 7 6 6 6 7 9 11 12 13 13 15 17 19 22 25 28 32
23 25 26 27 27 27 27 27 27 25 25 26 26 24 22 21 19 18 18 17 15 12 10 9 8 9 9 10 10 10 8 9 13 16 16 13 10 8 8 8 9 10 11 13 15 17 19 20 22 25 28 30 33 36
19 20 21 23 24 23 24 24 25 25 25 24 23 21 20 19 18 18 17 15 13 12 11 11 12 11 11 10 9 10 9 11 14 16 16 14 13 11 11 11 12 13 14 15 16 18 21 24 27 30 32 35 38 41
17 18 19 21 22 24 25 25 24 23 22 20 19 18 17 17 17 17 17 16 15 15 15 12 11 11 11 11 11 11 11 15 17 17 16 15 14 14 15 16 15 16 17 18 19 21 24 26 29 32 35 38 42 45
19 19 19 19 19 18 18 18 19 19 18 19 19 18 18 18 17 16 16 17 18 17 15 13 12 12 11 10 11 11 13 15 17 18 18 17 17 17 17 17 17 17 19 21 23 25 27 29 32 35 38 41 44 47
16 15 15 15 16 16 18 18 19 18 19 19 19 19 19 18 19 19 20 21 21 18 17 15 14 12 11 10 9 9 12 14 16 16 17 17 17 17 17 17 18 19 21 23 25 28 30 32 35 38 40 43 46 50
17 17 17 17 17 18 18 19 18 19 20 20 21 21 21 21 22 23 23 23 23 21 18 15 13 13 12 12 10 9 9 10 11 12 13 14 15 16 18 20 21 23 25 27 29 31 33 35 37 39 42 45 48 52
20 20 19 19 19 20 20 19 20 20 21 22 22 23 24 24 24 24 24 22 21 21 18 16 15 14 13 12 11 10 9 9 10 11 13 15 17 20 22 24 26 27 29 30 32 34 35 37 39 41 45 48 51 56
17 16 16 15 15 16 16 18 19 19 20 21 21 23 24 23 24 22 20 19 20 20 18 16 16 16 16 16 14 13 13 13 13 15 17 18 21 23 25 27 29 31 32 33 34 34 36 38 41 44 47 50 55 58
16 16 16 16 16 17 17 17 18 17 17 17 17 18 20 20 19 20 23 21 20 18 17 16 15 15 15 16 16 15 15 15 15 17 20 23 25 28 29 30 31 32 33 33 33 35 38 41 43 46 50 54 56 57
15 16 16 15 15 15 16 16 17 17 17 18 18 20 20 18 17 21 24 23 21 17 16 15 14 14 15 16 16 16 17 18 19 21 24 27 30 31 31 31 31 31 31 32 34 37 40 42 45 49 52 54 55 57
14 13 13 13 14 15 17 17 17 18 18 19 21 23 19 18 17 19 23 23 19 17 15 12 13 15 15 16 19 19 20 21 23 24 26 30 32 31 30 29 29 29 30 33 36 38 41 45 48 51 51 53 55 57
9 9 8 7 7 6 7 9 12 14 16 20 21 19 19 19 19 18 19 20 19 18 17 17 20 21 21 20 20 20 21 23 25 27 29 31 31 29 27 26 27 30 33 35 38 40 44 47 48 50 52 53 55 59
12 11 9 8 6 4 2 2 5 13 20 22 17 18 19 18 16 15 16 17 19 22 22 22 23 22 21 20 21 22 26 28 26 27 29 29 28 26 26 28 30 32 34 36 40 43 45 46 49 50 51 53 57 60
8 6 5 5 5 4 3 3 3 7 16 22 21 20 21 21 21 22 21 22 23 26 27 25 22 20 20 21 24 25 25 24 25 26 27 26 25 26 27 29 31 33 37 40 42 43 44 47 48 49 52 55 59 61
3 2 1 2 3 4 3 2 3 5 6 7 10 14 17 19 20 19 23 25 24 24 23 22 23 23 23 24 24 24 24 25 25 24 23 23 24 26 28 31 34 38 40 41 42 44 45 46 48 51 54 58 59 55